[[{"header":{"parameterUnit":"m.s-1","parameterCategory":1,"la1":30.6,"la2":29.2853,"lo1":-89.7004,"lo2":-87.6739,"dy":0.0162,"dx":0.0183,"nx":112,"ny":82,"refTime":"2023-04-26T18:00:00:Z","depth":0,"parameterNumber":2,"parameterNumberName":"U-component_of_WINDS"},"data":[0.0,0.0,0.0,0.0,0.0,0.0,0.0,0.0,0.0,0.0,0.0,0.0,0.0,0.0,0.0,0.0,0.0,0.0,0.0,0.0,0.0,0.0,0.0,0.0,0.0,0.0,0.0,0.0,0.0,0.0,0.0,0.0,0.0,0.0,0.0,0.0,0.0,0.0,0.0,0.0,0.0,0.0,0.0,0.0,0.0,0.0,0.0,0.0,0.0,0.0,0.0,0.0,0.0,0.0,0.0,0.0,0.0,0.0,0.0,0.0,0.0,0.0,0.0,0.0,0.0,0.0,0.0,0.0,0.0,0.0,0.0,0.0,0.0,0.0,0.0,0.0,0.0,0.0,0.0,0.0,0.0,0.0,0.0,0.0,0.0,0.0,0.0,0.0,0.0,0.0,2.8005,2.8088,2.8201,2.825,2.8137,2.8137,2.8137,2.8186,0.0,0.0,0.0,0.0,0.0,0.0,0.0,0.0,0.0,0.0,0.0,0.0,0.0,0.0,0.0,0.0,0.0,0.0,0.0,0.0,0.0,0.0,0.0,0.0,0.0,0.0,0.0,0.0,0.0,0.0,0.0,0.0,0.0,0.0,0.0,0.0,0.0,0.0,0.0,0.0,0.0,0.0,0.0,0.0,0.0,0.0,0.0,0.0,0.0,0.0,0.0,0.0,0.0,0.0,0.0,0.0,0.0,0.0,0.0,0.0,0.0,0.0,0.0,0.0,0.0,0.0,0.0,0.0,0.0,0.0,0.0,0.0,0.0,0.0,0.0,0.0,0.0,0.0,0.0,0.0,0.0,0.0,0.0,0.0,0.0,0.0,0.0,0.0,0.0,0.0,0.0,0.0,0.0,0.0,0.0,0.0,0.0,0.0,0.0,0.0,0.0,0.0,0.0,0.0,2.779,2.7725,2.7725,2.7775,2.784,2.784,2.794,2.8186,0.0,0.0,0.0,0.0,0.0,0.0,0.0,0.0,0.0,0.0,0.0,0.0,0.0,0.0,0.0,0.0,0.0,0.0,0.0,0.0,0.0,0.0,0.0,0.0,0.0,0.0,0.0,0.0,0.0,0.0,0.0,0.0,0.0,0.0,0.0,0.0,0.0,0.0,0.0,0.0,0.0,0.0,0.0,0.0,0.0,0.0,0.0,0.0,0.0,0.0,0.0,0.0,0.0,0.0,0.0,0.0,0.0,0.0,0.0,0.0,0.0,0.0,0.0,0.0,0.0,0.0,0.0,0.0,0.0,0.0,0.0,0.0,0.0,0.0,0.0,0.0,0.0,0.0,0.0,0.0,0.0,0.0,0.0,0.0,0.0,0.0,0.0,0.0,0.0,0.0,0.0,0.0,0.0,0.0,0.0,0.0,0.0,0.0,0.0,0.0,0.0,0.0,0.0,2.8005,2.794,2.774,2.7825,2.7875,2.779,2.779,2.784,2.7989,2.8039,0.0,0.0,0.0,0.0,0.0,0.0,0.0,0.0,0.0,0.0,0.0,0.0,0.0,0.0,0.0,0.0,0.0,0.0,0.0,0.0,0.0,0.0,0.0,0.0,0.0,0.0,0.0,0.0,0.0,0.0,0.0,0.0,0.0,0.0,0.0,0.0,0.0,0.0,0.0,0.0,0.0,0.0,0.0,0.0,0.0,0.0,0.0,0.0,0.0,0.0,0.0,0.0,0.0,0.0,0.0,0.0,0.0,0.0,0.0,0.0,0.0,0.0,0.0,0.0,0.0,0.0,0.0,0.0,0.0,0.0,0.0,0.0,0.0,0.0,0.0,0.0,0.0,0.0,0.0,0.0,0.0,0.0,0.0,0.0,0.0,0.0,0.0,0.0,0.0,0.0,0.0,0.0,0.0,0.0,0.0,0.0,0.0,0.0,0.0,0.0,0.0,0.0,2.7989,2.7974,2.779,2.794,2.7989,2.779,2.779,2.779,2.789,2.7955,0.0,0.0,0.0,0.0,0.0,0.0,0.0,0.0,0.0,0.0,0.0,0.0,0.0,0.0,0.0,0.0,0.0,0.0,0.0,0.0,0.0,0.0,0.0,0.0,0.0,0.0,0.0,0.0,0.0,0.0,0.0,0.0,0.0,0.0,0.0,0.0,0.0,0.0,0.0,0.0,0.0,0.0,0.0,0.0,0.0,0.0,0.0,0.0,0.0,0.0,0.0,0.0,0.0,0.0,0.0,0.0,0.0,0.0,0.0,0.0,0.0,0.0,0.0,0.0,0.0,0.0,0.0,0.0,0.0,0.0,0.0,0.0,0.0,0.0,0.0,0.0,0.0,0.0,0.0,0.0,0.0,0.0,0.0,0.0,0.0,0.0,0.0,0.0,0.0,0.0,0.0,0.0,0.0,0.0,0.0,0.0,0.0,0.0,0.0,0.0,0.0,0.0,2.7725,2.7625,2.7625,2.7625,2.7675,2.779,2.7675,2.7775,2.8137,2.8054,0.0,0.0,0.0,0.0,0.0,0.0,0.0,0.0,0.0,0.0,0.0,0.0,0.0,0.0,0.0,0.0,0.0,0.0,0.0,0.0,0.0,0.0,0.0,0.0,0.0,0.0,0.0,0.0,0.0,0.0,0.0,0.0,0.0,0.0,0.0,0.0,0.0,0.0,0.0,0.0,0.0,0.0,0.0,0.0,0.0,0.0,0.0,0.0,0.0,0.0,0.0,0.0,0.0,0.0,0.0,0.0,0.0,0.0,0.0,0.0,0.0,0.0,0.0,0.0,0.0,0.0,0.0,0.0,0.0,0.0,0.0,0.0,0.0,0.0,0.0,0.0,0.0,0.0,0.0,0.0,0.0,0.0,0.0,0.0,0.0,0.0,0.0,0.0,0.0,0.0,0.0,0.0,0.0,0.0,0.0,0.0,0.0,0.0,0.0,0.0,0.0,0.0,2.7905,2.779,0.0,2.7675,2.7725,2.7675,2.7625,2.766,2.7825,0.0,0.0,0.0,0.0,0.0,0.0,0.0,0.0,0.0,0.0,0.0,0.0,0.0,0.0,0.0,0.0,0.0,0.0,0.0,0.0,0.0,0.0,0.0,0.0,0.0,0.0,0.0,0.0,0.0,0.0,0.0,0.0,0.0,0.0,0.0,0.0,0.0,0.0,0.0,0.0,0.0,0.0,0.0,0.0,0.0,0.0,0.0,0.0,0.0,0.0,0.0,0.0,0.0,0.0,0.0,0.0,0.0,0.0,0.0,0.0,0.0,0.0,0.0,0.0,0.0,0.0,0.0,0.0,0.0,0.0,0.0,0.0,0.0,0.0,0.0,0.0,0.0,0.0,0.0,0.0,0.0,0.0,0.0,0.0,0.0,0.0,0.0,0.0,0.0,0.0,0.0,0.0,0.0,0.0,0.0,0.0,0.0,0.0,0.0,0.0,0.0,0.0,2.8273,2.8404,2.8439,0.0,2.8321,2.8321,2.8255,2.8203,2.8255,2.8357,0.0,0.0,0.0,0.0,0.0,0.0,0.0,0.0,0.0,0.0,0.0,0.0,0.0,0.0,0.0,0.0,0.0,0.0,0.0,0.0,0.0,0.0,0.0,0.0,0.0,0.0,0.0,0.0,0.0,0.0,0.0,0.0,0.0,0.0,0.0,0.0,0.0,0.0,0.0,0.0,0.0,0.0,0.0,0.0,0.0,0.0,0.0,0.0,0.0,0.0,0.0,0.0,0.0,0.0,0.0,0.0,0.0,0.0,0.0,0.0,0.0,0.0,0.0,0.0,0.0,0.0,0.0,0.0,0.0,0.0,0.0,0.0,0.0,0.0,0.0,0.0,0.0,0.0,0.0,0.0,0.0,0.0,0.0,0.0,0.0,0.0,0.0,0.0,0.0,0.0,0.0,0.0,0.0,0.0,0.0,0.0,0.0,0.0,0.0,0.0,0.0,0.0,2.8852,2.9267,2.9579,2.9579,2.9579,2.9579,2.9579,2.9579,2.9687,0.0,0.0,0.0,0.0,0.0,0.0,0.0,0.0,0.0,0.0,0.0,0.0,0.0,0.0,0.0,0.0,0.0,0.0,0.0,0.0,0.0,0.0,0.0,0.0,0.0,0.0,0.0,0.0,0.0,0.0,0.0,0.0,0.0,0.0,0.0,0.0,0.0,0.0,0.0,0.0,0.0,0.0,0.0,0.0,0.0,0.0,0.0,0.0,0.0,0.0,0.0,0.0,0.0,0.0,0.0,0.0,0.0,0.0,0.0,0.0,0.0,0.0,0.0,0.0,0.0,0.0,0.0,0.0,0.0,0.0,0.0,0.0,0.0,0.0,0.0,0.0,0.0,0.0,0.0,0.0,0.0,0.0,0.0,0.0,0.0,0.0,0.0,0.0,0.0,0.0,0.0,0.0,0.0,0.0,0.0,0.0,0.0,0.0,0.0,0.0,0.0,0.0,0.0,2.9652,2.9621,2.9579,2.9579,2.9579,2.9579,2.9579,2.9579,2.9633,2.9687,0.0,0.0,0.0,0.0,0.0,0.0,0.0,0.0,0.0,0.0,0.0,0.0,0.0,0.0,0.0,0.0,0.0,0.0,0.0,0.0,0.0,0.0,0.0,0.0,0.0,0.0,0.0,0.0,0.0,0.0,0.0,0.0,0.0,0.0,0.0,0.0,0.0,0.0,0.0,0.0,0.0,0.0,0.0,0.0,0.0,0.0,0.0,0.0,0.0,0.0,0.0,0.0,0.0,0.0,0.0,0.0,0.0,0.0,0.0,0.0,0.0,0.0,0.0,0.0,0.0,0.0,0.0,0.0,0.0,0.0,0.0,0.0,0.0,0.0,0.0,0.0,0.0,0.0,0.0,0.0,0.0,0.0,0.0,0.0,0.0,0.0,0.0,0.0,0.0,0.0,0.0,0.0,0.0,0.0,0.0,0.0,0.0,0.0,0.0,0.0,0.0,0.0,3.0334,3.0358,3.0357,3.0357,3.0357,3.0357,3.0357,3.0357,3.0413,3.0483,0.0,0.0,0.0,0.0,0.0,0.0,0.0,0.0,0.0,0.0,0.0,0.0,0.0,0.0,0.0,0.0,0.0,0.0,0.0,0.0,0.0,0.0,0.0,0.0,0.0,0.0,0.0,0.0,0.0,0.0,0.0,0.0,0.0,0.0,0.0,0.0,0.0,0.0,0.0,0.0,0.0,0.0,0.0,0.0,0.0,0.0,0.0,0.0,0.0,0.0,0.0,0.0,0.0,0.0,0.0,0.0,0.0,0.0,0.0,0.0,0.0,0.0,0.0,0.0,0.0,0.0,0.0,0.0,0.0,0.0,0.0,0.0,0.0,0.0,0.0,0.0,0.0,0.0,0.0,0.0,0.0,0.0,0.0,0.0,0.0,0.0,0.0,0.0,0.0,0.0,0.0,0.0,0.0,0.0,0.0,0.0,0.0,0.0,0.0,0.0,0.0,0.0,3.0905,3.1279,3.1482,3.1482,3.1482,3.1482,3.1482,3.1482,3.1539,3.167,0.0,0.0,0.0,0.0,0.0,0.0,0.0,0.0,0.0,0.0,0.0,0.0,0.0,0.0,0.0,0.0,0.0,0.0,0.0,0.0,0.0,0.0,0.0,0.0,0.0,0.0,0.0,0.0,0.0,0.0,0.0,0.0,0.0,0.0,0.0,0.0,0.0,0.0,0.0,0.0,0.0,0.0,0.0,0.0,0.0,0.0,0.0,0.0,0.0,0.0,0.0,0.0,0.0,0.0,0.0,0.0,0.0,0.0,0.0,0.0,2.7986,0.0,0.0,0.0,0.0,0.0,0.0,0.0,0.0,0.0,0.0,0.0,0.0,0.0,0.0,0.0,0.0,0.0,0.0,0.0,0.0,0.0,0.0,0.0,0.0,0.0,0.0,0.0,0.0,0.0,0.0,0.0,0.0,0.0,0.0,0.0,0.0,0.0,0.0,0.0,0.0,0.0,3.1713,3.1622,3.1482,3.1482,3.1482,3.1482,3.1482,3.1482,3.1278,3.0837,3.0777,0.0,0.0,0.0,0.0,0.0,0.0,0.0,0.0,0.0,0.0,0.0,0.0,0.0,0.0,0.0,0.0,0.0,0.0,0.0,0.0,0.0,0.0,0.0,0.0,0.0,0.0,0.0,0.0,0.0,0.0,0.0,0.0,0.0,0.0,0.0,0.0,0.0,0.0,0.0,0.0,0.0,0.0,0.0,0.0,0.0,0.0,0.0,0.0,0.0,0.0,0.0,0.0,0.0,0.0,0.0,0.0,0.0,0.0,0.0,0.0,2.8643,0.0,0.0,0.0,0.0,0.0,0.0,0.0,0.0,0.0,0.0,0.0,0.0,0.0,0.0,0.0,0.0,0.0,0.0,0.0,0.0,0.0,0.0,0.0,0.0,0.0,0.0,0.0,0.0,0.0,0.0,0.0,0.0,0.0,0.0,0.0,0.0,0.0,0.0,0.0,0.0,3.2849,3.2078,3.1529,3.1911,3.1652,3.1391,3.1391,3.1391,3.1267,3.094,3.0862,0.0,0.0,0.0,0.0,0.0,0.0,0.0,0.0,0.0,0.0,0.0,0.0,0.0,0.0,0.0,0.0,0.0,0.0,0.0,0.0,0.0,0.0,0.0,0.0,0.0,0.0,0.0,0.0,0.0,0.0,0.0,0.0,0.0,0.0,0.0,0.0,0.0,0.0,0.0,0.0,0.0,0.0,0.0,0.0,0.0,0.0,0.0,0.0,0.0,0.0,0.0,0.0,0.0,2.938,2.9743,2.9465,2.9863,3.0084,3.0061,2.9976,2.9699,2.9357,2.9277,0.0,0.0,0.0,0.0,0.0,0.0,0.0,0.0,0.0,0.0,0.0,0.0,0.0,0.0,0.0,0.0,0.0,0.0,0.0,0.0,0.0,0.0,0.0,0.0,2.7247,2.7727,0.0,0.0,0.0,0.0,0.0,0.0,0.0,0.0,0.0,0.0,0.0,0.0,3.3395,3.2234,3.1519,3.2134,3.1664,3.1321,3.1321,3.1321,3.1254,3.1121,3.1135,3.1135,0.0,0.0,0.0,0.0,0.0,0.0,0.0,0.0,0.0,0.0,0.0,0.0,0.0,0.0,0.0,0.0,0.0,0.0,0.0,0.0,0.0,0.0,0.0,0.0,0.0,0.0,0.0,0.0,0.0,0.0,0.0,0.0,2.3185,2.3569,0.0,0.0,0.0,0.0,0.0,0.0,0.0,0.0,0.0,0.0,0.0,0.0,0.0,2.7744,2.8656,2.8744,2.891,2.9232,2.9894,3.0474,3.0861,3.1004,3.1121,3.106,3.0686,0.0,3.0253,2.9317,0.0,0.0,0.0,0.0,0.0,0.0,0.0,0.0,0.0,0.0,0.0,0.0,0.0,0.0,0.0,0.0,0.0,0.0,0.0,0.0,0.0,0.0,2.7525,2.738,2.7486,2.7656,0.0,2.8461,2.8831,2.9714,2.9825,0.0,0.0,0.0,0.0,0.0,0.0,0.0,3.1832,3.1519,3.1321,3.1453,3.1387,3.1321,3.1321,3.1321,3.1068,3.0487,3.0419,3.0419,3.0419,2.9824,0.0,0.0,0.0,0.0,0.0,0.0,0.0,0.0,0.0,0.0,0.0,0.0,0.0,0.0,0.0,0.0,0.0,0.0,0.0,0.0,0.0,0.0,0.0,0.0,0.0,0.0,0.0,0.0,0.0,2.2641,2.3258,2.37,2.3878,2.4008,0.0,0.0,0.0,0.0,0.0,0.0,0.0,0.0,0.0,2.7669,2.7966,2.8335,2.8793,2.9086,2.9375,2.9516,3.0152,3.0597,3.082,3.0854,3.1255,3.1902,3.1322,3.1501,3.2031,3.0541,3.016,3.0488,0.0,0.0,0.0,0.0,2.9959,2.9565,2.9139,2.862,0.0,2.7789,0.0,0.0,0.0,0.0,0.0,0.0,0.0,0.0,0.0,0.0,0.0,2.8516,2.8516,2.8582,2.883,2.8998,2.9277,0.0,2.9934,3.0083,3.0951,0.0,0.0,0.0,0.0,3.1802,3.2506,3.1736,3.1327,3.1722,3.1398,3.1128,3.1128,3.1128,3.0998,3.0724,3.0652,3.0652,3.0652,3.0375,3.0375,0.0,0.0,0.0,0.0,0.0,0.0,0.0,0.0,0.0,0.0,0.0,0.0,0.0,0.0,0.0,0.0,0.0,0.0,0.0,0.0,0.0,0.0,0.0,0.0,0.0,0.0,0.0,0.0,2.2051,2.2921,2.346,2.3799,2.4103,0.0,0.0,0.0,0.0,0.0,0.0,2.5581,2.6284,2.7078,2.79,2.8266,2.8511,2.8668,2.9223,2.9537,2.9537,3.0348,3.0711,3.0711,3.0711,3.1326,3.23,3.1527,3.1801,3.2794,3.1684,3.1258,3.1319,3.1394,3.1454,3.1514,3.1454,3.0863,3.0087,2.9449,2.8731,2.8035,2.7653,0.0,2.7923,2.8408,0.0,0.0,0.0,0.0,2.9274,2.9274,2.9274,2.9274,2.9274,2.9274,2.9327,2.947,2.9497,2.9587,0.0,2.9824,2.9934,3.0623,0.0,0.0,0.0,0.0,3.1828,3.2749,3.1763,3.1185,3.1736,3.1334,3.0986,3.0986,3.0986,3.0986,3.0986,3.0986,3.0986,3.0986,3.0986,3.0986,3.0986,0.0,0.0,0.0,0.0,0.0,0.0,0.0,0.0,0.0,0.0,0.0,0.0,0.0,0.0,0.0,0.0,0.0,0.0,0.0,0.0,0.0,0.0,0.0,0.0,0.0,0.0,0.0,0.0,0.0,2.2386,2.3604,0.0,0.0,0.0,0.0,2.5217,2.5243,2.5432,2.5857,2.5946,2.6459,2.7596,2.761,2.7931,2.8525,2.9059,2.9292,2.9292,3.0516,3.1058,3.1058,3.1058,3.1466,3.2139,3.0823,3.0691,3.1453,3.2169,3.2474,3.2572,3.2474,3.2538,3.2572,3.2474,3.1528,3.0297,3.0487,2.9552,2.8409,2.8782,2.9067,2.9196,2.8983,2.9093,0.0,0.0,2.9274,2.9274,2.9274,2.9274,2.9274,2.9274,2.9274,2.9431,2.9967,3.0098,2.9928,0.0,2.9345,2.9587,3.0557,0.0,3.1297,3.1569,3.1842,3.1842,3.1185,3.1061,3.0986,3.1048,3.0986,3.0986,3.0986,3.0986,3.0986,3.0986,3.0986,3.0986,3.0986,3.0986,3.0986,3.0986,3.132,0.0,0.0,0.0,0.0,0.0,0.0,0.0,0.0,0.0,0.0,0.0,0.0,0.0,0.0,0.0,0.0,0.0,0.0,0.0,0.0,0.0,0.0,0.0,0.0,0.0,0.0,0.0,0.0,2.2729,2.3555,0.0,2.3544,2.4511,2.4924,2.4434,2.5096,2.5755,2.6385,2.6725,2.7445,2.8685,2.8698,2.8996,2.9592,2.9808,2.9916,2.9916,3.0324,3.0542,3.0542,3.0542,3.0801,3.1282,3.0769,3.0929,3.1493,3.1873,3.1695,3.1054,3.1068,3.1068,3.1054,3.1068,3.0664,3.0173,2.9744,2.9267,2.8795,2.8703,2.8946,2.9447,2.9507,2.9852,3.0238,3.0385,3.0372,3.0372,3.0372,3.0372,3.0372,3.0372,3.0372,3.0438,3.0647,3.0686,3.062,3.0411,3.0372,3.0511,3.0869,3.0956,3.1095,3.1172,3.1334,3.1391,3.1483,3.1535,3.1679,3.2045,3.2084,3.2084,3.2084,3.2084,3.2084,3.2084,3.2084,3.2084,3.2084,3.2084,3.2084,3.2084,3.2226,3.2239,0.0,0.0,0.0,0.0,0.0,0.0,0.0,0.0,0.0,0.0,0.0,0.0,0.0,0.0,0.0,0.0,0.0,0.0,0.0,0.0,0.0,0.0,0.0,0.0,0.0,0.0,2.1328,2.2121,2.3131,2.3553,2.3248,2.4094,2.4511,2.4026,2.4908,2.5667,2.602,2.6943,2.7747,2.8404,2.8733,2.9082,2.9421,2.9605,2.9626,2.9555,2.9751,2.9843,2.9843,2.9843,3.0112,3.0613,3.0307,3.0529,3.1119,3.1268,3.0913,3.0276,3.0707,3.0837,3.0837,3.0837,3.0697,3.0344,2.9567,2.9361,2.9374,2.9045,2.9374,2.9817,3.0028,3.0387,3.0773,3.0911,3.0986,3.0986,3.0986,3.0986,3.1039,3.1222,3.1274,3.1326,3.1522,3.1561,3.1561,3.1561,3.1248,3.1052,3.1248,3.1274,3.1339,3.1535,3.1561,3.1692,3.2084,3.2123,3.228,3.2659,3.2685,3.2685,3.2685,3.2685,3.2685,3.2685,3.2685,3.2685,3.2685,3.2685,3.2685,3.2685,3.2685,3.2685,3.2685,0.0,0.0,0.0,0.0,0.0,0.0,0.0,0.0,0.0,0.0,0.0,0.0,0.0,0.0,0.0,0.0,0.0,0.0,0.0,0.0,0.0,0.0,0.0,1.7028,1.8202,1.9458,2.0673,2.2237,2.3307,2.3548,2.3852,2.412,2.407,2.4814,2.5194,2.4877,2.6408,2.71,2.6851,2.7582,2.8,2.7817,2.83,2.8484,2.8356,2.8819,2.9077,2.9077,2.9089,2.9468,3.0139,2.939,2.9468,3.0177,3.0211,3.0208,3.0386,3.162,3.2069,3.2069,3.2069,3.1616,3.081,3.0126,2.9984,3.0126,3.0126,3.0279,3.0496,3.0674,3.075,3.075,3.0963,3.1039,3.1039,3.1039,3.1039,3.1169,3.1731,3.1798,3.2019,3.2568,3.2685,3.2685,3.2685,3.1797,3.1222,3.1771,3.1798,3.2058,3.2607,3.2685,0.0,3.2725,3.2725,3.2725,3.2738,3.2738,3.2738,3.2738,3.2738,3.2738,3.2738,3.2738,3.2738,3.2738,3.2738,3.2738,3.2738,3.2738,3.2738,3.2738,0.0,0.0,0.0,0.0,0.0,0.0,0.0,0.0,0.0,0.0,0.0,0.0,0.0,0.0,0.0,0.0,0.0,0.0,0.0,0.0,0.0,0.0,1.5619,1.7338,1.8511,1.9659,2.0735,2.1774,2.236,2.2317,2.3401,2.405,2.3827,2.4522,2.5335,2.6225,2.6111,2.6422,2.7327,2.6877,2.7077,2.8029,2.7357,2.7667,2.8831,2.8023,2.801,2.8609,2.8214,2.8122,2.8195,2.7963,2.7878,2.7952,2.8111,2.8351,2.8669,3.0773,3.1626,3.1626,3.1626,3.1468,3.1242,3.1027,3.1027,3.1027,3.1027,3.1107,3.1187,3.1611,3.1611,3.1519,3.2071,3.215,3.2071,3.2228,3.2228,3.2254,3.2424,3.245,3.2502,3.2659,3.2685,3.2685,3.2685,3.2437,3.228,3.2437,3.245,3.2515,3.2672,3.2685,0.0,3.3287,3.3352,3.3496,3.3888,3.3927,3.3927,3.3927,3.3927,3.3927,3.3927,3.3927,3.3927,3.3927,3.3927,3.3927,3.3927,3.3927,3.3927,0.0,0.0,0.0,0.0,0.0,0.0,0.0,0.0,0.0,0.0,0.0,0.0,0.0,0.0,0.0,0.0,0.0,0.0,0.0,0.0,0.0,0.0,1.3385,1.4573,1.642,1.7772,1.8957,1.9756,2.0595,2.1128,2.1281,2.2331,2.2981,2.3014,2.3962,2.488,2.5543,2.5644,2.6017,2.6668,2.637,2.6619,2.7531,2.6963,2.7148,2.828,2.7464,2.7342,2.7867,2.7533,2.7404,0.0,2.725,2.725,2.7183,2.7557,2.79,0.0,0.0,0.0,0.0,0.0,3.1058,3.1386,3.1386,3.1386,3.1386,3.1386,3.1386,3.148,3.1818,3.183,3.1818,3.238,3.246,3.246,3.2619,3.2685,3.2751,3.3012,3.3064,3.313,3.3352,3.3404,3.3404,3.3404,3.3404,0.0,3.3404,3.3221,3.3143,3.3378,3.3404,3.3535,3.3888,3.3927,3.4045,3.4358,3.4397,3.4397,3.4397,3.4397,0.0,0.0,0.0,3.4397,3.4397,3.4397,0.0,0.0,0.0,3.4397,3.4397,0.0,0.0,0.0,3.2921,3.2685,0.0,0.0,0.0,0.0,0.0,0.0,0.0,0.0,0.0,0.0,0.0,0.0,0.0,0.0,0.0,0.0,1.2558,1.3685,1.4685,1.6381,1.7711,1.8325,1.9225,2.0038,2.0504,2.1099,2.1597,2.205,2.3356,2.4051,2.3992,0.0,0.0,0.0,0.0,2.6422,2.6755,2.6616,2.6748,2.7073,2.695,2.6893,2.6982,2.6836,2.6768,2.6768,2.6768,2.6768,2.6811,2.7681,2.8116,2.8353,2.9225,2.9234,2.8804,2.9697,3.065,3.141,3.1315,0.0,0.0,3.141,3.141,3.1492,3.1845,3.1845,3.1927,3.2413,3.2574,3.2574,3.2802,3.2881,3.3012,3.3548,3.3679,3.3809,3.4293,3.4397,3.4397,3.4397,3.4397,3.4397,3.4397,3.4005,3.3849,3.4332,3.4397,3.4397,3.4397,3.4397,3.4397,3.4397,0.0,0.0,3.4397,3.4397,3.4397,3.4397,3.4397,3.4397,3.4397,3.4397,3.4397,3.4397,3.4397,3.4397,3.4397,3.4397,3.4397,3.4371,3.3352,3.2881,0.0,0.0,0.0,0.0,0.0,0.0,0.0,0.0,0.0,0.0,0.0,0.0,0.0,0.0,0.0,1.0809,1.1919,1.2925,1.3094,1.4932,1.6908,1.8576,1.9226,1.9874,2.0893,2.1068,2.1313,2.1712,2.2418,2.3197,2.4206,2.4619,2.5041,2.57,2.53,2.5458,2.6235,2.5359,2.5661,2.7084,0.0,0.0,2.6474,2.5225,2.4716,2.4716,2.4716,2.4716,2.4726,2.5816,2.6886,2.8147,2.9331,2.9848,2.9871,3.0062,3.0773,3.1487,3.0685,3.0949,3.1586,3.1586,3.1586,3.176,3.2729,3.2924,0.0,3.3585,3.3656,3.356,3.3988,3.4071,3.4097,3.4214,3.4241,3.4267,3.4371,3.4397,3.4397,3.4397,3.4397,3.4397,3.4397,3.4306,3.428,3.4384,3.4397,3.4397,3.4397,3.4397,3.4397,3.4397,3.4397,3.4397,3.4397,3.4397,3.4397,3.4397,3.4397,3.4397,3.4397,3.4397,3.4397,3.4397,3.4397,3.4397,3.4397,3.4397,3.4397,3.4384,3.4175,3.4071,0.0,0.0,0.0,0.0,0.0,0.0,0.0,0.0,0.0,0.0,0.0,0.7492,0.0,0.0,0.9287,1.0269,1.1342,1.2215,1.2849,1.3973,1.5473,1.7501,1.841,1.9299,2.0291,2.0558,2.0712,2.1101,2.1461,2.197,2.2888,2.2787,2.3095,2.3631,2.3233,2.3355,2.4013,2.3465,2.3748,2.4762,2.416,2.4068,2.4437,2.3682,2.3285,2.3285,2.3285,2.3285,2.3384,2.451,2.5771,2.7305,2.7851,2.8969,3.017,2.9624,3.0079,3.0812,3.0351,3.0531,3.0902,3.0902,3.0902,3.108,3.2152,3.2426,3.2525,3.3215,3.33,3.33,3.381,3.3894,3.3979,3.4314,3.4397,3.4397,3.4397,3.4397,3.4397,3.4397,3.4397,3.4397,3.4397,3.4397,3.4397,3.4397,3.4397,3.4397,3.4397,3.4397,3.4397,3.4397,3.4397,3.4397,3.4397,3.4397,3.4397,3.4397,3.4397,3.4397,3.4397,3.4397,3.4397,3.4397,3.4397,3.4397,3.4397,3.4397,3.4397,3.4397,3.4397,3.4397,0.0,0.0,0.0,0.0,0.0,0.0,0.0,0.0,0.5534,0.5364,0.5565,0.6028,0.6557,0.7302,0.8401,1.0129,1.0948,1.1744,1.2854,1.3351,1.426,1.6005,1.732,1.8523,1.9457,1.9741,1.9975,2.0352,2.0624,2.0863,2.1255,2.1258,2.1354,2.1665,2.155,2.1633,2.2038,2.2047,2.2192,2.2484,2.2484,2.2484,2.2484,2.2291,2.219,2.219,2.219,2.2291,2.2593,2.3384,2.459,2.58,2.61,2.7484,2.9223,2.862,2.9084,2.9897,2.9715,2.9715,2.9897,2.9897,2.9897,3.0079,3.108,3.1347,3.1448,3.2064,3.2339,3.2525,3.3129,3.3215,3.3386,3.423,3.4314,3.423,3.4397,3.4397,3.4397,3.4397,3.4397,3.4397,3.4397,3.4397,3.4397,3.4397,3.4397,3.4397,3.4397,3.4397,3.4397,3.4397,3.4397,3.4397,3.4397,3.4397,3.4397,3.4397,3.4397,3.4397,3.4397,3.4397,3.4397,3.4397,3.4397,3.4397,3.4397,3.4397,3.4397,3.4397,3.4397,3.4397,0.2418,0.3075,0.322,0.2511,0.3048,0.3764,0.0,0.0,0.5547,0.6163,0.6886,0.7521,0.7612,0.8658,0.9798,1.0445,1.1091,1.1806,1.2371,1.3233,1.413,1.4747,1.6161,1.7587,1.8764,1.8948,1.91,1.9453,1.9837,2.0268,2.0537,2.1345,2.1833,2.1876,2.2192,2.2381,2.2424,2.2424,2.2449,2.2484,2.2484,2.2484,2.2492,2.1481,2.1081,2.1081,2.1081,2.1582,2.2492,2.2593,2.2894,2.3384,2.459,2.5363,2.6021,2.704,2.8081,2.8724,2.7904,2.8175,2.891,2.891,2.891,2.9084,3.0079,3.0351,3.0441,3.0687,3.1045,3.1577,3.2463,3.2562,3.2747,3.405,3.3979,3.3641,3.423,3.4397,3.4397,3.4397,3.4397,3.4397,3.4397,3.4397,3.4397,3.4397,3.4397,3.4397,3.4397,3.4397,3.4397,3.4397,3.4397,3.4397,3.4397,3.4397,3.4397,3.4397,3.4397,3.4397,3.4397,3.4397,3.4397,3.4397,3.4397,3.4397,3.4397,3.4397,3.4397,3.4397,3.4397,3.4397,0.1852,0.2315,0.2602,0.0,0.2242,0.2959,0.358,0.4426,0.5192,0.5554,0.6104,0.6653,0.7118,0.7799,0.8665,0.0,1.0924,1.1549,1.2133,1.2791,1.3579,1.4296,1.4989,1.6148,1.8267,1.8172,1.8308,1.9043,1.9066,1.9205,1.9453,1.9898,2.0163,2.0366,2.0507,2.0688,2.0688,2.0688,2.0688,2.0688,2.0688,2.0688,2.0585,2.0181,1.9983,1.9983,1.9983,2.0585,2.1591,2.1591,2.2089,2.2994,2.389,2.4384,2.4865,2.6658,2.7536,2.7809,2.7441,2.7536,2.7904,2.7904,2.7904,2.8081,2.8991,2.936,2.9452,2.9818,3.0272,3.0722,3.1235,3.1524,3.2077,3.3458,3.3569,3.3484,3.3738,3.4147,3.4314,3.3894,3.4147,3.4397,3.4397,3.4397,3.4397,3.4397,3.4397,3.4397,3.4397,3.4397,3.4397,3.4397,3.4397,3.4397,3.4397,3.4397,3.4397,3.4397,3.4397,3.4397,3.4397,3.4397,3.4397,3.4397,3.4397,3.4397,3.4397,3.4397,3.4397,3.4397,3.4397,3.4397,0.134,0.0,0.0,0.1525,0.1794,0.243,0.327,0.4036,0.4631,0.4964,0.5501,0.6219,0.6789,0.7382,0.8355,1.0097,1.09,1.1413,1.216,1.266,1.3139,1.3968,1.4102,1.4917,1.7169,1.7302,1.7583,1.8195,1.8331,1.8476,1.8585,1.8818,1.903,1.9264,1.9279,1.9279,1.9279,1.9279,1.9168,1.8952,1.9168,1.9168,1.8952,1.9168,1.9279,1.9279,1.9279,1.9783,2.0483,2.0483,2.0979,2.1988,2.2885,2.3384,2.3791,2.6167,2.6965,2.6965,2.6965,2.7061,2.7262,2.7262,2.7262,2.7441,2.8081,2.8269,2.8362,2.8735,2.9198,2.9738,3.0181,3.0554,3.1193,3.2772,3.2957,3.2871,3.3043,3.3458,3.3713,3.3202,3.3505,3.3901,3.405,3.4089,3.4186,3.4397,3.4397,3.4397,3.4397,3.4397,3.4397,3.4397,3.4397,3.4397,3.4397,3.4397,3.4397,3.4397,3.4397,3.4397,3.4397,3.4397,3.4397,3.4397,3.4397,3.4397,3.4397,3.4397,3.4397,3.4397,3.4397,3.4397,0.1076,0.0,0.1166,0.1345,0.1794,0.2357,0.3018,0.3468,0.3928,0.4566,0.5961,0.7027,0.7124,0.8416,0.9912,1.0988,1.1194,1.1658,1.2862,1.3093,1.3184,1.3539,1.3572,1.3962,0.0,1.6348,1.6814,1.6272,1.7844,1.8599,1.806,1.8826,1.9264,1.9279,1.9279,1.9279,1.9279,1.9279,1.8848,1.8087,1.8952,1.8848,1.8094,1.8952,1.9279,1.9279,1.9279,1.9272,1.9383,1.9383,1.9376,1.9576,2.1387,2.2181,2.2484,2.5187,2.61,2.61,2.61,2.6678,2.7262,2.7262,2.7262,2.7262,2.7357,2.7357,2.7357,2.7357,2.7715,2.8362,2.9543,2.9646,3.0011,3.1865,3.1801,3.156,3.2227,3.2302,3.2389,3.2302,3.2352,3.2561,3.3275,3.3389,3.3671,3.4327,3.4397,3.4397,3.4397,3.4397,3.4397,3.4397,3.4397,3.4397,3.4397,3.4397,3.4397,3.4397,3.4397,3.4397,3.4397,3.4397,3.4397,3.4397,3.4397,3.4397,3.4397,3.4397,3.4397,3.4397,3.4397,3.4397,0.0987,0.1256,0.1355,0.1392,0.187,0.2354,0.2995,0.3514,0.402,0.461,0.5145,0.5782,0.6281,0.7307,0.8428,0.971,1.0708,1.1715,1.2489,1.3042,1.3443,1.368,1.3706,0.0,0.0,0.0,0.0,1.646,1.7115,1.7573,1.7982,1.8304,1.8736,1.9279,1.9279,1.9063,1.8415,1.8415,1.8304,1.7989,1.8848,1.9168,1.8848,1.9168,1.9279,1.9279,1.9279,1.9279,1.9279,1.9279,1.948,1.9879,2.0901,2.1514,2.2013,2.3329,2.4125,2.4716,2.638,2.7061,2.7262,2.7262,2.7262,2.7262,2.7262,2.7262,2.7262,2.7262,2.7631,2.8175,2.8899,2.9002,2.9463,3.1181,3.1181,3.0913,3.1548,3.1977,3.214,3.1725,3.2038,3.2487,3.3227,3.3401,3.3598,3.4327,3.4397,3.4397,3.4397,3.4397,3.4397,3.4397,3.4397,3.4397,3.4397,3.4397,3.4397,3.4397,3.4397,3.4397,3.4397,3.4397,3.4397,3.4397,3.4397,3.4397,3.4397,3.4397,3.4397,3.4397,3.4397,3.4397,0.0807,0.1076,0.1087,0.1416,0.1708,0.2099,0.2778,0.3299,0.3796,0.4403,0.492,0.5448,0.5989,0.6968,0.7965,0.8877,1.0444,1.1649,1.2205,1.2977,1.369,1.3927,1.3954,1.4013,0.0,0.0,0.0,1.5767,1.6305,1.6942,1.7463,1.7779,1.8304,1.8848,1.8848,1.8415,1.7569,1.7569,1.7569,1.7569,1.8415,1.8848,1.8848,1.9168,1.9279,1.9279,1.9279,1.9279,1.9279,1.9279,1.9576,2.0181,2.0712,2.1224,2.1827,2.2636,2.3338,2.3926,2.5489,2.638,2.687,2.687,2.7071,2.7262,2.7262,2.7262,2.7262,2.7262,2.7536,2.7904,2.8362,2.8445,2.8817,3.0295,3.0385,3.0283,3.0758,3.127,3.1436,3.1026,3.1288,3.1757,3.2537,3.3106,3.356,3.3992,3.423,3.4397,3.4397,3.4397,3.4397,3.4397,3.4397,3.4397,3.4397,3.4397,3.4397,3.4397,3.4397,3.4397,3.4397,3.4397,3.4397,3.4397,3.4397,3.4397,3.4397,3.4397,3.4397,3.4397,3.4397,3.4397,0.0538,0.0719,0.0545,0.1324,0.1509,0.1709,0.245,0.2928,0.338,0.4113,0.5103,0.5979,0.0,0.0,0.8449,0.8737,1.0314,1.1666,1.2169,1.3087,1.3933,0.0,0.0,0.0,0.0,0.0,0.0,1.4196,0.0,1.6624,1.6624,1.7463,1.7877,1.7884,1.7884,1.7569,1.6624,1.6624,1.6624,1.6624,1.7569,1.7989,1.7989,1.8952,1.9279,1.9279,1.9279,1.9279,1.9279,1.9279,1.9576,2.0189,2.0712,2.1224,2.1928,2.3129,2.3628,2.3628,2.3628,2.4716,2.61,2.61,2.6678,2.7262,2.7262,2.7262,2.7262,2.7262,2.7262,2.7441,2.7904,2.7987,2.8175,2.9301,2.9485,2.9577,3.0125,3.0216,3.0216,3.0216,3.0216,3.0487,3.1217,3.2438,3.3398,3.3398,3.3894,3.4314,3.4397,3.4397,3.4397,3.4397,3.4397,3.4397,3.4397,3.4397,3.4397,3.4397,3.4397,3.4397,3.4397,3.4397,3.4397,3.4397,3.4397,3.4397,3.4397,3.4397,3.4397,3.4397,3.4397,3.4397,-0.0448,0.0092,0.0567,0.1356,0.1588,0.1928,0.289,0.3189,0.3571,0.4468,0.5008,0.5252,0.0,0.0,0.0,0.8971,1.0732,0.0,1.3272,1.3763,0.0,1.4422,0.0,1.4261,1.4433,1.4293,0.0,0.0,1.4617,1.5143,1.5773,1.5986,1.6405,1.7047,1.7041,1.6624,1.5773,1.5773,1.5773,1.5773,1.7252,1.7989,1.7989,1.8952,1.9279,1.9279,1.9279,1.9279,1.9279,1.9279,1.9887,2.0712,2.0814,2.153,2.2443,2.2745,2.2846,2.2846,2.2846,2.4322,2.61,2.61,2.6678,2.7262,2.7262,2.7262,2.7262,2.7262,2.7262,2.7441,2.7904,2.7715,2.782,2.9209,2.9198,2.9095,3.0034,3.0216,3.0216,3.0216,3.0668,3.1128,3.1306,3.1989,3.276,3.3313,3.3104,3.3177,3.4314,3.3979,3.381,3.4314,3.3979,3.3894,3.4397,3.4397,3.4397,3.4397,3.4397,3.4397,3.4397,3.4397,3.4397,3.4397,3.4397,3.4397,3.4397,3.4397,3.4397,3.4397,3.4397,3.4397,-0.0816,-0.0186,0.0576,0.1383,0.1618,0.185,0.2794,0.309,0.348,0.4389,0.4834,0.0,0.0,0.0,0.0,0.0,0.0,0.0,1.3234,1.3925,1.4433,0.0,1.4487,0.0,1.4525,1.4326,1.4196,0.0,1.4196,1.4617,1.5458,1.5452,1.5666,1.6199,1.6199,1.5779,1.4934,1.5351,1.5351,1.4928,1.6617,1.7463,1.7463,1.8311,1.8952,1.9279,0.0,1.9279,1.9279,1.9279,1.9894,2.0925,2.0925,2.1632,2.2644,2.2644,2.2644,2.2644,2.2644,2.3628,2.5109,2.5499,2.6091,2.687,2.7156,2.7262,2.7262,2.7262,2.7262,2.7357,2.7631,2.7536,2.7631,2.8932,2.8921,2.9002,3.0023,3.0216,3.0216,3.0216,3.0487,3.0847,3.0847,3.1371,3.1977,3.2438,3.2413,3.2575,3.3348,3.3471,3.3556,3.3894,3.3894,3.3979,3.4397,3.4397,3.4397,3.4397,3.4397,3.4397,3.4397,3.4397,3.4397,3.4397,3.4397,3.4397,3.4397,3.4397,3.4397,3.4397,3.4397,3.4397,-0.0923,-0.0378,0.0291,0.1202,0.142,0.1633,0.2372,0.2859,0.3451,0.4131,0.0,0.5047,0.5228,0.6496,0.7681,0.8128,0.0,1.2361,1.2918,1.3891,1.467,1.4907,1.4697,1.4546,1.4579,1.4347,1.4196,1.4196,1.4196,1.4509,1.5244,1.5351,1.5351,1.5351,1.5351,1.4928,1.4196,1.4928,1.4928,1.4191,1.5885,1.673,1.673,1.7674,1.8624,1.9279,1.9279,0.0,1.9279,1.9279,1.9894,2.0925,2.0925,2.1632,2.2644,2.2644,2.2644,2.2644,2.2644,2.3038,2.3728,2.4599,2.5392,2.6284,2.7061,2.7262,2.7262,2.7262,2.7262,2.7262,2.7262,2.7262,2.7536,2.8477,2.8735,2.9002,2.9932,3.0125,3.0216,3.0216,3.0216,3.0216,3.0216,3.0758,3.1217,3.1306,3.1713,3.2052,3.214,3.276,3.33,3.3398,3.381,3.4134,3.423,3.4134,3.4134,3.423,3.423,3.4314,3.4397,3.4397,3.4397,3.4397,3.4397,3.4397,3.4397,3.4397,3.4397,3.4397,3.4397,3.4397,-0.1597,-0.146,-0.12,0.0201,0.0516,0.1048,0.2653,0.3137,0.0,0.0,0.4928,0.5141,0.5324,0.6182,0.7466,0.9304,0.0,0.0,0.0,0.0,1.4912,0.0,0.0,0.0,0.0,0.0,0.0,0.0,0.0,1.4299,1.4407,1.4401,1.4401,1.4401,1.4401,1.4299,1.4196,1.4299,1.4299,1.4191,1.5885,1.673,1.673,1.8318,1.9168,1.9279,1.9279,0.0,1.9279,1.9279,1.9894,2.0925,2.0925,2.1632,2.2644,2.2644,2.2644,2.2644,2.2644,2.2644,2.3038,2.4402,2.5392,2.6284,2.7061,2.7262,2.7262,2.7262,2.7262,2.7262,2.7262,2.7262,2.7441,2.7998,2.8456,2.891,2.9485,2.9943,3.0216,3.0216,3.0216,3.0216,3.0216,3.0306,3.0578,3.1217,3.0847,3.0746,3.1383,3.2064,3.276,3.3313,3.2932,3.2932,3.3556,3.3018,3.2932,3.3556,3.3556,3.381,3.4397,3.4397,3.4397,3.4397,3.4397,3.4397,3.4397,3.4397,3.4397,3.4397,3.4397,3.4397,-0.1718,-0.1777,-0.1516,-0.0102,0.0313,0.0844,0.2748,0.0,0.0,0.0,0.5153,0.5292,0.5422,0.0,0.0,0.0,0.0,0.0,0.0,0.0,0.0,0.0,0.0,0.0,0.0,0.0,0.0,0.0,0.0,1.4196,1.4196,1.4196,1.4196,1.4196,1.4196,1.4196,1.4196,1.4196,1.4196,1.4191,1.5458,1.6305,1.673,1.7996,1.8848,1.9279,1.9279,0.0,1.9279,1.9279,1.9894,2.0925,2.0925,2.1632,2.2644,2.2644,2.2644,2.2644,2.2644,2.2644,2.2846,2.4402,2.5187,2.5693,2.6965,2.7262,2.7262,2.7262,2.7262,2.7262,2.7262,2.7262,2.7452,2.7904,2.8549,2.929,2.976,3.0034,3.0216,3.0216,3.0216,3.0216,3.0216,3.0216,3.0306,3.0668,3.0397,3.0306,3.0668,3.1371,3.1901,3.2264,3.2326,3.2401,3.276,3.2488,3.2575,3.3386,3.3398,3.3725,3.4397,3.4397,3.423,3.3894,3.423,3.423,3.3894,3.423,3.4397,3.4397,3.4397,3.4397,-0.1843,-0.1994,-0.1724,-0.0311,0.0105,0.0633,0.2748,0.3274,0.0,0.0,0.5255,0.5412,0.5518,0.0,0.696,0.0,0.0,0.0,0.0,0.0,0.0,0.0,0.0,0.0,0.0,0.0,0.0,0.0,0.0,0.0,1.4196,1.4196,1.4196,1.4196,1.4196,1.4196,1.4196,1.4196,1.4196,1.4196,1.525,1.6092,1.673,1.7779,1.8632,1.9279,1.9279,0.0,0.0,1.9279,1.9894,2.0925,2.0925,2.1632,2.2644,2.2644,2.2644,2.2644,2.2644,2.2644,2.2846,2.4214,2.4796,2.5187,2.6764,2.7262,2.7262,2.7262,2.7262,2.7262,2.7262,2.7262,2.7441,2.7987,2.8735,2.9485,3.0034,3.0216,3.0216,3.0216,3.0216,3.0216,3.0216,3.0216,3.0216,3.0216,3.0216,3.0216,3.0216,3.0668,3.1026,3.1026,3.1713,3.2052,3.2052,3.1965,3.214,3.2871,3.2957,3.3202,3.3966,3.3953,3.3713,3.3202,3.3713,3.3797,3.3398,3.3894,3.423,3.4397,3.4397,3.4314,-0.2269,-0.262,-0.2544,-0.1159,-0.0851,-0.0105,0.2545,0.0,0.0,0.4876,0.5255,0.5433,0.56,0.5825,0.6363,0.0,0.0,1.0673,0.0,0.0,0.0,0.0,0.0,0.0,0.0,0.0,0.0,0.0,0.0,0.0,1.4196,1.4196,1.4196,1.4196,1.4196,1.4196,1.4196,1.4196,1.4196,1.4191,1.5779,1.6624,1.673,1.8422,1.9272,1.9279,1.9279,0.0,0.0,1.9279,1.9894,2.0925,2.0925,2.1632,2.2644,2.2644,2.2644,2.2644,2.2644,2.2644,2.2745,2.3529,2.4313,2.5187,2.6764,2.7262,2.7262,2.7262,2.7262,2.7262,2.7262,2.7262,2.7536,2.8445,2.8735,2.9117,3.0034,3.0216,3.0216,3.0216,3.0216,3.0216,3.0216,3.0216,3.0216,3.0216,3.0216,3.0216,3.0216,3.0216,3.0306,3.0306,3.0937,3.1383,3.1383,3.0746,3.0746,3.1484,3.1472,3.1813,3.2488,3.2476,3.2476,3.2401,3.2476,3.276,3.3398,3.3484,3.381,3.4397,3.4397,3.4063,-0.2372,-0.2724,-0.2546,-0.1266,-0.0745,0.0105,0.2645,0.0,0.0,0.4957,0.5375,0.5578,0.5702,0.58,0.6105,0.6586,0.0,0.0,0.0,0.0,0.0,0.0,0.0,0.0,0.0,0.0,0.0,0.0,0.0,0.0,1.4196,1.4196,1.4196,1.4196,1.4196,1.4196,1.4196,1.4196,1.4196,1.4191,1.5885,1.673,1.673,1.8534,1.9279,1.9279,1.9279,0.0,0.0,1.9279,1.9894,2.0925,2.0925,2.1632,2.2644,2.2644,2.2644,2.2644,2.2644,2.2644,2.2745,2.3438,2.4214,2.5089,2.6284,2.6965,2.7262,2.7262,2.7262,2.7262,2.7262,2.7262,2.7536,2.856,2.8735,2.9013,3.0034,3.0216,3.0216,3.0216,3.0216,3.0216,3.0216,3.0216,3.0216,3.0216,3.0216,3.0216,3.0216,3.0216,3.0216,3.0216,3.0487,3.0668,3.0668,3.0397,3.0487,3.1217,3.1306,3.1637,3.2302,3.2302,3.214,3.1725,3.2052,3.2239,3.2176,3.2957,3.3288,3.3177,3.3628,3.3458,-0.2372,-0.2623,-0.2443,-0.1477,-0.0638,0.0527,0.0,0.0,0.0,0.5116,0.5457,0.5671,0.5763,0.5855,0.5916,0.5916,0.0,0.834,0.0,0.0,0.0,0.0,0.0,0.0,0.0,0.0,0.0,0.0,0.0,0.0,1.4196,1.4196,1.4196,1.4196,1.4196,1.4196,1.4196,1.4196,1.4196,1.4191,1.5672,1.6518,1.673,1.8213,1.9063,1.9279,1.9279,0.0,0.0,1.9279,1.9894,2.0925,2.0925,2.1632,2.2644,2.2644,2.2644,2.2644,2.2644,2.2644,2.2644,2.3238,2.3917,2.4707,2.5499,2.6476,2.7262,2.7262,2.7262,2.7262,2.7262,2.7262,2.7536,2.8571,2.8735,2.9002,3.0023,3.0216,3.0216,3.0216,3.0216,3.0216,3.0216,3.0216,3.0216,3.0216,3.0216,3.0216,3.0216,3.0216,3.0216,3.0216,3.0216,3.0216,3.0216,3.0216,3.0397,3.0937,3.0937,3.1193,3.1701,3.1701,3.1448,3.0937,3.1448,3.1536,3.1306,3.2264,3.2686,3.256,3.3108,3.3096,-0.2274,-0.232,-0.2035,-0.1795,-0.0745,0.0633,0.0,0.0,0.0,0.5116,0.5457,0.5671,0.5763,0.5855,0.5916,0.5916,0.6768,0.0,0.0,0.0,0.0,0.0,0.0,0.0,0.0,0.0,0.0,0.0,0.0,0.0,1.4196,1.4196,1.4196,1.4196,1.4196,1.4196,1.4196,1.4196,1.4196,1.4196,1.5143,1.5879,1.673,1.7569,1.852,0.0,0.0,0.0,0.0,1.9279,1.9894,2.0925,2.0925,2.1632,2.2644,2.2644,2.2644,2.2644,2.2644,2.2644,2.2644,2.2653,2.3138,2.3827,2.4698,2.6071,2.7262,2.7262,2.7262,2.7262,2.7262,2.7262,2.7536,2.8571,2.8735,2.9002,3.0023,3.0216,3.0216,3.0216,3.0216,3.0216,3.0216,3.0216,3.0216,3.0216,3.0216,3.0216,3.0216,3.0216,3.0216,3.0216,3.0216,3.0216,3.0216,3.0216,3.0216,3.0216,3.0216,3.0216,3.0216,3.0216,3.0216,3.0216,3.0216,3.0578,3.1306,3.1306,3.1925,3.306,3.306,3.333,-0.0099,0.0101,0.0305,0.0738,0.1488,0.2316,0.3253,0.0,0.0,0.5306,0.55,0.5692,0.5845,0.5898,0.5916,0.5916,0.616,0.0,0.0,0.0,0.0,0.0,0.0,0.0,0.0,0.0,0.0,0.0,0.0,0.0,1.4196,1.4196,1.4196,1.4196,1.4196,1.4196,1.4196,1.4196,1.4196,1.4196,1.5035,1.5879,1.673,1.7569,1.852,0.0,0.0,0.0,0.0,1.9279,1.9894,2.0925,2.0925,2.1632,2.2644,2.2644,2.2644,2.2644,2.2644,2.2644,2.2644,2.2644,2.3138,2.3728,2.4016,2.5197,2.6582,2.7167,2.7262,2.7262,2.7262,2.7262,2.7536,2.8571,2.8735,2.9002,3.0023,3.0216,3.0216,3.0216,3.0216,3.0216,3.0216,3.0216,3.0216,3.0216,3.0216,3.0216,3.0216,3.0216,3.0216,3.0216,3.0216,3.0216,3.0216,3.0216,3.0216,3.0216,3.0216,3.0376,3.0744,3.0767,3.0928,3.1272,3.1272,3.1366,3.1646,3.2099,3.2551,3.2891,3.244,3.2254,0.0,0.1308,0.1422,0.1686,0.2444,0.0,0.0,0.0,0.0,0.5292,0.5469,0.5649,0.5833,0.5894,0.5916,0.5916,0.5916,0.0,0.0,0.0,0.0,0.0,0.0,0.0,0.0,0.0,0.0,0.0,0.0,0.0,1.4196,1.4196,1.4196,1.4196,1.4196,1.4196,1.4196,1.4196,1.4196,1.4196,1.4719,1.5565,1.673,1.7252,1.8206,0.0,0.0,0.0,0.0,1.9279,1.9791,2.0609,2.0814,2.1428,2.2342,2.2544,2.2644,2.2644,2.2644,2.2644,2.2644,2.2644,2.3138,2.3728,2.4016,2.5099,2.6294,2.7061,2.7262,2.7262,2.7262,2.7262,2.7536,2.8279,2.8642,2.891,2.976,3.0034,3.0216,3.0216,3.0216,3.0216,3.0216,3.0216,3.0216,3.0216,3.0216,3.0216,3.0216,3.0216,3.0216,3.0216,3.0216,3.0216,3.0216,3.0216,3.0308,3.0503,3.0514,3.0744,3.126,3.1295,3.1444,3.1754,3.1766,3.1766,3.1766,3.2415,3.2687,3.2687,3.243,3.234,0.0,0.0,0.0,0.0,0.0,0.0,0.0,0.0,0.0,0.0,0.0,0.0,0.5747,0.5855,0.5916,0.5916,0.5916,0.0,0.0,0.0,0.0,0.0,0.0,0.0,0.0,0.0,0.0,0.0,0.0,0.0,1.4196,1.4196,1.4196,1.4196,1.4196,1.4196,1.4196,1.4196,1.4196,1.4196,1.4299,1.5148,1.673,1.673,1.7687,0.0,0.0,0.0,0.0,1.9279,1.9576,2.0181,2.0712,2.1224,2.1725,2.2342,2.2644,2.2644,2.2644,2.2644,2.2644,2.2644,2.3038,2.3827,2.4599,2.5489,2.6294,2.7061,2.7262,2.7262,2.7262,2.7262,2.7452,2.7904,2.8351,2.8817,2.9393,2.9852,3.0216,3.0216,3.0216,3.0216,3.0216,3.0216,3.0216,3.0216,3.0216,3.0216,3.0216,3.0216,3.0216,3.0216,3.0216,3.0216,3.0216,3.025,3.0491,3.0985,3.1042,3.1283,3.1766,3.1812,3.1834,3.188,3.188,3.188,3.188,3.2317,3.2546,3.2546,3.3051,3.3281,0.3452,0.0,0.4065,0.4216,0.4468,0.0,0.0,0.0,0.0,0.0,0.0,0.0,0.0,0.0,0.5916,0.5916,0.0,0.6283,0.0,0.0,0.0,0.0,0.0,0.0,0.0,0.0,0.0,0.0,0.0,1.4196,1.4196,1.4196,1.4196,1.4196,1.4196,1.4196,1.4196,1.4196,1.4196,1.4196,1.4934,1.5672,1.673,1.7358,1.8311,0.0,0.0,0.0,1.9279,1.9279,1.9576,2.0181,2.0712,2.1224,2.1725,2.2342,2.2644,2.2644,2.2644,2.2644,2.2644,2.2644,2.2745,2.3138,2.4501,2.5489,2.6294,2.7061,2.7262,2.7262,2.7262,2.7262,2.7452,2.7904,2.8373,2.8932,2.9393,2.9852,3.0216,3.0216,3.0216,3.0216,3.0216,3.0216,3.0216,3.0216,3.0216,3.0216,3.0216,3.0216,3.0216,3.0216,3.0216,3.0216,3.0216,3.0571,3.0869,3.1008,3.1375,3.1812,3.2294,3.2317,3.2512,3.2925,3.2925,3.2925,3.2925,3.304,3.3097,3.3097,3.3224,3.3281,0.4251,0.4745,0.483,0.5053,0.5077,0.5008,0.0,0.0,0.0,0.0,0.0,0.0,0.0,0.0,0.0,0.0,0.6611,0.0,0.0,0.0,0.0,0.0,0.0,0.0,0.0,0.0,0.0,0.0,0.0,1.4196,1.4196,1.4196,1.4196,1.4196,1.4196,1.4196,1.4196,1.4617,1.4826,1.4826,1.5244,1.6092,1.7252,1.7358,1.8101,0.0,0.0,0.0,1.9279,1.9279,1.948,1.9783,2.0609,2.1121,2.1428,2.2342,2.2644,2.2644,2.2644,2.2644,2.2644,2.2644,2.2644,2.2846,2.4402,2.5197,2.579,2.6965,2.7262,2.7262,2.687,2.7061,2.7251,2.7146,2.7809,2.856,2.9013,2.9577,2.9943,3.0125,3.0216,3.0216,3.0216,3.0216,3.0216,3.0216,3.0216,3.0216,3.0216,3.0216,3.0216,3.0216,3.0216,3.0216,3.0216,3.0698,3.1089,3.1341,3.1616,3.2087,3.2822,3.2845,3.2982,3.3281,3.3281,3.3281,3.3281,3.3281,3.3281,3.3281,3.3281,3.3281,0.4051,0.4434,0.455,0.5002,0.5018,0.4947,0.0,0.0,0.0,0.0,0.0,0.0,0.0,0.0,0.0,0.0,0.0,0.0,0.0,0.0,0.0,0.0,0.0,0.0,0.0,0.0,0.0,0.0,0.0,1.4196,1.4196,1.4196,1.4196,1.4196,1.4196,1.4196,1.4196,1.5035,1.5559,1.5666,1.5773,1.6611,1.7989,1.7358,1.7898,1.9279,0.0,0.0,1.9279,1.9279,1.9279,1.9376,2.0506,2.0925,2.1027,2.2139,2.2644,2.2644,2.2644,2.2644,2.2644,2.2644,2.2644,2.2837,2.4304,2.4796,2.5187,2.6668,2.7167,2.7156,2.6486,2.6774,2.7167,2.6486,2.7231,2.8279,2.8631,2.9198,2.976,3.0125,3.0216,3.0216,3.0216,3.0216,3.0216,3.0216,3.0216,3.0216,3.0216,3.0216,3.0216,3.0216,3.0216,3.0216,3.0216,3.0638,3.1078,3.1593,3.1789,3.2305,3.3247,3.3281,3.3281,3.3281,3.3281,3.3281,3.3281,3.3281,3.3281,3.3281,3.3281,3.3281,0.2822,0.3336,0.357,0.4626,0.4924,0.4947,0.0,0.0,0.0,0.0,0.0,0.0,0.0,0.0,0.0,0.0,0.0,0.0,0.0,0.0,0.0,0.0,0.0,0.0,0.0,0.0,0.0,0.0,0.0,1.4196,1.4196,1.4196,1.4196,1.4196,1.4196,1.4196,1.4196,1.5035,1.5879,1.6518,1.7246,1.7772,1.7982,1.8632,1.9063,1.9279,0.0,1.9279,1.9279,1.9279,1.9279,1.9376,2.0506,2.0925,2.1027,2.2139,2.2644,2.2644,2.2644,2.2644,2.2644,2.2644,2.2644,2.2745,2.3628,2.4313,2.5089,2.5994,2.6774,2.7262,2.7167,2.7262,2.7262,2.7167,2.7914,2.8653,2.8724,2.9463,3.0125,3.0216,3.0216,3.0216,3.0216,3.0216,3.0216,3.0216,3.0216,3.0216,3.0216,3.0216,3.0216,3.0216,3.0216,3.0216,3.0216,3.0239,3.0503,3.1088,3.1915,3.265,3.3258,3.3281,3.3281,3.3281,3.3281,3.3281,3.3281,3.3281,3.3281,3.3281,3.3281,3.3281,0.2566,0.3087,0.3342,0.438,0.4796,0.4885,0.0,0.0,0.0,0.0,0.0,0.0,0.0,0.0,0.0,0.0,0.0,0.0,0.0,0.0,0.0,0.0,0.0,0.0,0.0,0.0,0.0,0.0,0.0,0.0,1.4196,1.4196,1.4196,1.4196,1.4196,1.4401,1.4928,1.5351,1.5879,1.673,1.7147,1.7786,1.8736,1.8632,1.8848,1.9279,0.0,1.9279,1.9279,1.9279,1.9279,1.9376,2.0197,2.0609,2.1027,2.2139,2.2644,2.2644,2.2644,2.2644,2.2644,2.2644,2.2644,2.2745,2.3438,2.4214,2.5089,2.5887,2.6678,2.7167,2.6774,2.7156,2.7526,2.687,2.7526,2.8466,2.8631,2.9106,2.9577,3.0125,3.0216,3.0216,3.0216,3.0216,3.0216,3.0216,3.0216,3.0216,3.0216,3.0216,3.0216,3.0216,3.0216,3.0216,3.0216,3.0216,3.0445,3.0985,3.1697,3.2328,3.2833,3.2856,3.2982,3.3281,3.3281,3.3281,3.3281,3.3281,3.3281,3.3281,3.3281,3.3281,0.2238,0.2859,0.3328,0.4379,0.0,0.0,0.0,0.0,0.0,0.0,0.0,0.0,0.0,0.0,0.0,0.0,0.0,0.0,0.0,0.0,0.0,0.0,0.0,0.0,0.0,0.0,0.0,0.0,0.0,0.0,1.4196,1.4196,1.4196,1.4196,1.4196,1.4509,1.5137,1.525,1.5773,1.7041,1.7041,1.7786,1.9279,1.8632,1.8632,1.9279,1.9279,1.9279,1.9279,1.9279,1.9279,1.9376,1.9879,2.0498,2.1224,2.2241,2.2644,2.2644,2.2644,2.2644,2.2644,2.2644,2.2644,2.2745,2.3238,2.4115,2.4992,2.5693,2.6572,2.7156,2.6582,2.7146,2.762,2.6572,2.7241,2.8081,2.8631,2.8828,2.9209,3.0034,3.0216,3.0216,3.0216,3.0216,3.0216,3.0216,3.0216,3.0216,3.0216,3.0216,3.0216,3.0216,3.0216,3.0216,3.0216,3.0216,3.0388,3.0801,3.1306,3.1812,3.2294,3.2431,3.2684,3.3086,3.3224,3.3281,3.3281,3.3281,3.3281,3.3281,3.3281,3.3281,0.1253,0.2305,0.3328,0.4379,0.4704,0.0,0.0,0.0,0.0,0.0,0.0,0.0,0.0,0.0,0.0,0.0,0.0,0.0,0.0,0.0,0.0,0.0,0.0,0.0,0.0,0.0,0.0,0.0,0.0,0.0,1.4207,1.4196,1.4196,1.4196,1.4196,1.4196,1.4299,1.4299,1.5458,1.7884,1.7884,1.8415,1.9279,1.9272,1.9272,1.9279,1.9279,1.9279,1.9279,1.9279,1.9279,1.9376,1.9879,2.0696,2.1725,2.2342,2.2644,2.2644,2.2644,2.2644,2.2644,2.2644,2.2644,2.2644,2.2644,2.3719,2.4894,2.4992,2.6071,2.7262,2.7262,2.7262,2.7357,2.7262,2.7631,2.8081,2.8631,2.9106,2.9577,3.0125,3.0216,3.0216,3.0216,3.0216,3.0216,3.0216,3.0216,3.0216,3.0216,3.0216,3.0216,3.0216,3.0216,3.0216,3.0216,3.0216,3.0227,3.0273,3.0778,3.1295,3.18,3.2248,3.25,3.2546,3.3028,3.3281,3.3281,3.3281,3.3281,3.3281,3.3281,3.3281,0.0269,0.1384,0.2283,0.2569,0.0,0.0,0.0,0.0,0.0,0.0,0.0,0.0,0.0,0.0,0.0,0.0,0.0,0.0,0.0,0.0,0.0,0.0,0.0,0.0,0.0,0.0,0.0,0.0,0.0,0.0,1.4412,1.4272,1.4196,1.4196,1.4196,1.4196,1.4196,1.4196,1.4934,1.6405,1.6935,1.7891,1.9279,1.9279,1.9279,1.9279,1.9279,1.9279,1.9279,1.9279,1.9279,1.9376,2.03,2.0814,2.1326,2.2241,2.2644,2.2644,2.2644,2.2644,2.2644,2.2644,2.2644,2.2644,2.2644,2.3719,2.4894,2.4894,2.6071,2.7262,2.7262,2.7536,2.7715,2.7715,2.7904,2.8175,2.9013,2.9106,2.9198,3.0034,3.0216,3.0216,3.0216,3.0216,3.0216,3.0216,3.0216,3.0216,3.0216,3.0216,3.0216,3.0216,3.0216,3.0216,3.0216,3.0216,3.0216,3.0216,3.0399,3.0755,3.1283,3.1467,3.172,3.203,3.2535,3.2787,3.2787,3.312,3.3281,3.3281,3.3281,3.3281,0.0269,0.1292,0.2188,0.0,0.0,0.0,0.0,0.0,0.0,0.0,0.0,0.0,0.0,0.0,0.0,0.0,0.0,0.0,0.0,0.0,0.0,0.0,0.0,0.0,0.0,0.0,0.0,0.0,0.0,0.0,0.0,1.432,1.4196,1.4196,1.4196,1.4196,1.4196,1.4196,1.4617,1.5559,1.6092,1.7259,1.8952,1.9168,1.9279,1.9279,1.9279,1.9279,1.9279,1.9279,1.9279,1.9376,2.0506,2.0925,2.1027,2.2139,2.2644,2.2644,2.2644,2.2644,2.2644,2.2644,2.2644,2.2644,2.2644,2.3529,2.4599,2.4796,2.5877,2.6965,2.7262,2.7536,2.7809,2.7998,2.7998,2.8279,2.9106,2.9106,2.9198,2.9852,3.0125,3.0216,3.0216,3.0216,3.0216,3.0216,3.0216,3.0216,3.0216,3.0216,3.0216,3.0216,3.0216,3.0216,3.0216,3.0216,3.0216,3.0216,3.0216,3.0376,3.0744,3.0928,3.118,3.1525,3.2007,3.2259,3.2259,3.2776,3.3028,3.304,3.3201,3.3281,0.1342,0.212,0.3232,0.0,0.0,0.0,0.0,0.0,0.0,0.0,0.0,0.0,0.0,0.0,0.0,0.0,0.0,0.0,0.0,0.0,0.0,0.0,0.0,0.0,0.0,0.0,0.0,0.0,0.0,0.0,0.0,1.432,1.4196,1.4196,1.4196,1.4196,1.4196,1.4196,1.4611,1.5452,1.5452,1.6405,1.7989,1.884,1.9272,1.9279,1.9279,1.9279,1.9279,1.9279,1.9279,1.9376,2.0514,2.0925,2.1027,2.2139,2.2644,2.2644,2.2644,2.2644,2.2644,2.2644,2.2644,2.2644,2.2644,2.3138,2.3827,2.4698,2.5489,2.6294,2.7061,2.7262,2.7441,2.7904,2.7998,2.8081,2.8631,2.9106,2.9485,2.9485,2.9852,3.0216,3.0216,3.0216,3.0216,3.0216,3.0216,3.0216,3.0216,3.0216,3.0216,3.0216,3.0216,3.0216,3.0216,3.0216,3.0216,3.0216,3.0216,3.0216,3.0216,3.0721,3.1008,3.1008,3.1502,3.1754,3.1754,3.2236,3.2477,3.2489,3.3028,3.3281,-0.0538,0.0738,0.0,0.0,0.0,0.0,0.0,0.0,0.0,0.0,0.0,0.0,0.0,0.0,0.0,0.0,0.0,0.0,0.0,0.0,0.0,0.0,0.0,0.0,0.0,0.0,0.0,0.0,0.0,0.0,0.0,1.4471,1.4358,1.4202,1.4196,1.4196,1.4196,1.4196,1.4299,1.4617,1.5244,1.6405,1.7989,1.8311,1.8736,1.9279,1.9279,1.9279,1.9279,1.9279,1.9279,1.9383,2.0094,2.0601,2.1027,2.1725,2.2241,2.2644,2.2644,2.2644,2.2644,2.2644,2.2644,2.2644,2.2644,2.3138,2.3827,2.4698,2.5489,2.6294,2.7061,2.7262,2.7536,2.8373,2.8279,2.8362,2.9474,2.9658,2.9577,2.9943,3.0125,3.0216,3.0216,3.0216,3.0216,3.0216,3.0216,3.0216,3.0216,3.0216,3.0216,3.0216,3.0216,3.0216,3.0216,3.0216,3.0216,3.0216,3.0216,3.0216,3.0216,3.0365,3.0457,3.0457,3.0973,3.1237,3.1237,3.1743,3.1984,3.1995,3.2489,3.273,0.0179,0.0,0.0,0.0,0.0,0.0,0.0,0.0,0.0,0.0,0.0,0.0,0.0,0.0,0.0,0.0,0.0,0.0,0.0,0.0,0.0,0.0,0.0,0.0,0.0,0.0,0.0,0.0,0.0,0.0,0.0,1.4449,1.4336,1.4202,1.4196,1.4196,1.4196,1.4196,1.4196,1.4196,1.4719,1.5879,1.7463,1.7884,1.852,1.9279,1.9279,1.9279,1.9279,1.9279,1.9279,1.9376,1.9879,2.0395,2.0917,2.1522,2.203,2.2644,2.2644,2.2644,2.2644,2.2644,2.2644,2.2644,2.2644,2.3138,2.3827,2.4698,2.5489,2.6294,2.7061,2.7262,2.7536,2.8279,2.8373,2.856,2.9382,2.9566,2.9577,2.9852,2.9943,2.9943,3.0216,3.0216,3.0216,3.0216,3.0216,3.0216,3.0216,3.0216,3.0216,3.0216,3.0216,3.0216,3.0216,3.0216,3.0216,3.0216,3.0216,3.0216,3.0216,3.0216,3.0216,3.0216,3.0537,3.0698,3.0698,3.1215,3.1467,3.1479,3.1961,3.2294,0.2418,0.0,0.0,0.0,0.0,0.0,0.0,0.0,0.0,0.0,0.0,0.0,0.0,0.0,0.0,0.0,0.0,0.0,0.0,0.0,0.0,0.0,0.0,0.0,0.0,0.0,0.0,0.0,0.0,0.0,0.0,1.4326,1.4218,1.4196,1.4196,1.4196,1.4196,1.4196,1.4196,1.4196,1.4196,1.5041,1.673,1.7569,1.8415,1.9279,1.9279,1.9279,1.9279,1.9279,1.9279,1.9383,1.9879,2.0395,2.0917,2.1428,2.203,2.2644,2.2644,2.2644,2.2644,2.2644,2.2644,2.2644,2.2644,2.3038,2.3827,2.4698,2.5392,2.6187,2.7061,2.7262,2.7441,2.7809,2.8373,2.8746,2.8828,2.9198,2.9485,2.9577,2.9485,2.9669,3.0125,3.0216,3.0216,3.0216,3.0216,3.0216,3.0216,3.0216,3.0216,3.0216,3.0216,3.0216,3.0216,3.0216,3.0216,3.0216,3.0216,3.0216,3.0216,3.0216,3.0216,3.0216,3.0216,3.0216,3.0216,3.0698,3.0939,3.0962,3.1433,3.1915,0.0,0.1845,0.0,0.0,0.0,0.0,0.0,0.0,0.0,0.0,0.0,0.0,0.0,0.0,0.0,0.0,0.0,0.0,0.0,0.0,0.0,0.0,0.0,0.0,0.0,0.0,0.0,0.0,0.0,0.0,1.4277,1.439,1.4379,1.4202,1.4196,1.4196,1.4196,1.4196,1.4196,0.0,1.4196,1.5041,1.673,1.6942,1.7786,1.9279,1.9279,1.9279,1.9279,1.9279,1.9279,1.9272,1.948,2.0094,2.0917,2.1027,2.1733,2.2644,2.2644,2.2644,2.2644,2.2644,2.2644,2.2644,2.2644,2.2745,2.3138,2.4501,2.4992,2.5489,2.6965,2.7262,2.7357,2.7441,2.8092,2.8828,2.9198,2.9393,2.9577,2.9943,2.976,2.9669,3.0125,3.0216,3.0216,3.0216,3.0216,3.0216,3.0216,3.0216,3.0216,3.0216,3.0216,3.0216,3.0216,3.0216,3.0216,3.0216,3.0216,3.0216,3.0216,3.0216,3.0216,3.0216,3.0216,3.0216,3.0216,3.0331,3.0388,3.0399,3.0928,3.1226,0.0,0.0,0.0,0.0,0.0,0.0,0.0,0.0,0.0,0.0,0.0,0.0,0.0,0.0,0.0,0.0,0.0,0.0,0.0,0.0,0.0,0.0,0.0,0.0,0.0,0.0,0.0,0.0,0.0,1.432,1.4202,1.4309,1.4315,1.4196,1.4196,1.4196,1.4196,1.4196,1.4196,1.4196,1.4196,1.5041,1.673,1.7575,1.8429,1.9279,1.9279,1.9279,1.9279,1.9279,1.9279,1.9279,1.9279,1.9998,2.0925,2.0925,2.1632,2.2644,2.2644,2.2644,2.2644,2.2644,2.2644,2.2644,2.2644,2.2846,2.3338,2.4115,2.4903,2.5693,2.6476,2.6965,2.7262,2.7262,2.7809,2.8549,2.9013,2.8921,2.9106,3.0034,2.9566,2.9382,3.0034,3.0216,3.0216,3.0216,3.0216,3.0216,3.0216,3.0216,3.0216,3.0216,3.0216,3.0216,3.0216,3.0216,3.0216,3.0216,3.0216,3.0216,3.0216,3.0216,3.0216,3.0216,3.0216,3.0216,3.0216,3.0216,3.0216,3.0227,3.0503,3.0767,0.0,0.0,0.0,0.0,0.0,0.0,0.0,0.0,0.0,0.0,0.0,0.0,0.0,0.0,0.0,0.0,0.0,0.0,0.0,0.0,0.0,0.0,0.0,0.0,0.0,0.0,0.0,0.0,0.0,1.4196,1.4196,1.4196,1.4196,1.4196,1.4196,1.4196,1.4196,1.4196,1.4196,1.4196,1.4509,1.538,1.68,1.8555,1.9279,1.9279,1.9279,1.9279,1.9279,1.9279,1.9279,1.9279,1.9279,1.9887,2.0814,2.0917,2.153,2.2443,2.2544,2.2644,2.2644,2.2745,2.2745,2.2644,2.2745,2.3138,2.3538,2.3628,2.4716,2.5897,2.6091,2.6678,2.7262,2.7262,2.7631,2.7987,2.8538,2.8351,2.8456,2.9852,2.9382,2.9095,3.0034,3.0216,3.0216,3.0216,3.0216,3.0216,3.0216,3.0216,3.0216,3.0216,3.0216,3.0216,3.0216,3.0216,3.0216,3.0216,3.0216,3.0216,3.0216,3.0216,3.0216,3.0216,3.0216,3.0216,3.0216,3.0216,3.0216,3.0216,3.0216,3.0457,0.0,0.0,0.0,0.0,0.0,0.0,0.0,0.0,0.0,0.0,0.0,0.0,0.0,0.0,0.0,0.0,0.0,0.0,0.0,0.0,0.0,0.0,0.0,0.0,0.0,0.0,0.0,0.0,1.4196,1.4196,1.4196,1.4196,1.4196,1.4196,1.4196,1.4196,1.4196,1.4196,1.4196,1.4191,1.5678,1.6643,1.7201,1.8654,1.9279,1.9279,1.9279,1.9279,1.9279,1.9279,1.9279,1.9279,1.9279,1.968,2.0292,2.0712,2.1326,2.1928,2.2443,2.2644,2.2745,2.3338,2.3138,2.2745,2.3338,2.3138,2.2846,2.3538,2.4313,2.5197,2.5897,2.6678,2.7262,2.7262,2.7357,2.762,2.8538,2.8351,2.8269,2.9393,2.9485,2.9577,3.0125,3.0216,3.0216,3.0216,3.0216,3.0216,3.0216,3.0216,3.0216,3.0216,3.0216,3.0216,3.0216,3.0216,3.0216,3.0216,3.0216,3.0216,3.0216,3.0216,3.0216,3.0216,3.0216,3.0216,3.0216,3.0216,3.0216,3.0216,3.0216,3.025,0.0,0.0,0.0,0.0,0.0,0.0,0.0,0.0,0.0,0.0,0.0,0.0,0.0,0.0,0.0,0.0,0.0,0.0,0.0,0.0,0.0,0.0,0.0,0.0,0.0,0.0,0.0,0.0,1.3856,1.4196,1.4196,1.4196,1.4196,1.4196,1.4196,1.4196,1.4196,1.4196,1.4196,1.4191,1.5885,1.68,1.7021,1.8597,1.9374,1.9542,1.936,1.9279,1.9279,1.9279,1.9279,1.9279,1.9279,1.9576,2.0189,2.0712,2.1224,2.1827,2.2443,2.2644,2.2745,2.3438,2.3438,2.3329,2.4115,2.4115,2.3818,2.3728,2.4609,2.5586,2.5489,2.637,2.7262,2.7262,2.7262,2.7441,2.8175,2.8175,2.8175,2.891,2.929,2.9577,2.976,3.0034,3.0216,3.0216,3.0216,3.0216,3.0216,3.0216,3.0216,3.0216,3.0216,3.0216,3.0216,3.0216,3.0216,3.0216,3.0216,3.0216,3.0216,3.0216,3.0216,3.0216,3.0216,3.0216,3.0216,3.0216,3.0216,3.0216,3.0216,3.0216,0.0,0.0,0.0,0.0,0.0,0.0,0.0,0.0,0.0,0.0,0.0,0.0,0.0,0.0,0.0,0.0,0.0,0.0,0.0,0.0,0.0,0.0,0.0,0.0,0.0,0.0,0.0,0.0,1.3635,1.4196,1.4196,1.4196,1.4196,1.4196,1.4196,1.4196,1.4196,1.4196,1.4196,1.4191,1.5672,1.6555,1.6838,1.8352,1.9237,1.9755,1.9506,1.9447,1.9513,1.9433,1.9396,1.9389,1.9308,1.9583,1.9983,2.0609,2.1121,2.1623,2.2342,2.2644,2.2745,2.3438,2.3529,2.3628,2.4599,2.4796,2.4501,2.4115,2.5011,2.5994,2.5392,2.6274,2.7262,2.7262,2.7262,2.7452,2.7715,2.7904,2.8081,2.8445,2.8828,2.9209,2.9485,2.976,3.0034,3.0216,3.0216,3.0216,3.0216,3.0216,3.0216,3.0216,3.0216,3.0216,3.0216,3.0216,3.0216,3.0216,3.0216,3.0216,3.0216,3.0216,3.0216,3.0216,3.0216,3.0216,3.0216,3.0216,3.0216,3.0216,3.0216,3.0216,0.0,0.0,0.0,0.0,0.0,0.0,0.0,0.0,0.0,0.0,0.0,0.0,0.0,0.0,0.0,0.0,0.0,0.0,0.0,0.0,0.0,0.0,0.0,0.0,0.0,0.0,0.0,0.0,1.4196,1.4196,1.4196,1.4196,1.4196,1.4196,1.4196,1.4196,1.4196,1.4196,1.4196,1.4196,1.5143,1.612,1.7233,1.7802,1.8696,1.9762,1.9747,1.9908,2.0164,1.9864,1.974,1.9703,1.9396,1.9272,1.948,2.0514,2.0925,2.1121,2.2241,2.2644,2.2745,2.3438,2.3238,2.2937,2.4402,2.4412,2.3926,2.4599,2.5489,2.6091,2.61,2.6678,2.7262,2.7262,2.7262,2.7262,2.7357,2.7715,2.7987,2.7987,2.8081,2.8362,2.9301,2.9485,2.9669,3.0125,3.0216,3.0216,3.0216,3.0216,3.0216,3.0216,3.0216,3.0216,3.0216,3.0216,3.0216,3.0216,3.0216,3.0216,3.0216,3.0216,3.0216,3.0216,3.0216,3.0216,3.0216,3.0216,3.0216,3.0216,3.0216,3.0216,0.0,0.0,0.0,0.0,0.0,0.0,0.0,0.0,0.0,0.0,0.0,0.0,0.0,0.0,0.0,0.0,0.0,0.0,0.0,0.0,0.0,0.0,0.0,0.0,0.0,0.0,0.0,0.0,0.0,1.4196,1.4196,1.4196,1.4196,1.4196,1.4196,1.4196,1.4196,1.4196,1.4196,1.4196,1.5035,1.5928,1.6876,1.7615,1.8689,1.9762,1.9762,1.9828,1.9938,2.0033,2.0069,2.0055,1.9938,2.0101,2.0506,2.1024,2.1762,2.2639,2.3116,2.3338,2.3538,2.4815,2.4707,2.4402,2.5974,2.6274,2.5984,2.5693,2.6284,2.6774,2.6187,2.6678,2.7262,2.7262,2.7262,2.7262,2.7262,2.7441,2.7631,2.7904,2.7998,2.8175,2.8921,2.929,2.9669,3.0125,3.0216,3.0216,3.0216,3.0216,3.0216,3.0216,3.0216,3.0216,3.0216,3.0216,3.0216,3.0216,3.0216,3.0216,3.0216,3.0216,3.0216,3.0216,3.0216,3.0216,3.0216,3.0216,3.0216,3.0216,3.0216,3.0216,0.2637,0.0,0.0,0.0,0.0,0.0,0.0,0.0,0.0,0.0,0.0,0.0,0.0,0.0,0.0,0.0,0.0,0.0,0.0,0.0,0.0,0.0,0.0,0.0,0.0,0.0,0.0,0.0,0.0,0.0,1.4196,1.4196,1.4196,1.4196,1.4196,1.4196,1.4196,1.4509,1.4509,1.4196,1.5035,1.5879,1.673,1.7252,1.8317,1.9608,1.9711,1.982,1.9938,2.015,2.0237,2.0237,2.0237,2.0557,2.1179,2.149,2.2346,2.3324,2.3758,2.3926,2.4099,2.5342,2.5294,2.5187,2.6476,2.687,2.687,2.6582,2.687,2.7167,2.6678,2.687,2.7262,2.7262,2.7262,2.7262,2.7262,2.7262,2.7347,2.7715,2.7809,2.7904,2.8362,2.8921,2.9393,2.9852,3.0125,3.0216,3.0216,3.0216,3.0216,3.0216,3.0216,3.0216,3.0216,3.0216,3.0216,3.0216,3.0216,3.0216,3.0216,3.0216,3.0216,3.0216,3.0216,3.0216,3.0216,3.0216,3.0216,3.0216,3.0216,3.0216,0.0,0.0,0.0,0.0,0.0,0.0,0.0,0.0,0.0,0.0,0.0,0.0,0.0,0.0,0.0,0.0,0.0,0.0,0.0,0.0,0.0,0.0,0.0,0.0,0.0,0.0,0.0,0.0,1.4196,1.4196,1.4196,1.4196,1.4196,1.4196,1.4196,1.4196,1.4196,1.5035,1.5035,1.4299,1.5143,1.5986,1.673,1.673,1.7687,1.9294,1.9616,1.9923,2.0208,2.023,2.0237,2.0237,2.0245,2.0572,2.1217,2.1758,2.2403,2.3101,2.4056,2.4323,2.4445,2.4848,2.4903,2.5089,2.5897,2.61,2.6284,2.7071,2.7262,2.7262,2.7262,2.7262,2.7262,2.7262,2.7262,2.7262,2.7262,2.7262,2.7262,2.7262,2.7262,2.7441,2.7904,2.8466,2.8943,2.9393,2.9943,3.0216,3.0216,3.0216,3.0216,3.0216,3.0216,3.0216,3.0216,3.0216,3.0216,3.0216,3.0216,3.0216,3.0216,3.0216,3.0216,3.0216,3.0216,3.0216,3.0216,3.0216,3.0216,3.0216,3.0216,3.0216,0.425,0.0,0.0,0.0,0.0,0.0,0.0,0.0,0.0,0.0,0.0,0.0,0.0,0.0,0.0,0.0,0.0,0.0,0.0,0.0,0.0,0.0,0.0,0.0,0.0,0.0,0.0,0.0,1.4196,1.4196,1.4196,1.4196,1.4196,1.4196,1.4196,1.4196,1.4196,1.5035,1.5351,1.5137,1.5986,1.6829,1.7674,1.7674,1.8206,1.9279,1.9374,1.9462,1.9579,2.0047,2.0237,2.0259,2.0494,2.1246,2.212,2.2221,2.3303,2.4659,2.4691,2.4875,2.5308,2.5875,2.5937,2.5887,2.6678,2.6965,2.6965,2.7262,2.7262,2.7262,2.7262,2.7262,2.7262,2.7262,2.7262,2.7262,2.7262,2.7262,2.7262,2.7262,2.7262,2.7441,2.7904,2.8362,2.8921,2.9393,2.9943,3.0216,3.0216,3.0216,3.0216,3.0216,3.0216,3.0216,3.0216,3.0216,3.0216,3.0216,3.0216,3.0216,3.0216,3.0216,3.0216,3.0216,3.0216,3.0216,3.0216,3.0216,3.0216,3.0216,3.0216,3.0216,0.0,0.0,0.0,0.0,0.0,0.0,0.6239,0.6337,0.0,0.0,0.0,0.0,0.0,0.0,0.0,0.0,0.0,0.0,0.0,0.0,0.0,0.0,0.0,0.0,0.0,1.1978,1.2861,1.4083,1.4196,1.4196,1.4196,1.4196,1.4196,1.4196,1.4196,1.4196,1.4196,1.5035,1.5452,1.5559,1.6305,1.7147,1.7989,1.7989,1.852,1.9279,1.9279,1.9279,1.9301,1.9681,1.9916,2.0069,2.0398,2.1281,2.2267,2.2259,2.3328,2.4933,2.4861,2.5282,2.5857,2.6367,2.6623,2.6678,2.7156,2.7262,2.7262,2.7262,2.7262,2.7262,2.7262,2.7262,2.7262,2.7262,2.7262,2.7262,2.7262,2.7262,2.7262,2.7262,2.7262,2.7357,2.762,2.8081,2.8538,2.9106,2.9566,2.9943,3.0216,3.0216,3.0216,3.0216,3.0216,3.0216,3.0216,3.0216,3.0216,3.0216,3.0216,3.0216,3.0216,3.0216,3.0216,3.0216,3.0216,3.0216,3.0216,3.0216,3.0216,3.0216,3.0216,3.0216,0.0,0.0,0.0,0.0,0.0,0.0,0.6042,0.6139,0.6337,0.0,0.0,0.0,0.0,0.0,0.0,0.0,0.0,0.0,0.0,0.0,0.0,0.0,0.0,0.0,1.2276,1.2516,1.3078,1.4083,1.4196,1.4196,1.4196,1.4196,1.4196,1.4196,1.4196,1.4196,1.4196,1.5143,1.5666,1.5666,1.6518,1.7358,1.8094,1.8094,1.8527,1.9279,1.9279,1.9279,1.9279,1.9279,1.9552,1.9847,2.0055,2.0939,2.2017,2.2049,2.3013,2.4334,2.4624,2.5298,2.6002,2.6336,2.6818,2.7167,2.7262,2.7262,2.7262,2.7262,2.7262,2.7262,2.7262,2.7262,2.7262,2.7262,2.7262,2.7262,2.7262,2.7262,2.7262,2.7262,2.7357,2.7357,2.7357,2.7715,2.8186,2.8675,2.9139,2.968,3.0125,3.0216,3.0216,3.0216,3.0216,3.0216,3.0216,3.0216,3.0216,3.0216,3.0216,3.0216,3.0216,3.0216,3.0216,3.0216,3.0216,3.0216,3.0216,3.0216,3.0216,3.0216,3.0216,3.0216,0.0,0.0,0.0,0.0,0.0,0.0,0.5942,0.6042,0.6042,0.0,0.0,0.0,0.0,0.0,0.0,0.0,0.0,0.0,0.0,0.0,0.0,0.0,0.0,0.0,1.2176,1.3199,1.397,1.4191,1.4196,1.4196,1.4196,1.4196,1.4196,1.4196,1.4196,1.4196,1.4196,1.5672,1.6518,1.6518,1.8003,1.8848,1.9063,1.9063,1.9168,1.9279,1.9279,1.9279,1.9279,1.9279,1.9621,2.0008,1.9938,2.081,2.2217,2.2068,2.3168,2.4711,2.4114,2.4702,2.5642,2.5657,2.5956,2.6476,2.7061,2.7262,2.7262,2.7262,2.7262,2.7262,2.7262,2.7262,2.7262,2.7262,2.7262,2.7262,2.7262,2.7262,2.7262,2.7262,2.7631,2.7715,2.7357,2.7998,2.8625,2.8802,2.9223,2.9633,3.0136,3.0216,3.0216,3.0216,3.0216,3.0216,3.0216,3.0216,3.0216,3.0216,3.0216,3.0216,3.0216,3.0216,3.0216,3.0216,3.0216,3.0216,3.0216,3.0216,3.0216,3.0216,3.0216,3.0216,0.0,0.0,0.0,0.5641,0.0,0.0,0.0,0.5939,0.6042,0.6139,0.0,0.0,0.0,0.0,0.0,0.0,0.0,0.0,0.0,0.0,0.0,0.0,0.0,0.0,1.2809,1.3546,1.4062,1.4186,1.4196,1.4196,1.4196,1.4617,1.4617,1.4191,1.4617,1.4617,1.4196,1.5458,1.6305,1.673,1.7996,1.8848,1.9279,1.9279,1.9279,1.9279,1.9279,1.9279,1.9272,1.9583,1.999,2.0411,2.0068,2.0659,2.1626,2.1796,2.3003,2.4517,2.4094,2.4886,2.6029,2.6029,2.634,2.6774,2.7167,2.7262,2.7262,2.7262,2.7262,2.7262,2.7262,2.7262,2.7262,2.7262,2.7262,2.7262,2.7262,2.7262,2.7262,2.7262,2.7704,2.7914,2.7725,2.7862,2.8188,2.8688,2.8925,2.9276,2.975,3.0364,3.0626,3.0227,3.0512,3.0626,3.0227,3.0512,3.0626,3.0227,3.0524,3.0615,3.0227,3.0216,3.0216,3.0216,3.0216,3.0216,3.0216,3.0216,3.0216,3.0216,3.0216,3.0216,0.0,0.0,0.0,0.0,0.0,0.5436,0.0,0.0,0.0,0.6237,0.0,0.0,0.0,0.0,0.0,0.0,0.0,0.0,0.0,0.0,0.0,0.0,0.0,0.0,0.0,1.362,1.3857,1.4105,1.4121,1.425,1.4401,1.5143,1.5244,1.4724,1.5351,1.5351,1.4724,1.5565,1.6305,1.6942,1.7779,1.8632,1.9279,1.9279,1.9279,1.9279,1.9279,1.9279,1.9376,1.9783,2.0292,2.0712,2.0395,2.0601,2.1224,2.1623,2.2816,2.4399,2.4197,2.5195,2.6488,2.6488,2.6855,2.7262,2.7262,2.7262,2.7262,2.7262,2.7262,2.7262,2.7262,2.7262,2.7262,2.7262,2.7262,2.7262,2.7262,2.7262,2.7262,2.7262,2.761,2.7925,2.8,2.7652,2.7715,2.856,2.8686,2.8855,2.9466,3.0387,3.0877,3.0429,3.0819,3.0912,3.0489,3.0798,3.0798,3.0227,3.0775,3.0798,3.0227,3.0216,3.0216,3.0216,3.0216,3.0216,3.0216,3.0216,3.0216,3.0216,3.0216,3.0216,0.0,0.0,0.0,0.0,0.5037,0.0,0.0,0.0,0.534,0.5636,0.0,0.0,0.0,0.0,0.0,0.0,0.0,0.0,0.0,0.0,0.0,0.0,0.0,0.0,0.0,1.3373,1.3615,1.3846,1.3863,1.4272,1.5339,1.5458,1.5773,1.6418,1.6518,1.6518,1.6411,1.7252,1.7779,1.7877,1.8743,1.9168,1.9279,1.9279,1.9279,1.9279,1.9279,1.9279,1.9279,1.9383,1.968,2.0189,2.0609,2.1428,2.2342,2.1827,2.3046,2.4763,2.399,2.4782,2.616,2.616,2.6719,2.7262,2.7262,2.7262,2.7262,2.7262,2.7262,2.7262,2.7262,2.7262,2.7262,2.7262,2.7262,2.7262,2.7262,2.7262,2.7262,2.7262,2.7347,2.7483,2.7915,2.7939,2.8088,2.8612,2.8698,2.8903,2.9397,2.9954,3.0508,3.1125,3.0641,3.0524,3.1085,3.0649,3.025,3.0216,3.0239,3.025,3.0216,3.0216,3.0216,3.0216,3.0216,3.0216,3.0216,3.0216,3.0216,3.0216,3.0216,3.0216,0.0,0.0,0.0,0.0,0.0,0.0,0.5039,0.0,0.524,0.0,0.0,0.0,0.0,0.0,0.0,0.0,0.7294,0.0,0.0,0.0,0.0,0.0,0.0,0.0,0.0,0.0,0.0,0.0,1.362,1.3969,1.4896,1.5664,1.6168,1.6384,1.7062,1.7252,1.673,1.7569,1.7989,1.7989,1.8848,1.9279,1.9279,1.9279,1.9279,1.9279,1.9279,1.9279,1.9383,1.9998,2.0403,2.0609,2.153,2.1928,2.2139,2.2232,2.332,2.4894,2.4501,2.5489,2.6774,2.6774,2.7061,2.7262,2.7262,2.7262,2.7262,2.7262,2.7262,2.7262,2.7262,2.7262,2.7262,2.7262,2.7262,2.7262,2.7262,2.7262,2.7262,2.7262,2.7262,2.7641,2.8709,2.8408,2.8279,2.907,2.9529,2.9797,3.0068,3.0901,3.1518,3.1848,3.162,3.1527,3.1822,3.1615,3.1222,3.0901,3.0798,3.0798,3.0798,3.0798,3.0638,3.0216,3.0638,3.0638,3.0216,3.0638,3.0638,3.0216,3.0216,3.0216,0.2823,0.0,0.0,0.0,0.0,0.0,0.0,0.0,0.0,0.0,0.0,0.0,0.0,0.0,0.0,0.0,0.0,0.8007,0.0,0.0,0.0,0.0,0.0,0.0,0.0,0.0,0.0,1.3357,1.3373,1.3807,1.488,1.5769,1.6394,1.681,1.7709,1.7873,1.7246,1.7955,1.8311,1.8311,1.8952,1.9279,1.9279,1.9279,1.9279,1.9279,1.9279,1.9376,1.9576,2.0403,2.0814,2.1224,2.2038,2.2232,2.203,2.2443,2.3429,2.4599,2.4599,2.5586,2.6965,2.7262,2.7262,2.7262,2.7262,2.7262,2.7262,2.7262,2.7262,2.7262,2.7262,2.7262,2.7262,2.7262,2.7262,2.7262,2.7262,2.7262,2.7262,2.7262,2.7262,2.7651,2.8869,2.8653,2.8629,2.957,3.0274,3.0697,3.0524,3.1496,3.2342,3.2616,3.2436,3.2357,3.2612,3.2438,3.2051,3.1568,3.153,3.1561,3.1532,3.1388,3.1061,3.0501,3.0798,3.0828,3.0507,3.1026,3.1043,3.0487,3.0306,3.0216,0.0,0.0,0.0,0.4634,0.0,0.0,0.0,0.0,0.4935,0.0,0.0,0.0,0.0,0.0,0.0,0.0,0.0,0.0,0.0,0.0,0.0,0.0,0.0,0.0,0.0,0.0,0.0,1.3098,1.3114,1.3908,1.5758,1.5884,1.66,1.8214,1.8535,1.8803,1.8702,1.9118,1.9272,1.9272,1.9272,1.9279,1.9279,1.9279,1.9279,1.9279,1.9279,1.9576,2.0078,2.0086,2.0696,2.1725,2.1725,2.203,2.2544,2.2544,2.3038,2.3728,2.3728,2.4815,2.6294,2.7071,2.7262,2.7262,2.7262,2.7262,2.7262,2.7262,2.7262,2.7262,2.7262,2.7262,2.7262,2.7262,2.7262,2.7262,2.7262,2.7262,2.7262,2.7262,2.7262,2.7494,2.7926,2.8566,2.9307,3.0114,3.0707,3.1045,3.0567,3.141,3.2323,3.329,3.2688,3.2612,3.3335,3.2701,3.2272,3.2289,3.2297,3.2293,3.224,3.1613,3.1325,3.1234,3.0626,3.0537,3.1289,3.1332,3.1297,3.1217,3.0487,3.0216,0.0,0.0,0.1611,0.3323,0.0,0.0,0.0,0.0,0.0,0.0,0.0,0.0,0.0,0.0,0.0,0.0,0.0,0.0,0.0,0.0,0.0,0.0,0.0,0.0,0.0,0.0,0.0,1.3545,1.3648,1.4358,1.6002,1.6293,1.689,1.7984,1.8299,1.8467,1.8467,1.8577,1.8738,1.8957,1.8957,1.9067,1.9279,1.9279,1.9279,1.9279,1.9279,1.9576,2.0078,2.0498,2.1011,2.1725,2.2131,2.2443,2.2644,2.2644,2.3046,2.3827,2.4913,2.5606,2.6187,2.7061,2.7262,2.7262,2.7262,2.7262,2.7262,2.7262,2.7262,2.7262,2.7262,2.7262,2.7262,2.7262,2.7262,2.7262,2.7262,2.7262,2.7262,2.7262,2.7262,2.7767,2.9252,2.9853,3.0296,3.0351,3.1721,3.256,3.219,3.2609,3.3187,3.3804,3.336,3.3335,3.3965,3.3469,3.3046,3.3068,3.3005,3.3017,3.3008,3.2814,3.2449,3.2015,3.175,3.1749,3.193,3.1945,3.194,3.1993,3.1741,3.1092,0.0101,-0.0,0.0,0.2217,0.2116,0.0,0.3827,0.0,0.0,0.0,0.0,0.0,0.0,0.0,0.0,0.0,0.0,0.0,0.0,1.1477,0.0,0.0,0.0,0.0,0.0,0.0,1.3238,1.4292,1.4094,1.4573,0.0,0.0,1.6868,1.764,1.7955,1.813,1.813,1.8247,1.8408,1.8613,1.8613,1.8789,1.9103,1.9302,1.9465,1.9576,1.9791,2.0197,2.0696,2.1011,2.1522,2.203,2.2443,2.2644,2.2644,2.2644,2.2946,2.3529,2.4815,2.5401,2.579,2.6572,2.7071,2.7262,2.7262,2.7262,2.7355,2.7852,2.7634,2.7376,2.7862,2.7624,2.7262,2.7262,2.7262,2.7262,2.7262,2.7262,2.7452,2.7715,2.7809,2.8325,2.9914,3.0634,3.1052,3.1294,3.2648,3.3483,3.3224,3.3416,3.3779,3.4139,3.3939,3.3939,3.4384,3.3965,3.3778,3.3778,3.3792,3.3768,3.372,3.3508,3.329,3.3017,3.2512,3.2525,3.3005,3.2746,3.2722,3.2684,3.271,3.2052]},{"header":{"parameterUnit":"m.s-1","parameterCategory":1,"la1":30.6,"la2":29.2853,"lo1":-89.7004,"lo2":-87.6739,"dy":0.0162,"dx":0.0183,"nx":112,"ny":82,"refTime":"2023-04-26T18:00:00:Z","depth":0,"parameterNumber":3,"parameterNumberName":"V-component_of_WINDS"},"data":[0.0,0.0,0.0,0.0,0.0,0.0,0.0,0.0,0.0,0.0,0.0,0.0,0.0,0.0,0.0,0.0,0.0,0.0,0.0,0.0,0.0,0.0,0.0,0.0,0.0,0.0,0.0,0.0,0.0,0.0,0.0,0.0,0.0,0.0,0.0,0.0,0.0,0.0,0.0,0.0,0.0,0.0,0.0,0.0,0.0,0.0,0.0,0.0,0.0,0.0,0.0,0.0,0.0,0.0,0.0,0.0,0.0,0.0,0.0,0.0,0.0,0.0,0.0,0.0,0.0,0.0,0.0,0.0,0.0,0.0,0.0,0.0,0.0,0.0,0.0,0.0,0.0,0.0,0.0,0.0,0.0,0.0,0.0,0.0,0.0,0.0,0.0,0.0,0.0,0.0,-2.2678,-2.2543,-2.2432,-2.2371,-2.2482,-2.2482,-2.2482,-2.242,0.0,0.0,0.0,0.0,0.0,0.0,0.0,0.0,0.0,0.0,0.0,0.0,0.0,0.0,0.0,0.0,0.0,0.0,0.0,0.0,0.0,0.0,0.0,0.0,0.0,0.0,0.0,0.0,0.0,0.0,0.0,0.0,0.0,0.0,0.0,0.0,0.0,0.0,0.0,0.0,0.0,0.0,0.0,0.0,0.0,0.0,0.0,0.0,0.0,0.0,0.0,0.0,0.0,0.0,0.0,0.0,0.0,0.0,0.0,0.0,0.0,0.0,0.0,0.0,0.0,0.0,0.0,0.0,0.0,0.0,0.0,0.0,0.0,0.0,0.0,0.0,0.0,0.0,0.0,0.0,0.0,0.0,0.0,0.0,0.0,0.0,0.0,0.0,0.0,0.0,0.0,0.0,0.0,0.0,0.0,0.0,0.0,0.0,0.0,0.0,0.0,0.0,0.0,0.0,-2.2909,-2.2957,-2.2957,-2.2896,-2.2848,-2.2848,-2.2726,-2.242,0.0,0.0,0.0,0.0,0.0,0.0,0.0,0.0,0.0,0.0,0.0,0.0,0.0,0.0,0.0,0.0,0.0,0.0,0.0,0.0,0.0,0.0,0.0,0.0,0.0,0.0,0.0,0.0,0.0,0.0,0.0,0.0,0.0,0.0,0.0,0.0,0.0,0.0,0.0,0.0,0.0,0.0,0.0,0.0,0.0,0.0,0.0,0.0,0.0,0.0,0.0,0.0,0.0,0.0,0.0,0.0,0.0,0.0,0.0,0.0,0.0,0.0,0.0,0.0,0.0,0.0,0.0,0.0,0.0,0.0,0.0,0.0,0.0,0.0,0.0,0.0,0.0,0.0,0.0,0.0,0.0,0.0,0.0,0.0,0.0,0.0,0.0,0.0,0.0,0.0,0.0,0.0,0.0,0.0,0.0,0.0,0.0,0.0,0.0,0.0,0.0,0.0,0.0,-2.2678,-2.2726,-2.2969,-2.2836,-2.2775,-2.2909,-2.2909,-2.2848,-2.2665,-2.2604,0.0,0.0,0.0,0.0,0.0,0.0,0.0,0.0,0.0,0.0,0.0,0.0,0.0,0.0,0.0,0.0,0.0,0.0,0.0,0.0,0.0,0.0,0.0,0.0,0.0,0.0,0.0,0.0,0.0,0.0,0.0,0.0,0.0,0.0,0.0,0.0,0.0,0.0,0.0,0.0,0.0,0.0,0.0,0.0,0.0,0.0,0.0,0.0,0.0,0.0,0.0,0.0,0.0,0.0,0.0,0.0,0.0,0.0,0.0,0.0,0.0,0.0,0.0,0.0,0.0,0.0,0.0,0.0,0.0,0.0,0.0,0.0,0.0,0.0,0.0,0.0,0.0,0.0,0.0,0.0,0.0,0.0,0.0,0.0,0.0,0.0,0.0,0.0,0.0,0.0,0.0,0.0,0.0,0.0,0.0,0.0,0.0,0.0,0.0,0.0,0.0,0.0,-2.2665,-2.2653,-2.2909,-2.2726,-2.2665,-2.2909,-2.2909,-2.2909,-2.2787,-2.2739,0.0,0.0,0.0,0.0,0.0,0.0,0.0,0.0,0.0,0.0,0.0,0.0,0.0,0.0,0.0,0.0,0.0,0.0,0.0,0.0,0.0,0.0,0.0,0.0,0.0,0.0,0.0,0.0,0.0,0.0,0.0,0.0,0.0,0.0,0.0,0.0,0.0,0.0,0.0,0.0,0.0,0.0,0.0,0.0,0.0,0.0,0.0,0.0,0.0,0.0,0.0,0.0,0.0,0.0,0.0,0.0,0.0,0.0,0.0,0.0,0.0,0.0,0.0,0.0,0.0,0.0,0.0,0.0,0.0,0.0,0.0,0.0,0.0,0.0,0.0,0.0,0.0,0.0,0.0,0.0,0.0,0.0,0.0,0.0,0.0,0.0,0.0,0.0,0.0,0.0,0.0,0.0,0.0,0.0,0.0,0.0,0.0,0.0,0.0,0.0,0.0,0.0,-2.2957,-2.3078,-2.3078,-2.3078,-2.3017,-2.2909,-2.3017,-2.2896,-2.2482,-2.2616,0.0,0.0,0.0,0.0,0.0,0.0,0.0,0.0,0.0,0.0,0.0,0.0,0.0,0.0,0.0,0.0,0.0,0.0,0.0,0.0,0.0,0.0,0.0,0.0,0.0,0.0,0.0,0.0,0.0,0.0,0.0,0.0,0.0,0.0,0.0,0.0,0.0,0.0,0.0,0.0,0.0,0.0,0.0,0.0,0.0,0.0,0.0,0.0,0.0,0.0,0.0,0.0,0.0,0.0,0.0,0.0,0.0,0.0,0.0,0.0,0.0,0.0,0.0,0.0,0.0,0.0,0.0,0.0,0.0,0.0,0.0,0.0,0.0,0.0,0.0,0.0,0.0,0.0,0.0,0.0,0.0,0.0,0.0,0.0,0.0,0.0,0.0,0.0,0.0,0.0,0.0,0.0,0.0,0.0,0.0,0.0,0.0,0.0,0.0,0.0,0.0,0.0,-2.28,-2.2909,0.0,-2.3017,-2.2957,-2.3017,-2.3078,-2.3005,-2.2836,0.0,0.0,0.0,0.0,0.0,0.0,0.0,0.0,0.0,0.0,0.0,0.0,0.0,0.0,0.0,0.0,0.0,0.0,0.0,0.0,0.0,0.0,0.0,0.0,0.0,0.0,0.0,0.0,0.0,0.0,0.0,0.0,0.0,0.0,0.0,0.0,0.0,0.0,0.0,0.0,0.0,0.0,0.0,0.0,0.0,0.0,0.0,0.0,0.0,0.0,0.0,0.0,0.0,0.0,0.0,0.0,0.0,0.0,0.0,0.0,0.0,0.0,0.0,0.0,0.0,0.0,0.0,0.0,0.0,0.0,0.0,0.0,0.0,0.0,0.0,0.0,0.0,0.0,0.0,0.0,0.0,0.0,0.0,0.0,0.0,0.0,0.0,0.0,0.0,0.0,0.0,0.0,0.0,0.0,0.0,0.0,0.0,0.0,0.0,0.0,0.0,0.0,-2.2997,-2.3207,-2.3443,0.0,-2.3554,-2.3554,-2.3603,-2.3665,-2.3603,-2.348,0.0,0.0,0.0,0.0,0.0,0.0,0.0,0.0,0.0,0.0,0.0,0.0,0.0,0.0,0.0,0.0,0.0,0.0,0.0,0.0,0.0,0.0,0.0,0.0,0.0,0.0,0.0,0.0,0.0,0.0,0.0,0.0,0.0,0.0,0.0,0.0,0.0,0.0,0.0,0.0,0.0,0.0,0.0,0.0,0.0,0.0,0.0,0.0,0.0,0.0,0.0,0.0,0.0,0.0,0.0,0.0,0.0,0.0,0.0,0.0,0.0,0.0,0.0,0.0,0.0,0.0,0.0,0.0,0.0,0.0,0.0,0.0,0.0,0.0,0.0,0.0,0.0,0.0,0.0,0.0,0.0,0.0,0.0,0.0,0.0,0.0,0.0,0.0,0.0,0.0,0.0,0.0,0.0,0.0,0.0,0.0,0.0,0.0,0.0,0.0,0.0,0.0,-2.3678,-2.4341,-2.482,-2.482,-2.482,-2.482,-2.482,-2.482,-2.4691,0.0,0.0,0.0,0.0,0.0,0.0,0.0,0.0,0.0,0.0,0.0,0.0,0.0,0.0,0.0,0.0,0.0,0.0,0.0,0.0,0.0,0.0,0.0,0.0,0.0,0.0,0.0,0.0,0.0,0.0,0.0,0.0,0.0,0.0,0.0,0.0,0.0,0.0,0.0,0.0,0.0,0.0,0.0,0.0,0.0,0.0,0.0,0.0,0.0,0.0,0.0,0.0,0.0,0.0,0.0,0.0,0.0,0.0,0.0,0.0,0.0,0.0,0.0,0.0,0.0,0.0,0.0,0.0,0.0,0.0,0.0,0.0,0.0,0.0,0.0,0.0,0.0,0.0,0.0,0.0,0.0,0.0,0.0,0.0,0.0,0.0,0.0,0.0,0.0,0.0,0.0,0.0,0.0,0.0,0.0,0.0,0.0,0.0,0.0,0.0,0.0,0.0,0.0,-2.4119,-2.4526,-2.482,-2.482,-2.482,-2.482,-2.482,-2.482,-2.4755,-2.4691,0.0,0.0,0.0,0.0,0.0,0.0,0.0,0.0,0.0,0.0,0.0,0.0,0.0,0.0,0.0,0.0,0.0,0.0,0.0,0.0,0.0,0.0,0.0,0.0,0.0,0.0,0.0,0.0,0.0,0.0,0.0,0.0,0.0,0.0,0.0,0.0,0.0,0.0,0.0,0.0,0.0,0.0,0.0,0.0,0.0,0.0,0.0,0.0,0.0,0.0,0.0,0.0,0.0,0.0,0.0,0.0,0.0,0.0,0.0,0.0,0.0,0.0,0.0,0.0,0.0,0.0,0.0,0.0,0.0,0.0,0.0,0.0,0.0,0.0,0.0,0.0,0.0,0.0,0.0,0.0,0.0,0.0,0.0,0.0,0.0,0.0,0.0,0.0,0.0,0.0,0.0,0.0,0.0,0.0,0.0,0.0,0.0,0.0,0.0,0.0,0.0,0.0,-2.4674,-2.5137,-2.5473,-2.5473,-2.5473,-2.5473,-2.5473,-2.5473,-2.5407,-2.5353,0.0,0.0,0.0,0.0,0.0,0.0,0.0,0.0,0.0,0.0,0.0,0.0,0.0,0.0,0.0,0.0,0.0,0.0,0.0,0.0,0.0,0.0,0.0,0.0,0.0,0.0,0.0,0.0,0.0,0.0,0.0,0.0,0.0,0.0,0.0,0.0,0.0,0.0,0.0,0.0,0.0,0.0,0.0,0.0,0.0,0.0,0.0,0.0,0.0,0.0,0.0,0.0,0.0,0.0,0.0,0.0,0.0,0.0,0.0,0.0,0.0,0.0,0.0,0.0,0.0,0.0,0.0,0.0,0.0,0.0,0.0,0.0,0.0,0.0,0.0,0.0,0.0,0.0,0.0,0.0,0.0,0.0,0.0,0.0,0.0,0.0,0.0,0.0,0.0,0.0,0.0,0.0,0.0,0.0,0.0,0.0,0.0,0.0,0.0,0.0,0.0,0.0,-2.5363,-2.6015,-2.6533,-2.6533,-2.6533,-2.6533,-2.6533,-2.6533,-2.6465,-2.6339,0.0,0.0,0.0,0.0,0.0,0.0,0.0,0.0,0.0,0.0,0.0,0.0,0.0,0.0,0.0,0.0,0.0,0.0,0.0,0.0,0.0,0.0,0.0,0.0,0.0,0.0,0.0,0.0,0.0,0.0,0.0,0.0,0.0,0.0,0.0,0.0,0.0,0.0,0.0,0.0,0.0,0.0,0.0,0.0,0.0,0.0,0.0,0.0,0.0,0.0,0.0,0.0,0.0,0.0,0.0,0.0,0.0,0.0,0.0,0.0,-2.307,0.0,0.0,0.0,0.0,0.0,0.0,0.0,0.0,0.0,0.0,0.0,0.0,0.0,0.0,0.0,0.0,0.0,0.0,0.0,0.0,0.0,0.0,0.0,0.0,0.0,0.0,0.0,0.0,0.0,0.0,0.0,0.0,0.0,0.0,0.0,0.0,0.0,0.0,0.0,0.0,0.0,-2.5795,-2.6183,-2.6533,-2.6533,-2.6533,-2.6533,-2.6533,-2.6533,-2.6714,-2.7162,-2.7229,0.0,0.0,0.0,0.0,0.0,0.0,0.0,0.0,0.0,0.0,0.0,0.0,0.0,0.0,0.0,0.0,0.0,0.0,0.0,0.0,0.0,0.0,0.0,0.0,0.0,0.0,0.0,0.0,0.0,0.0,0.0,0.0,0.0,0.0,0.0,0.0,0.0,0.0,0.0,0.0,0.0,0.0,0.0,0.0,0.0,0.0,0.0,0.0,0.0,0.0,0.0,0.0,0.0,0.0,0.0,0.0,0.0,0.0,0.0,0.0,-2.3717,0.0,0.0,0.0,0.0,0.0,0.0,0.0,0.0,0.0,0.0,0.0,0.0,0.0,0.0,0.0,0.0,0.0,0.0,0.0,0.0,0.0,0.0,0.0,0.0,0.0,0.0,0.0,0.0,0.0,0.0,0.0,0.0,0.0,0.0,0.0,0.0,0.0,0.0,0.0,0.0,-2.6719,-2.764,-2.8265,-2.7862,-2.8127,-2.8389,-2.8389,-2.8389,-2.8526,-2.8852,-2.8906,0.0,0.0,0.0,0.0,0.0,0.0,0.0,0.0,0.0,0.0,0.0,0.0,0.0,0.0,0.0,0.0,0.0,0.0,0.0,0.0,0.0,0.0,0.0,0.0,0.0,0.0,0.0,0.0,0.0,0.0,0.0,0.0,0.0,0.0,0.0,0.0,0.0,0.0,0.0,0.0,0.0,0.0,0.0,0.0,0.0,0.0,0.0,0.0,0.0,0.0,0.0,0.0,0.0,-2.4327,-2.4409,-2.4834,-2.4508,-2.4362,-2.4452,-2.471,-2.4921,-2.4963,-2.5116,0.0,0.0,0.0,0.0,0.0,0.0,0.0,0.0,0.0,0.0,0.0,0.0,0.0,0.0,0.0,0.0,0.0,0.0,0.0,0.0,0.0,0.0,0.0,0.0,-2.8587,-2.8587,0.0,0.0,0.0,0.0,0.0,0.0,0.0,0.0,0.0,0.0,0.0,0.0,-2.8021,-2.9408,-3.0173,-2.9574,-3.0048,-3.0378,-3.0378,-3.0378,-3.0446,-3.0583,-3.0596,-3.0596,0.0,0.0,0.0,0.0,0.0,0.0,0.0,0.0,0.0,0.0,0.0,0.0,0.0,0.0,0.0,0.0,0.0,0.0,0.0,0.0,0.0,0.0,0.0,0.0,0.0,0.0,0.0,0.0,0.0,0.0,0.0,0.0,-2.7509,-2.7233,0.0,0.0,0.0,0.0,0.0,0.0,0.0,0.0,0.0,0.0,0.0,0.0,0.0,-2.5201,-2.5353,-2.5431,-2.5242,-2.4747,-2.41,-2.349,-2.3045,-2.4114,-2.4534,-2.4706,-2.6324,0.0,-2.3743,-2.5039,0.0,0.0,0.0,0.0,0.0,0.0,0.0,0.0,0.0,0.0,0.0,0.0,0.0,0.0,0.0,0.0,0.0,0.0,0.0,0.0,0.0,0.0,-3.0303,-3.0276,-3.0259,-3.0447,0.0,-2.8962,-2.7359,-2.7588,-2.7813,0.0,0.0,0.0,0.0,0.0,0.0,0.0,-2.9814,-3.0173,-3.0378,-3.0241,-3.031,-3.0378,-3.0378,-3.0378,-3.0664,-3.1296,-3.1363,-3.1363,-3.1363,-3.1982,0.0,0.0,0.0,0.0,0.0,0.0,0.0,0.0,0.0,0.0,0.0,0.0,0.0,0.0,0.0,0.0,0.0,0.0,0.0,0.0,0.0,0.0,0.0,0.0,0.0,0.0,0.0,0.0,0.0,-2.7959,-2.7473,-2.7144,-2.6989,-2.6899,0.0,0.0,0.0,0.0,0.0,0.0,0.0,0.0,0.0,-2.6029,-2.5739,-2.5625,-2.5699,-2.6074,-2.6103,-2.5884,-2.5866,-2.5674,-2.5406,-2.6005,-2.6226,-2.6181,-2.7468,-2.7263,-2.6054,-2.6432,-2.6334,-2.5924,0.0,0.0,0.0,0.0,-2.6857,-2.7691,-2.8139,-2.8997,0.0,-3.0326,0.0,0.0,0.0,0.0,0.0,0.0,0.0,0.0,0.0,0.0,0.0,-3.1671,-3.1671,-3.1743,-3.2019,-3.1097,-3.0185,0.0,-3.0197,-3.0214,-2.9889,0.0,0.0,0.0,0.0,-3.1116,-3.1118,-3.2014,-3.244,-3.2,-3.2372,-3.2659,-3.2659,-3.2659,-3.2809,-3.3092,-3.3159,-3.3159,-3.3159,-3.344,-3.344,0.0,0.0,0.0,0.0,0.0,0.0,0.0,0.0,0.0,0.0,0.0,0.0,0.0,0.0,0.0,0.0,0.0,0.0,0.0,0.0,0.0,0.0,0.0,0.0,0.0,0.0,0.0,0.0,-2.8352,-2.7806,-2.7712,-2.7499,-2.7363,0.0,0.0,0.0,0.0,0.0,0.0,-2.7553,-2.7697,-2.7555,-2.706,-2.6706,-2.6587,-2.6734,-2.737,-2.7664,-2.7664,-2.8053,-2.8265,-2.8265,-2.8265,-2.8082,-2.7831,-2.8763,-2.9013,-2.8633,-2.8032,-2.7777,-2.7708,-2.7653,-2.7584,-2.7516,-2.7584,-2.8157,-2.8928,-2.9578,-3.0276,-3.1,-3.1394,0.0,-3.1285,-3.1689,0.0,0.0,0.0,0.0,-3.2513,-3.2513,-3.2513,-3.2513,-3.2513,-3.2513,-3.2571,-3.273,-3.2759,-3.2572,0.0,-3.1982,-3.196,-3.1573,0.0,0.0,0.0,0.0,-3.2389,-3.2464,-3.3618,-3.4182,-3.3589,-3.4045,-3.4414,-3.4414,-3.4414,-3.4414,-3.4414,-3.4414,-3.4414,-3.4414,-3.4414,-3.4414,-3.4414,0.0,0.0,0.0,0.0,0.0,0.0,0.0,0.0,0.0,0.0,0.0,0.0,0.0,0.0,0.0,0.0,0.0,0.0,0.0,0.0,0.0,0.0,0.0,0.0,0.0,0.0,0.0,0.0,0.0,-2.9572,-2.8761,0.0,0.0,0.0,0.0,-2.9009,-2.9039,-2.8873,-2.8467,-2.8439,-2.8498,-2.8577,-2.8591,-2.8797,-2.9282,-2.9961,-3.0333,-3.0333,-3.0251,-3.0256,-3.0256,-3.0256,-2.986,-2.9193,-3.0689,-3.096,-3.0241,-2.9478,-2.9112,-2.8944,-2.9112,-2.9041,-2.8944,-2.9112,-3.005,-3.1236,-3.1024,-3.1969,-3.3117,-3.2819,-3.2567,-3.2425,-3.2616,-3.2596,0.0,0.0,-3.2513,-3.2513,-3.2513,-3.2513,-3.2513,-3.2513,-3.2513,-3.2687,-3.3282,-3.3427,-3.3238,0.0,-3.2449,-3.2572,-3.2768,0.0,-3.2551,-3.3559,-3.3408,-3.3408,-3.4182,-3.4346,-3.4414,-3.4332,-3.4414,-3.4414,-3.4414,-3.4414,-3.4414,-3.4414,-3.4414,-3.4414,-3.4414,-3.4414,-3.4414,-3.4414,-3.4031,0.0,0.0,0.0,0.0,0.0,0.0,0.0,0.0,0.0,0.0,0.0,0.0,0.0,0.0,0.0,0.0,0.0,0.0,0.0,0.0,0.0,0.0,0.0,0.0,0.0,0.0,0.0,0.0,-3.0438,-2.9879,0.0,-3.0408,-2.9735,-2.9441,-2.9773,-2.9909,-2.9758,-2.9175,-2.9551,-2.982,-2.9834,-2.9848,-3.0158,-3.0777,-3.1002,-3.1115,-3.1115,-3.1128,-3.1079,-3.1079,-3.1079,-3.1207,-3.1418,-3.2002,-3.2309,-3.247,-3.2152,-3.1419,-3.065,-3.0664,-3.0664,-3.065,-3.0664,-3.1068,-3.1519,-3.1897,-3.2362,-3.2834,-3.3018,-3.3299,-3.3431,-3.3352,-3.3594,-3.3879,-3.3746,-3.3732,-3.3732,-3.3732,-3.3732,-3.3732,-3.3732,-3.3732,-3.3804,-3.4037,-3.408,-3.4008,-3.3775,-3.3732,-3.3738,-3.3835,-3.3782,-3.3786,-3.4167,-3.4045,-3.4257,-3.4965,-3.5024,-3.5183,-3.559,-3.5633,-3.5633,-3.5633,-3.5633,-3.5633,-3.5633,-3.5633,-3.5633,-3.5633,-3.5633,-3.5633,-3.5633,-3.5478,-3.5493,0.0,0.0,0.0,0.0,0.0,0.0,0.0,0.0,0.0,0.0,0.0,0.0,0.0,0.0,0.0,0.0,0.0,0.0,0.0,0.0,0.0,0.0,0.0,0.0,0.0,0.0,-3.2071,-3.1887,-3.1259,-3.1114,-3.1706,-3.1118,-3.0815,-3.117,-3.1174,-3.1136,-3.1147,-3.1132,-3.1362,-3.1824,-3.1633,-3.1737,-3.2248,-3.245,-3.2616,-3.268,-3.2898,-3.2999,-3.2999,-3.2999,-3.3151,-3.3408,-3.3659,-3.3906,-3.4109,-3.4423,-3.4033,-3.3186,-3.2358,-3.2072,-3.2072,-3.2072,-3.2207,-3.2539,-3.3273,-3.348,-3.3495,-3.3858,-3.409,-3.4301,-3.409,-3.4347,-3.4631,-3.4481,-3.4414,-3.4414,-3.4414,-3.4414,-3.4472,-3.4675,-3.4733,-3.4791,-3.5009,-3.5053,-3.5053,-3.5053,-3.4704,-3.4486,-3.4704,-3.4733,-3.4806,-3.5024,-3.5053,-3.5198,-3.5633,-3.5677,-3.5851,-3.6272,-3.6301,-3.6301,-3.6301,-3.6301,-3.6301,-3.6301,-3.6301,-3.6301,-3.6301,-3.6301,-3.6301,-3.6301,-3.6301,-3.6301,-3.6301,0.0,0.0,0.0,0.0,0.0,0.0,0.0,0.0,0.0,0.0,0.0,0.0,0.0,0.0,0.0,0.0,0.0,0.0,0.0,0.0,0.0,0.0,0.0,-3.4721,-3.3876,-3.3533,-3.3901,-3.2967,-3.2676,-3.363,-3.3439,-3.3198,-3.3282,-3.278,-3.2982,-3.4241,-3.32,-3.3169,-3.4368,-3.391,-3.3667,-3.3895,-3.4483,-3.4863,-3.5017,-3.5748,-3.6067,-3.6067,-3.6082,-3.5748,-3.5133,-3.5812,-3.5748,-3.5177,-3.6325,-3.6808,-3.6535,-3.4206,-3.3353,-3.3353,-3.3353,-3.3756,-3.452,-3.5273,-3.5419,-3.5273,-3.5273,-3.5141,-3.4927,-3.4823,-3.4756,-3.4756,-3.454,-3.4472,-3.4472,-3.4472,-3.4472,-3.4617,-3.5241,-3.547,-3.5561,-3.617,-3.6301,-3.6301,-3.6301,-3.5314,-3.4675,-3.5285,-3.547,-3.5604,-3.6214,-3.6301,0.0,-3.6344,-3.6344,-3.6344,-3.6359,-3.6359,-3.6359,-3.6359,-3.6359,-3.6359,-3.6359,-3.6359,-3.6359,-3.6359,-3.6359,-3.6359,-3.6359,-3.6359,-3.6359,-3.6359,0.0,0.0,0.0,0.0,0.0,0.0,0.0,0.0,0.0,0.0,0.0,0.0,0.0,0.0,0.0,0.0,0.0,0.0,0.0,0.0,0.0,0.0,-3.7248,-3.5548,-3.5371,-3.5284,-3.5026,-3.4343,-3.4105,-3.4529,-3.3732,-3.3562,-3.4507,-3.4064,-3.3928,-3.4333,-3.4493,-3.4747,-3.5135,-3.5506,-3.577,-3.5876,-3.6635,-3.6549,-3.5763,-3.7357,-3.7853,-3.7452,-3.8479,-3.8885,-3.8807,-3.9023,-3.9084,-3.9007,-3.9229,-3.9201,-3.8921,-3.7,-3.6222,-3.6222,-3.6222,-3.636,-3.658,-3.6813,-3.6813,-3.6813,-3.6813,-3.6745,-3.6677,-3.6365,-3.6365,-3.6419,-3.5933,-3.5863,-3.5933,-3.5793,-3.5793,-3.5822,-3.6011,-3.604,-3.6098,-3.6272,-3.6301,-3.6301,-3.6301,-3.6025,-3.5851,-3.6025,-3.604,-3.6112,-3.6286,-3.6301,0.0,-3.6968,-3.7041,-3.7201,-3.7636,-3.768,-3.768,-3.768,-3.768,-3.768,-3.768,-3.768,-3.768,-3.768,-3.768,-3.768,-3.768,-3.768,-3.768,0.0,0.0,0.0,0.0,0.0,0.0,0.0,0.0,0.0,0.0,0.0,0.0,0.0,0.0,0.0,0.0,0.0,0.0,0.0,0.0,0.0,0.0,-3.8873,-3.8214,-3.6881,-3.664,-3.6416,-3.6011,-3.5493,-3.5337,-3.5769,-3.5053,-3.5052,-3.6124,-3.5525,-3.5368,-3.5975,-3.5951,-3.614,-3.6706,-3.6969,-3.7319,-3.772,-3.8152,-3.8237,-3.7872,-3.9042,-3.9413,-3.9068,-3.9875,-4.0248,0.0,-4.0399,-4.0399,-4.0491,-4.0663,-4.0595,0.0,0.0,0.0,0.0,0.0,-3.7677,-3.7404,-3.7404,-3.7404,-3.7404,-3.7404,-3.7404,-3.7351,-3.7089,-3.7104,-3.7089,-3.6599,-3.6529,-3.6529,-3.6387,-3.6301,-3.6373,-3.6664,-3.6722,-3.6794,-3.7041,-3.7099,-3.7099,-3.7099,-3.7099,0.0,-3.7099,-3.6896,-3.6809,-3.707,-3.7099,-3.7244,-3.7636,-3.768,-3.781,-3.8159,-3.8202,-3.8202,-3.8202,-3.8202,0.0,0.0,0.0,-3.8202,-3.8202,-3.8202,0.0,0.0,0.0,-3.8202,-3.8202,0.0,0.0,0.0,-3.6562,-3.6301,0.0,0.0,0.0,0.0,0.0,0.0,0.0,0.0,0.0,0.0,0.0,0.0,0.0,0.0,0.0,0.0,-3.923,-3.8914,-3.8506,-3.79,-3.7341,-3.6956,-3.654,-3.6524,-3.7182,-3.6915,-3.7033,-3.781,-3.7017,-3.7036,-3.8209,0.0,0.0,0.0,0.0,-3.8624,-3.9295,-3.946,-3.9842,-4.0518,-4.0717,-4.0825,-4.0766,-4.0932,-4.1023,-4.1023,-4.1023,-4.1023,-4.1089,-4.1427,-4.1488,-4.1255,-3.9676,-3.9328,-3.9645,-3.9054,-3.836,-3.7766,-3.782,0.0,0.0,-3.7766,-3.7766,-3.7698,-3.7451,-3.7451,-3.7382,-3.696,-3.6819,-3.6819,-3.659,-3.6519,-3.6664,-3.7259,-3.7404,-3.7549,-3.8086,-3.8202,-3.8202,-3.8202,-3.8202,-3.8202,-3.8202,-3.7767,-3.7593,-3.813,-3.8202,-3.8202,-3.8202,-3.8202,-3.8202,-3.8202,0.0,0.0,-3.8202,-3.8202,-3.8202,-3.8202,-3.8202,-3.8202,-3.8202,-3.8202,-3.8202,-3.8202,-3.8202,-3.8202,-3.8202,-3.8202,-3.8202,-3.8173,-3.7041,-3.6519,0.0,0.0,0.0,0.0,0.0,0.0,0.0,0.0,0.0,0.0,0.0,0.0,0.0,0.0,0.0,-3.9647,-3.9919,-4.0077,-4.0001,-3.9937,-3.9354,-3.7877,-3.8143,-3.8382,-3.8083,-3.8008,-3.8252,-3.8969,-3.8635,-3.8606,-3.8927,-3.9591,-3.988,-3.9575,-4.0685,-4.1139,-4.0787,-4.1383,-4.1266,-4.0534,0.0,0.0,-4.2162,-4.369,-4.436,-4.436,-4.436,-4.436,-4.4377,-4.4047,-4.3448,-4.2525,-4.1502,-4.1083,-4.1114,-4.0999,-4.0469,-3.9941,-4.0536,-4.0334,-3.9887,-3.9887,-3.9887,-3.9749,-3.9005,-3.8892,0.0,-3.8297,-3.8209,-3.8267,-3.7914,-3.7839,-3.7868,-3.7999,-3.8028,-3.8057,-3.8173,-3.8202,-3.8202,-3.8202,-3.8202,-3.8202,-3.8202,-3.8101,-3.8072,-3.8188,-3.8202,-3.8202,-3.8202,-3.8202,-3.8202,-3.8202,-3.8202,-3.8202,-3.8202,-3.8202,-3.8202,-3.8202,-3.8202,-3.8202,-3.8202,-3.8202,-3.8202,-3.8202,-3.8202,-3.8202,-3.8202,-3.8202,-3.8202,-3.8188,-3.7955,-3.7839,0.0,0.0,0.0,0.0,0.0,0.0,0.0,0.0,0.0,0.0,0.0,-4.0425,0.0,0.0,-4.0632,-4.0435,-4.0898,-4.1237,-4.1064,-4.1459,-4.111,-3.9307,-3.9257,-3.935,-3.9398,-3.9282,-3.9576,-4.032,-4.0151,-4.0254,-4.0661,-4.1321,-4.1664,-4.1767,-4.2569,-4.3014,-4.3098,-4.3443,-4.3511,-4.3325,-4.4266,-4.456,-4.4314,-4.5252,-4.5699,-4.5699,-4.5699,-4.5699,-4.5648,-4.5142,-4.4412,-4.3486,-4.3092,-4.2348,-4.1525,-4.1917,-4.1591,-4.1075,-4.1393,-4.126,-4.1008,-4.1008,-4.1008,-4.0873,-4.006,-3.9864,-3.9809,-3.9235,-3.9162,-3.9162,-3.8723,-3.8649,-3.8575,-3.8277,-3.8202,-3.8202,-3.8202,-3.8202,-3.8202,-3.8202,-3.8202,-3.8202,-3.8202,-3.8202,-3.8202,-3.8202,-3.8202,-3.8202,-3.8202,-3.8202,-3.8202,-3.8202,-3.8202,-3.8202,-3.8202,-3.8202,-3.8202,-3.8202,-3.8202,-3.8202,-3.8202,-3.8202,-3.8202,-3.8202,-3.8202,-3.8202,-3.8202,-3.8202,-3.8202,-3.8202,-3.8202,-3.8202,0.0,0.0,0.0,0.0,0.0,0.0,0.0,0.0,-4.066,-4.0742,-4.0892,-4.0945,-4.0824,-4.1412,-4.1761,-4.1396,-4.1954,-4.2347,-4.2044,-4.2667,-4.2619,-4.1158,-4.0558,-4.041,-4.0793,-4.0699,-4.0955,-4.1727,-4.1593,-4.1845,-4.2632,-4.287,-4.3302,-4.3933,-4.4185,-4.4601,-4.5185,-4.5203,-4.5501,-4.6098,-4.6098,-4.6098,-4.6098,-4.6213,-4.6262,-4.6262,-4.6262,-4.6213,-4.6067,-4.5648,-4.5054,-4.4463,-4.431,-4.335,-4.2125,-4.2632,-4.2317,-4.1722,-4.1852,-4.1852,-4.1722,-4.1722,-4.1722,-4.1591,-4.0873,-4.0668,-4.0615,-4.013,-3.9935,-3.9809,-3.9307,-3.9235,-3.909,-3.8352,-3.8277,-3.8352,-3.8202,-3.8202,-3.8202,-3.8202,-3.8202,-3.8202,-3.8202,-3.8202,-3.8202,-3.8202,-3.8202,-3.8202,-3.8202,-3.8202,-3.8202,-3.8202,-3.8202,-3.8202,-3.8202,-3.8202,-3.8202,-3.8202,-3.8202,-3.8202,-3.8202,-3.8202,-3.8202,-3.8202,-3.8202,-3.8202,-3.8202,-3.8202,-3.8202,-3.8202,-3.8202,-3.8202,-3.9535,-4.0195,-4.0909,-4.1056,-4.102,-4.096,0.0,0.0,-4.0757,-4.0629,-4.1147,-4.1591,-4.1574,-4.2087,-4.2438,-4.2284,-4.2886,-4.3302,-4.3144,-4.3623,-4.3813,-4.3444,-4.2938,-4.2459,-4.2144,-4.2062,-4.24,-4.3184,-4.303,-4.3218,-4.4041,-4.4501,-4.4764,-4.4852,-4.5501,-4.5888,-4.5975,-4.5975,-4.6028,-4.6098,-4.6098,-4.6098,-4.6116,-4.6595,-4.6799,-4.6799,-4.6799,-4.6548,-4.6116,-4.6067,-4.5918,-4.5648,-4.5054,-4.4601,-4.4175,-4.3697,-4.3035,-4.2585,-4.3174,-4.2974,-4.2459,-4.2459,-4.2459,-4.2317,-4.1591,-4.1393,-4.1327,-4.1095,-4.0826,-4.0416,-3.9733,-3.9677,-3.955,-3.8486,-3.8575,-3.887,-3.8352,-3.8202,-3.8202,-3.8202,-3.8202,-3.8202,-3.8202,-3.8202,-3.8202,-3.8202,-3.8202,-3.8202,-3.8202,-3.8202,-3.8202,-3.8202,-3.8202,-3.8202,-3.8202,-3.8202,-3.8202,-3.8202,-3.8202,-3.8202,-3.8202,-3.8202,-3.8202,-3.8202,-3.8202,-3.8202,-3.8202,-3.8202,-3.8202,-3.8202,-3.8202,-3.8202,-4.0387,-4.0774,-4.107,0.0,-4.1072,-4.1026,-4.0918,-4.1247,-4.1532,-4.1485,-4.2099,-4.2609,-4.2533,-4.3129,-4.3561,0.0,-4.3815,-4.426,-4.4124,-4.4243,-4.4416,-4.4662,-4.4476,-4.4068,-4.3296,-4.3336,-4.366,-4.4324,-4.4378,-4.4701,-4.5551,-4.5763,-4.6096,-4.6561,-4.6883,-4.7017,-4.7017,-4.7017,-4.7017,-4.7017,-4.7017,-4.7017,-4.7062,-4.7258,-4.7363,-4.7363,-4.7363,-4.7062,-4.6566,-4.6566,-4.631,-4.5868,-4.5407,-4.5144,-4.4858,-4.3931,-4.3432,-4.3235,-4.3492,-4.3432,-4.3174,-4.3174,-4.3174,-4.3035,-4.238,-4.2126,-4.2061,-4.1803,-4.1475,-4.1142,-4.0706,-4.0531,-4.0146,-3.9002,-3.8958,-3.9031,-3.8811,-3.8427,-3.8277,-3.8649,-3.8427,-3.8202,-3.8202,-3.8202,-3.8202,-3.8202,-3.8202,-3.8202,-3.8202,-3.8202,-3.8202,-3.8202,-3.8202,-3.8202,-3.8202,-3.8202,-3.8202,-3.8202,-3.8202,-3.8202,-3.8202,-3.8202,-3.8202,-3.8202,-3.8202,-3.8202,-3.8202,-3.8202,-3.8202,-3.8202,-3.8202,-3.8202,-4.0935,0.0,0.0,-4.1104,-4.1094,-4.1198,-4.1551,-4.1915,-4.2286,-4.274,-4.3245,-4.3562,-4.3477,-4.4113,-4.4536,-4.4173,-4.4545,-4.494,-4.4987,-4.4889,-4.5077,-4.5686,-4.5767,-4.557,-4.5021,-4.4781,-4.4924,-4.5606,-4.5657,-4.6019,-4.688,-4.6871,-4.7102,-4.7681,-4.7717,-4.7717,-4.7717,-4.7717,-4.7741,-4.7806,-4.7741,-4.7741,-4.7806,-4.7741,-4.7717,-4.7717,-4.7717,-4.7468,-4.7107,-4.7107,-4.6845,-4.6358,-4.59,-4.5648,-4.5459,-4.4202,-4.3789,-4.3789,-4.3789,-4.373,-4.3628,-4.3628,-4.3628,-4.3492,-4.3035,-4.2912,-4.2851,-4.2601,-4.2285,-4.1884,-4.1541,-4.1292,-4.0836,-3.958,-3.9451,-3.9523,-3.9379,-3.9002,-3.8782,-3.922,-3.8884,-3.8487,-3.8486,-3.853,-3.847,-3.8202,-3.8202,-3.8202,-3.8202,-3.8202,-3.8202,-3.8202,-3.8202,-3.8202,-3.8202,-3.8202,-3.8202,-3.8202,-3.8202,-3.8202,-3.8202,-3.8202,-3.8202,-3.8202,-3.8202,-3.8202,-3.8202,-3.8202,-3.8202,-3.8202,-3.8202,-3.8202,-4.1099,0.0,-4.1097,-4.1091,-4.1094,-4.1515,-4.3156,-4.2868,-4.2749,-4.4375,-4.4525,-4.4369,-4.4353,-4.4862,-4.5175,-4.4905,-4.4895,-4.5079,-4.5604,-4.566,-4.5979,-4.6832,-4.6945,-4.7136,0.0,-4.6487,-4.6195,-4.7257,-4.6791,-4.6916,-4.7983,-4.7793,-4.7681,-4.7717,-4.7717,-4.7717,-4.7717,-4.7717,-4.7847,-4.8056,-4.7806,-4.7847,-4.8075,-4.7806,-4.7717,-4.7717,-4.7717,-4.7699,-4.7675,-4.7675,-4.7657,-4.7554,-4.666,-4.6244,-4.6098,-4.4746,-4.431,-4.431,-4.431,-4.3964,-4.3628,-4.3628,-4.3628,-4.3628,-4.3568,-4.3568,-4.3568,-4.3568,-4.3295,-4.2851,-4.1997,-4.1948,-4.1688,-4.0239,-4.0339,-4.0578,-3.9975,-3.9889,-3.9819,-3.9889,-3.9597,-3.9324,-3.9133,-3.9266,-3.9077,-3.8292,-3.8202,-3.8202,-3.8202,-3.8202,-3.8202,-3.8202,-3.8202,-3.8202,-3.8202,-3.8202,-3.8202,-3.8202,-3.8202,-3.8202,-3.8202,-3.8202,-3.8202,-3.8202,-3.8202,-3.8202,-3.8202,-3.8202,-3.8202,-3.8202,-3.8202,-3.8202,-4.1101,-4.1094,-4.1384,-4.2536,-4.283,-4.3119,-4.4215,-4.4647,-4.482,-4.4802,-4.5157,-4.5454,-4.5407,-4.5491,-4.5475,-4.5199,-4.5475,-4.571,-4.5808,-4.6243,-4.688,-4.7706,-4.78,0.0,0.0,0.0,0.0,-4.8143,-4.7997,-4.7956,-4.8096,-4.7995,-4.787,-4.7717,-4.7717,-4.7783,-4.7974,-4.7974,-4.7995,-4.8114,-4.7847,-4.7741,-4.7847,-4.7741,-4.7717,-4.7717,-4.7717,-4.7717,-4.7717,-4.7717,-4.7615,-4.7407,-4.6944,-4.6666,-4.6411,-4.5786,-4.5372,-4.5052,-4.4121,-4.373,-4.3628,-4.3628,-4.3628,-4.3628,-4.3628,-4.3628,-4.3628,-4.3628,-4.3372,-4.2974,-4.2443,-4.2396,-4.2077,-4.082,-4.082,-4.1024,-4.0562,-4.02,-4.0045,-4.0424,-4.0277,-3.994,-3.925,-3.9281,-3.9165,-3.8292,-3.8202,-3.8202,-3.8202,-3.8202,-3.8202,-3.8202,-3.8202,-3.8202,-3.8202,-3.8202,-3.8202,-3.8202,-3.8202,-3.8202,-3.8202,-3.8202,-3.8202,-3.8202,-3.8202,-3.8202,-3.8202,-3.8202,-3.8202,-3.8202,-3.8202,-3.8202,-4.1105,-4.1099,-4.1529,-4.3258,-4.3462,-4.37,-4.5423,-4.574,-4.5682,-4.5726,-4.585,-4.6026,-4.6274,-4.5939,-4.5757,-4.6206,-4.6157,-4.6291,-4.6773,-4.7194,-4.7744,-4.857,-4.8664,-4.887,0.0,0.0,0.0,-4.8887,-4.8731,-4.8514,-4.8307,-4.8192,-4.7995,-4.7847,-4.7847,-4.7974,-4.8269,-4.8269,-4.8269,-4.8269,-4.7974,-4.7847,-4.7847,-4.7741,-4.7717,-4.7717,-4.7717,-4.7717,-4.7717,-4.7717,-4.7554,-4.7258,-4.707,-4.6842,-4.6542,-4.6154,-4.5803,-4.5477,-4.4597,-4.4121,-4.3848,-4.3848,-4.3747,-4.3628,-4.3628,-4.3628,-4.3628,-4.3628,-4.3432,-4.3174,-4.2851,-4.2772,-4.2522,-4.1507,-4.144,-4.1491,-4.1189,-4.0752,-4.06,-4.0987,-4.096,-4.0647,-3.9824,-3.9454,-3.912,-3.859,-3.8352,-3.8202,-3.8202,-3.8202,-3.8202,-3.8202,-3.8202,-3.8202,-3.8202,-3.8202,-3.8202,-3.8202,-3.8202,-3.8202,-3.8202,-3.8202,-3.8202,-3.8202,-3.8202,-3.8202,-3.8202,-3.8202,-3.8202,-3.8202,-3.8202,-3.8202,-4.111,-4.1166,-4.1637,-4.3339,-4.3216,-4.3501,-4.6752,-4.6216,-4.548,-4.7008,-4.6596,-4.6197,0.0,0.0,-4.6147,-4.7722,-4.7007,-4.679,-4.8356,-4.8419,-4.8589,0.0,0.0,0.0,0.0,0.0,0.0,-4.9509,0.0,-4.8623,-4.8623,-4.8307,-4.8135,-4.8153,-4.8153,-4.8269,-4.8623,-4.8623,-4.8623,-4.8623,-4.8269,-4.8114,-4.8114,-4.7806,-4.7717,-4.7717,-4.7717,-4.7717,-4.7717,-4.7717,-4.7554,-4.7276,-4.707,-4.6842,-4.6495,-4.5887,-4.5632,-4.5632,-4.5632,-4.5052,-4.431,-4.431,-4.3964,-4.3628,-4.3628,-4.3628,-4.3628,-4.3628,-4.3628,-4.3492,-4.3174,-4.3096,-4.2974,-4.2238,-4.2109,-4.2045,-4.1654,-4.1588,-4.1588,-4.1588,-4.1588,-4.139,-4.0867,-3.9879,-3.9104,-3.9104,-3.8649,-3.8277,-3.8202,-3.8202,-3.8202,-3.8202,-3.8202,-3.8202,-3.8202,-3.8202,-3.8202,-3.8202,-3.8202,-3.8202,-3.8202,-3.8202,-3.8202,-3.8202,-3.8202,-3.8202,-3.8202,-3.8202,-3.8202,-3.8202,-3.8202,-3.8202,-4.1091,-4.2051,-4.3297,-4.4393,-4.548,-4.6483,-4.7255,-4.708,-4.668,-4.6406,-4.6666,-4.7012,0.0,0.0,0.0,-4.7818,-4.7914,0.0,-4.8267,-4.8799,0.0,-5.0297,0.0,-4.9734,-5.0335,-4.9847,0.0,0.0,-4.9345,-4.9146,-4.8906,-4.8837,-4.8677,-4.8476,-4.8458,-4.8623,-4.8906,-4.8906,-4.8906,-4.8906,-4.8383,-4.8114,-4.8114,-4.7806,-4.7717,-4.7717,-4.7717,-4.7717,-4.7717,-4.7717,-4.7425,-4.707,-4.7025,-4.6702,-4.627,-4.6122,-4.6073,-4.6073,-4.6073,-4.5266,-4.431,-4.431,-4.3964,-4.3628,-4.3628,-4.3628,-4.3628,-4.3628,-4.3628,-4.3492,-4.3174,-4.3295,-4.3251,-4.2302,-4.2285,-4.2333,-4.172,-4.1588,-4.1588,-4.1588,-4.1256,-4.0935,-4.0799,-4.0216,-3.9565,-3.9177,-3.9277,-3.919,-3.8277,-3.8575,-3.8723,-3.8277,-3.8575,-3.8649,-3.8202,-3.8202,-3.8202,-3.8202,-3.8202,-3.8202,-3.8202,-3.8202,-3.8202,-3.8202,-3.8202,-3.8202,-3.8202,-3.8202,-3.8202,-3.8202,-3.8202,-3.8202,-4.1574,-4.2656,-4.4,-4.5252,-4.6319,-4.7092,-4.7379,-4.7145,-4.6824,-4.6649,-4.6978,0.0,0.0,0.0,0.0,0.0,0.0,0.0,-4.939,-4.9789,-5.0335,0.0,-5.0522,0.0,-5.0654,-4.9959,-4.9509,0.0,-4.9509,-4.9345,-4.9027,-4.9008,-4.894,-4.8767,-4.8767,-4.8925,-4.923,-4.9061,-4.9061,-4.9211,-4.8605,-4.8307,-4.8307,-4.8014,-4.7806,-4.7717,0.0,-4.7717,-4.7717,-4.7717,-4.7443,-4.6998,-4.6998,-4.6655,-4.6172,-4.6172,-4.6172,-4.6172,-4.6172,-4.5632,-4.4835,-4.4614,-4.4293,-4.3848,-4.3671,-4.3628,-4.3628,-4.3628,-4.3628,-4.3568,-4.3372,-4.3432,-4.3372,-4.2492,-4.2476,-4.2396,-4.1704,-4.1588,-4.1588,-4.1588,-4.139,-4.1122,-4.1122,-4.0699,-4.02,-3.9879,-3.9849,-3.9692,-3.9045,-3.9017,-3.8943,-3.8649,-3.8649,-3.8575,-3.8202,-3.8202,-3.8202,-3.8202,-3.8202,-3.8202,-3.8202,-3.8202,-3.8202,-3.8202,-3.8202,-3.8202,-3.8202,-3.8202,-3.8202,-3.8202,-3.8202,-3.8202,-4.2295,-4.3299,-4.4393,-4.5902,-4.6463,-4.6749,-4.7226,-4.6748,-4.6434,-4.7222,0.0,-4.8017,-4.9745,-4.934,-4.9189,-5.0601,0.0,-4.9576,-5.0866,-5.0953,-5.1161,-5.1987,-5.1255,-5.0729,-5.0842,-5.0034,-4.9509,-4.9509,-4.9509,-4.9377,-4.9094,-4.9061,-4.9061,-4.9061,-4.9061,-4.9211,-4.9509,-4.9211,-4.9211,-4.949,-4.889,-4.8587,-4.8587,-4.8231,-4.7893,-4.7717,-4.7717,0.0,-4.7717,-4.7717,-4.7443,-4.6998,-4.6998,-4.6655,-4.6172,-4.6172,-4.6172,-4.6172,-4.6172,-4.5955,-4.558,-4.5072,-4.4652,-4.4179,-4.373,-4.3628,-4.3628,-4.3628,-4.3628,-4.3628,-4.3628,-4.3628,-4.3432,-4.2821,-4.2601,-4.2396,-4.1769,-4.1654,-4.1588,-4.1588,-4.1588,-4.1588,-4.1588,-4.1189,-4.0867,-4.0799,-4.0409,-4.0115,-4.0045,-3.9565,-3.9162,-3.9104,-3.8723,-3.8412,-3.8352,-3.8412,-3.8412,-3.8352,-3.8352,-3.8277,-3.8202,-3.8202,-3.8202,-3.8202,-3.8202,-3.8202,-3.8202,-3.8202,-3.8202,-3.8202,-3.8202,-3.8202,-4.3037,-4.4605,-4.5844,-4.6132,-4.7302,-4.8035,-4.6721,-4.632,0.0,0.0,-4.7892,-4.891,-5.0658,-5.1269,-5.1493,-5.1451,0.0,0.0,0.0,0.0,-5.2006,0.0,0.0,0.0,0.0,0.0,0.0,0.0,0.0,-4.9459,-4.9427,-4.9409,-4.9409,-4.9409,-4.9409,-4.9459,-4.9509,-4.9459,-4.9459,-4.949,-4.889,-4.8587,-4.8587,-4.8032,-4.7741,-4.7717,-4.7717,0.0,-4.7717,-4.7717,-4.7443,-4.6998,-4.6998,-4.6655,-4.6172,-4.6172,-4.6172,-4.6172,-4.6172,-4.6172,-4.5955,-4.5178,-4.4652,-4.4179,-4.373,-4.3628,-4.3628,-4.3628,-4.3628,-4.3628,-4.3628,-4.3628,-4.3492,-4.3113,-4.2789,-4.2459,-4.2109,-4.1785,-4.1588,-4.1588,-4.1588,-4.1588,-4.1588,-4.1522,-4.1323,-4.0867,-4.1122,-4.1174,-4.0715,-4.013,-3.9565,-3.9177,-3.9421,-3.9421,-3.8943,-3.9349,-3.9421,-3.8943,-3.8943,-3.8723,-3.8202,-3.8202,-3.8202,-3.8202,-3.8202,-3.8202,-3.8202,-3.8202,-3.8202,-3.8202,-3.8202,-3.8202,-4.3736,-4.5238,-4.6303,-4.6758,-4.785,-4.8332,-4.6599,0.0,0.0,0.0,-4.9027,-5.0348,-5.1591,0.0,0.0,0.0,0.0,0.0,0.0,0.0,0.0,0.0,0.0,0.0,0.0,0.0,0.0,0.0,0.0,-4.9509,-4.9509,-4.9509,-4.9509,-4.9509,-4.9509,-4.9509,-4.9509,-4.9509,-4.9509,-4.949,-4.9027,-4.8731,-4.8587,-4.8132,-4.7847,-4.7717,-4.7717,0.0,-4.7717,-4.7717,-4.7443,-4.6998,-4.6998,-4.6655,-4.6172,-4.6172,-4.6172,-4.6172,-4.6172,-4.6172,-4.6073,-4.5178,-4.4746,-4.4502,-4.3789,-4.3628,-4.3628,-4.3628,-4.3628,-4.3628,-4.3628,-4.3628,-4.3509,-4.3174,-4.2726,-4.2222,-4.1916,-4.172,-4.1588,-4.1588,-4.1588,-4.1588,-4.1588,-4.1588,-4.1522,-4.1256,-4.1456,-4.1522,-4.1256,-4.0699,-4.0285,-4.0021,-3.992,-3.9834,-3.9565,-3.9763,-3.9692,-3.909,-3.9104,-3.8797,-3.8202,-3.8202,-3.8352,-3.8649,-3.8352,-3.8352,-3.8649,-3.8352,-3.8202,-3.8202,-3.8202,-3.8202,-4.4434,-4.5679,-4.6452,-4.7518,-4.8281,-4.8336,-4.6599,-4.6819,0.0,0.0,-4.9998,-5.1494,-5.2504,0.0,-5.377,0.0,0.0,0.0,0.0,0.0,0.0,0.0,0.0,0.0,0.0,0.0,0.0,0.0,0.0,0.0,-4.9509,-4.9509,-4.9509,-4.9509,-4.9509,-4.9509,-4.9509,-4.9509,-4.9509,-4.9509,-4.9113,-4.8802,-4.8587,-4.8192,-4.7911,-4.7717,-4.7717,0.0,0.0,-4.7717,-4.7443,-4.6998,-4.6998,-4.6655,-4.6172,-4.6172,-4.6172,-4.6172,-4.6172,-4.6172,-4.6073,-4.5302,-4.4964,-4.4746,-4.3889,-4.3628,-4.3628,-4.3628,-4.3628,-4.3628,-4.3628,-4.3628,-4.3492,-4.3096,-4.2601,-4.2109,-4.172,-4.1588,-4.1588,-4.1588,-4.1588,-4.1588,-4.1588,-4.1588,-4.1588,-4.1588,-4.1588,-4.1588,-4.1588,-4.1256,-4.0987,-4.0987,-4.0409,-4.0115,-4.0115,-4.0185,-4.0045,-3.9523,-3.9451,-3.922,-3.856,-3.8546,-3.8782,-3.922,-3.8782,-3.8708,-3.9104,-3.8649,-3.8352,-3.8202,-3.8202,-3.8277,-4.5177,-4.6137,-4.6591,-4.8267,-4.8742,-4.834,-4.661,0.0,0.0,-4.8427,-4.9998,-5.1688,-5.3281,-5.4278,-5.4788,0.0,0.0,-5.491,0.0,0.0,0.0,0.0,0.0,0.0,0.0,0.0,0.0,0.0,0.0,0.0,-4.9509,-4.9509,-4.9509,-4.9509,-4.9509,-4.9509,-4.9509,-4.9509,-4.9509,-4.949,-4.8925,-4.8623,-4.8587,-4.7992,-4.7699,-4.7717,-4.7717,0.0,0.0,-4.7717,-4.7443,-4.6998,-4.6998,-4.6655,-4.6172,-4.6172,-4.6172,-4.6172,-4.6172,-4.6172,-4.6122,-4.5684,-4.5249,-4.4746,-4.3889,-4.3628,-4.3628,-4.3628,-4.3628,-4.3628,-4.3628,-4.3628,-4.3432,-4.2772,-4.2601,-4.2365,-4.172,-4.1588,-4.1588,-4.1588,-4.1588,-4.1588,-4.1588,-4.1588,-4.1588,-4.1588,-4.1588,-4.1588,-4.1588,-4.1588,-4.1522,-4.1522,-4.1055,-4.0715,-4.0715,-4.1174,-4.1174,-4.0662,-4.0646,-4.0355,-3.9763,-3.9748,-3.9748,-3.9834,-3.9748,-3.9565,-3.9104,-3.9031,-3.8723,-3.8202,-3.8202,-3.8501,-4.527,-4.6189,-4.663,-4.8362,-4.8764,-4.8281,-4.6585,0.0,0.0,-4.9224,-5.1144,-5.3067,-5.4252,-5.5184,-5.5741,-5.5647,0.0,0.0,0.0,0.0,0.0,0.0,0.0,0.0,0.0,0.0,0.0,0.0,0.0,0.0,-4.9509,-4.9509,-4.9509,-4.9509,-4.9509,-4.9509,-4.9509,-4.9509,-4.9509,-4.949,-4.889,-4.8587,-4.8587,-4.797,-4.7717,-4.7717,-4.7717,0.0,0.0,-4.7717,-4.7443,-4.6998,-4.6998,-4.6655,-4.6172,-4.6172,-4.6172,-4.6172,-4.6172,-4.6172,-4.6122,-4.5752,-4.5302,-4.4801,-4.4179,-4.3789,-4.3628,-4.3628,-4.3628,-4.3628,-4.3628,-4.3628,-4.3432,-4.2743,-4.2601,-4.2412,-4.172,-4.1588,-4.1588,-4.1588,-4.1588,-4.1588,-4.1588,-4.1588,-4.1588,-4.1588,-4.1588,-4.1588,-4.1588,-4.1588,-4.1588,-4.1588,-4.139,-4.1256,-4.1256,-4.1456,-4.139,-4.0867,-4.0799,-4.0493,-3.9889,-3.9889,-4.0045,-4.0424,-4.0115,-3.999,-4.0091,-3.9451,-3.9147,-3.919,-3.8855,-3.9002,-4.527,-4.6195,-4.6616,-4.8356,-4.8765,-4.8298,0.0,0.0,0.0,-4.9718,-5.1921,-5.396,-5.4835,-5.5709,-5.6291,-5.6291,0.0,-5.5806,0.0,0.0,0.0,0.0,0.0,0.0,0.0,0.0,0.0,0.0,0.0,0.0,-4.9509,-4.9509,-4.9509,-4.9509,-4.9509,-4.9509,-4.9509,-4.9509,-4.9509,-4.949,-4.8959,-4.866,-4.8587,-4.8072,-4.7783,-4.7717,-4.7717,0.0,0.0,-4.7717,-4.7443,-4.6998,-4.6998,-4.6655,-4.6172,-4.6172,-4.6172,-4.6172,-4.6172,-4.6172,-4.6172,-4.5854,-4.5459,-4.5035,-4.4614,-4.4064,-4.3628,-4.3628,-4.3628,-4.3628,-4.3628,-4.3628,-4.3432,-4.2759,-4.2601,-4.2396,-4.1704,-4.1588,-4.1588,-4.1588,-4.1588,-4.1588,-4.1588,-4.1588,-4.1588,-4.1588,-4.1588,-4.1588,-4.1588,-4.1588,-4.1588,-4.1588,-4.1588,-4.1588,-4.1588,-4.1588,-4.1456,-4.1055,-4.1055,-4.0836,-4.0393,-4.0393,-4.0615,-4.1055,-4.0615,-4.0547,-4.0799,-4.0021,-3.9828,-4.0208,-3.9808,-3.9971,-4.5275,-4.6192,-4.6616,-4.8365,-4.8803,-4.8336,0.0,0.0,0.0,-4.9718,-5.1921,-5.396,-5.4835,-5.5709,-5.6291,-5.6291,-5.6136,0.0,0.0,0.0,0.0,0.0,0.0,0.0,0.0,0.0,0.0,0.0,0.0,0.0,-4.9509,-4.9509,-4.9509,-4.9509,-4.9509,-4.9509,-4.9509,-4.9509,-4.9509,-4.9509,-4.9146,-4.8872,-4.8587,-4.8269,-4.7933,0.0,0.0,0.0,0.0,-4.7717,-4.7443,-4.6998,-4.6998,-4.6655,-4.6172,-4.6172,-4.6172,-4.6172,-4.6172,-4.6172,-4.6172,-4.6189,-4.5905,-4.5529,-4.5018,-4.4259,-4.3628,-4.3628,-4.3628,-4.3628,-4.3628,-4.3628,-4.3432,-4.2759,-4.2601,-4.2396,-4.1704,-4.1588,-4.1588,-4.1588,-4.1588,-4.1588,-4.1588,-4.1588,-4.1588,-4.1588,-4.1588,-4.1588,-4.1588,-4.1588,-4.1588,-4.1588,-4.1588,-4.1588,-4.1588,-4.1588,-4.1588,-4.1588,-4.1588,-4.1588,-4.1588,-4.1588,-4.1588,-4.1588,-4.1588,-4.1323,-4.0799,-4.0799,-4.0863,-4.1009,-4.1009,-4.1343,-4.5215,-4.6133,-4.6542,-4.8295,-4.8708,-4.8226,-4.6527,0.0,0.0,-5.0484,-5.2329,-5.4155,-5.5612,-5.6117,-5.6291,-5.6291,-5.6246,0.0,0.0,0.0,0.0,0.0,0.0,0.0,0.0,0.0,0.0,0.0,0.0,0.0,-4.9509,-4.9509,-4.9509,-4.9509,-4.9509,-4.9509,-4.9509,-4.9509,-4.9509,-4.9509,-4.9179,-4.8872,-4.8587,-4.8269,-4.7933,0.0,0.0,0.0,0.0,-4.7717,-4.7443,-4.6998,-4.6998,-4.6655,-4.6172,-4.6172,-4.6172,-4.6172,-4.6172,-4.6172,-4.6172,-4.6172,-4.5905,-4.558,-4.5407,-4.4763,-4.4023,-4.3687,-4.3628,-4.3628,-4.3628,-4.3628,-4.3432,-4.2759,-4.2601,-4.2396,-4.1704,-4.1588,-4.1588,-4.1588,-4.1588,-4.1588,-4.1588,-4.1588,-4.1588,-4.1588,-4.1588,-4.1588,-4.1588,-4.1588,-4.1588,-4.1588,-4.1588,-4.1588,-4.1588,-4.1588,-4.1588,-4.1588,-4.1588,-4.181,-4.2315,-4.2347,-4.2568,-4.3042,-4.3042,-4.2974,-4.2768,-4.2404,-4.2231,-4.2289,-4.2661,-4.2997,0.0,-4.6114,-4.6541,-4.8271,-4.8669,0.0,0.0,0.0,0.0,-5.0348,-5.2037,-5.3747,-5.5495,-5.6078,-5.6291,-5.6291,-5.6291,0.0,0.0,0.0,0.0,0.0,0.0,0.0,0.0,0.0,0.0,0.0,0.0,0.0,-4.9509,-4.9509,-4.9509,-4.9509,-4.9509,-4.9509,-4.9509,-4.9509,-4.9509,-4.9509,-4.9295,-4.8993,-4.8587,-4.8383,-4.8053,0.0,0.0,0.0,0.0,-4.7717,-4.7486,-4.7116,-4.7025,-4.6749,-4.6319,-4.6221,-4.6172,-4.6172,-4.6172,-4.6172,-4.6172,-4.6172,-4.5905,-4.558,-4.5407,-4.4818,-4.4196,-4.373,-4.3628,-4.3628,-4.3628,-4.3628,-4.3432,-4.2929,-4.2664,-4.2459,-4.1916,-4.172,-4.1588,-4.1588,-4.1588,-4.1588,-4.1588,-4.1588,-4.1588,-4.1588,-4.1588,-4.1588,-4.1588,-4.1588,-4.1588,-4.1588,-4.1588,-4.1588,-4.1588,-4.1588,-4.1715,-4.1983,-4.1999,-4.2315,-4.3026,-4.3074,-4.3279,-4.3706,-4.3722,-4.3722,-4.3722,-4.3608,-4.3575,-4.3575,-4.4228,-4.4512,0.0,0.0,0.0,0.0,0.0,0.0,0.0,0.0,0.0,0.0,0.0,0.0,-5.4679,-5.5709,-5.6291,-5.6291,-5.6291,0.0,0.0,0.0,0.0,0.0,0.0,0.0,0.0,0.0,0.0,0.0,0.0,0.0,-4.9509,-4.9509,-4.9509,-4.9509,-4.9509,-4.9509,-4.9509,-4.9509,-4.9509,-4.9509,-4.9459,-4.9164,-4.8587,-4.8587,-4.8267,0.0,0.0,0.0,0.0,-4.7717,-4.7554,-4.7258,-4.707,-4.6842,-4.659,-4.6319,-4.6172,-4.6172,-4.6172,-4.6172,-4.6172,-4.6172,-4.5955,-4.5529,-4.5072,-4.4597,-4.4196,-4.373,-4.3628,-4.3628,-4.3628,-4.3628,-4.3509,-4.3174,-4.2834,-4.2522,-4.2174,-4.1851,-4.1588,-4.1588,-4.1588,-4.1588,-4.1588,-4.1588,-4.1588,-4.1588,-4.1588,-4.1588,-4.1588,-4.1588,-4.1588,-4.1588,-4.1588,-4.1588,-4.1588,-4.1636,-4.1968,-4.2647,-4.2726,-4.3058,-4.3722,-4.3785,-4.3816,-4.388,-4.388,-4.388,-4.388,-4.448,-4.4796,-4.4796,-4.5491,-4.5807,-4.5122,0.0,-4.6463,-4.8195,-4.8623,0.0,0.0,0.0,0.0,0.0,0.0,0.0,0.0,0.0,-5.6291,-5.6291,0.0,-5.6232,0.0,0.0,0.0,0.0,0.0,0.0,0.0,0.0,0.0,0.0,0.0,-4.9509,-4.9509,-4.9509,-4.9509,-4.9509,-4.9509,-4.9509,-4.9509,-4.9509,-4.9509,-4.9509,-4.923,-4.8959,-4.8587,-4.8345,-4.8014,0.0,0.0,0.0,-4.7717,-4.7717,-4.7554,-4.7258,-4.707,-4.6842,-4.659,-4.6319,-4.6172,-4.6172,-4.6172,-4.6172,-4.6172,-4.6172,-4.6122,-4.5905,-4.5125,-4.4597,-4.4196,-4.373,-4.3628,-4.3628,-4.3628,-4.3628,-4.3509,-4.3174,-4.2867,-4.2492,-4.2174,-4.1851,-4.1588,-4.1588,-4.1588,-4.1588,-4.1588,-4.1588,-4.1588,-4.1588,-4.1588,-4.1588,-4.1588,-4.1588,-4.1588,-4.1588,-4.1588,-4.1588,-4.1588,-4.2271,-4.2683,-4.2679,-4.3184,-4.3785,-4.4448,-4.448,-4.4749,-4.5317,-4.5317,-4.5317,-4.5317,-4.5476,-4.5555,-4.5555,-4.5728,-4.5807,-4.4151,-4.5142,-4.5958,-4.8075,-4.8308,-4.7648,0.0,0.0,0.0,0.0,0.0,0.0,0.0,0.0,0.0,0.0,-5.586,0.0,0.0,0.0,0.0,0.0,0.0,0.0,0.0,0.0,0.0,0.0,0.0,-4.9509,-4.9509,-4.9509,-4.9509,-4.9509,-4.9509,-4.9509,-4.9509,-4.9345,-4.9262,-4.9262,-4.9094,-4.8802,-4.8383,-4.8345,-4.8093,0.0,0.0,0.0,-4.7717,-4.7717,-4.7615,-4.7468,-4.7116,-4.6888,-4.6749,-4.6319,-4.6172,-4.6172,-4.6172,-4.6172,-4.6172,-4.6172,-4.6172,-4.6073,-4.5178,-4.4763,-4.4446,-4.3789,-4.3628,-4.3628,-4.3848,-4.373,-4.3611,-4.3654,-4.3235,-4.2743,-4.2412,-4.2045,-4.1785,-4.1654,-4.1588,-4.1588,-4.1588,-4.1588,-4.1588,-4.1588,-4.1588,-4.1588,-4.1588,-4.1588,-4.1588,-4.1588,-4.1588,-4.1588,-4.1588,-4.2059,-4.2595,-4.3137,-4.3516,-4.4164,-4.5175,-4.5207,-4.5396,-4.5807,-4.5807,-4.5807,-4.5807,-4.5807,-4.5807,-4.5807,-4.5807,-4.5807,-4.3052,-4.4035,-4.5182,-4.7589,-4.7745,-4.7065,0.0,0.0,0.0,0.0,0.0,0.0,0.0,0.0,0.0,0.0,0.0,0.0,0.0,0.0,0.0,0.0,0.0,0.0,0.0,0.0,0.0,0.0,0.0,-4.9509,-4.9509,-4.9509,-4.9509,-4.9509,-4.9509,-4.9509,-4.9509,-4.9179,-4.8974,-4.894,-4.8906,-4.8586,-4.8114,-4.8345,-4.819,-4.7717,0.0,0.0,-4.7717,-4.7717,-4.7717,-4.7657,-4.716,-4.6998,-4.6952,-4.6416,-4.6172,-4.6172,-4.6172,-4.6172,-4.6172,-4.6172,-4.6172,-4.6055,-4.5232,-4.4964,-4.4746,-4.3948,-4.3687,-4.3671,-4.408,-4.3906,-4.3687,-4.408,-4.3578,-4.2929,-4.2648,-4.2285,-4.1916,-4.1654,-4.1588,-4.1588,-4.1588,-4.1588,-4.1588,-4.1588,-4.1588,-4.1588,-4.1588,-4.1588,-4.1588,-4.1588,-4.1588,-4.1588,-4.1588,-4.1594,-4.2192,-4.3485,-4.3753,-4.4464,-4.576,-4.5807,-4.5807,-4.5807,-4.5807,-4.5807,-4.5807,-4.5807,-4.5807,-4.5807,-4.5807,-4.5807,-4.3052,-4.3603,-4.4133,-4.5939,-4.6851,-4.7065,0.0,0.0,0.0,0.0,0.0,0.0,0.0,0.0,0.0,0.0,0.0,0.0,0.0,0.0,0.0,0.0,0.0,0.0,0.0,0.0,0.0,0.0,0.0,-4.9509,-4.9509,-4.9509,-4.9509,-4.9509,-4.9509,-4.9509,-4.9509,-4.9179,-4.8872,-4.866,-4.8365,-4.8174,-4.8096,-4.7911,-4.7783,-4.7717,0.0,-4.7717,-4.7717,-4.7717,-4.7717,-4.7657,-4.716,-4.6998,-4.6952,-4.6416,-4.6172,-4.6172,-4.6172,-4.6172,-4.6172,-4.6172,-4.6172,-4.6122,-4.5632,-4.5249,-4.4801,-4.435,-4.3906,-4.3628,-4.3687,-4.3628,-4.3628,-4.3687,-4.319,-4.268,-4.2585,-4.2077,-4.1654,-4.1588,-4.1588,-4.1588,-4.1588,-4.1588,-4.1588,-4.1588,-4.1588,-4.1588,-4.1588,-4.1588,-4.1588,-4.1588,-4.1588,-4.1588,-4.1588,-4.162,-4.1983,-4.2789,-4.3927,-4.4938,-4.5776,-4.5807,-4.5807,-4.5807,-4.5807,-4.5807,-4.5807,-4.5807,-4.5807,-4.5807,-4.5807,-4.5807,-4.1953,-4.2799,-4.3681,-4.4472,-4.5627,-4.6482,0.0,0.0,0.0,0.0,0.0,0.0,0.0,0.0,0.0,0.0,0.0,0.0,0.0,0.0,0.0,0.0,0.0,0.0,0.0,0.0,0.0,0.0,0.0,0.0,-4.9509,-4.9509,-4.9509,-4.9509,-4.9509,-4.9409,-4.9211,-4.9061,-4.8872,-4.8587,-4.8421,-4.821,-4.787,-4.7911,-4.7847,-4.7717,0.0,-4.7717,-4.7717,-4.7717,-4.7717,-4.7657,-4.7294,-4.7116,-4.6952,-4.6416,-4.6172,-4.6172,-4.6172,-4.6172,-4.6172,-4.6172,-4.6172,-4.6122,-4.5752,-4.5302,-4.4801,-4.439,-4.3964,-4.3687,-4.3906,-4.3671,-4.3416,-4.3848,-4.3416,-4.2805,-4.2648,-4.2349,-4.2045,-4.1654,-4.1588,-4.1588,-4.1588,-4.1588,-4.1588,-4.1588,-4.1588,-4.1588,-4.1588,-4.1588,-4.1588,-4.1588,-4.1588,-4.1588,-4.1588,-4.1588,-4.1904,-4.2647,-4.3627,-4.4496,-4.5191,-4.5223,-4.5396,-4.5807,-4.5807,-4.5807,-4.5807,-4.5807,-4.5807,-4.5807,-4.5807,-4.5807,-4.0994,-4.2208,-4.3506,-4.3491,0.0,0.0,0.0,0.0,0.0,0.0,0.0,0.0,0.0,0.0,0.0,0.0,0.0,0.0,0.0,0.0,0.0,0.0,0.0,0.0,0.0,0.0,0.0,0.0,0.0,0.0,-4.9509,-4.9509,-4.9509,-4.9509,-4.9509,-4.9377,-4.9127,-4.9113,-4.8906,-4.8458,-4.8458,-4.821,-4.7717,-4.7911,-4.7911,-4.7717,-4.7717,-4.7717,-4.7717,-4.7717,-4.7717,-4.7657,-4.7407,-4.7143,-4.6842,-4.6368,-4.6172,-4.6172,-4.6172,-4.6172,-4.6172,-4.6172,-4.6172,-4.6122,-4.5854,-4.5354,-4.4855,-4.4502,-4.4006,-4.3671,-4.4023,-4.3654,-4.3355,-4.4006,-4.3595,-4.3035,-4.2648,-4.2539,-4.2302,-4.172,-4.1588,-4.1588,-4.1588,-4.1588,-4.1588,-4.1588,-4.1588,-4.1588,-4.1588,-4.1588,-4.1588,-4.1588,-4.1588,-4.1588,-4.1588,-4.1588,-4.1825,-4.2394,-4.309,-4.3785,-4.4448,-4.4638,-4.4986,-4.5539,-4.5728,-4.5807,-4.5807,-4.5807,-4.5807,-4.5807,-4.5807,-4.5807,-4.1016,-4.2222,-4.3506,-4.3491,-4.4753,0.0,0.0,0.0,0.0,0.0,0.0,0.0,0.0,0.0,0.0,0.0,0.0,0.0,0.0,0.0,0.0,0.0,0.0,0.0,0.0,0.0,0.0,0.0,0.0,0.0,-4.9546,-4.9509,-4.9509,-4.9509,-4.9509,-4.9509,-4.9459,-4.9459,-4.9027,-4.8153,-4.8153,-4.7974,-4.7717,-4.7699,-4.7699,-4.7717,-4.7717,-4.7717,-4.7717,-4.7717,-4.7717,-4.7657,-4.7407,-4.7035,-4.659,-4.6319,-4.6172,-4.6172,-4.6172,-4.6172,-4.6172,-4.6172,-4.6172,-4.6172,-4.6172,-4.5563,-4.491,-4.4855,-4.4259,-4.3628,-4.3628,-4.3628,-4.3568,-4.3628,-4.3372,-4.3035,-4.2648,-4.2349,-4.2045,-4.1654,-4.1588,-4.1588,-4.1588,-4.1588,-4.1588,-4.1588,-4.1588,-4.1588,-4.1588,-4.1588,-4.1588,-4.1588,-4.1588,-4.1588,-4.1588,-4.1588,-4.1604,-4.1667,-4.2363,-4.3074,-4.3769,-4.4385,-4.4733,-4.4796,-4.546,-4.5807,-4.5807,-4.5807,-4.5807,-4.5807,-4.5807,-4.5807,-4.1073,-4.2282,-4.3553,-4.3557,0.0,0.0,0.0,0.0,0.0,0.0,0.0,0.0,0.0,0.0,0.0,0.0,0.0,0.0,0.0,0.0,0.0,0.0,0.0,0.0,0.0,0.0,0.0,0.0,0.0,0.0,-5.026,-4.9771,-4.9509,-4.9509,-4.9509,-4.9509,-4.9509,-4.9509,-4.923,-4.8677,-4.8495,-4.8172,-4.7717,-4.7717,-4.7717,-4.7717,-4.7717,-4.7717,-4.7717,-4.7717,-4.7717,-4.7657,-4.7249,-4.7025,-4.6795,-4.6368,-4.6172,-4.6172,-4.6172,-4.6172,-4.6172,-4.6172,-4.6172,-4.6172,-4.6172,-4.5563,-4.491,-4.491,-4.4259,-4.3628,-4.3628,-4.3432,-4.3295,-4.3295,-4.3174,-4.2974,-4.2412,-4.2349,-4.2285,-4.172,-4.1588,-4.1588,-4.1588,-4.1588,-4.1588,-4.1588,-4.1588,-4.1588,-4.1588,-4.1588,-4.1588,-4.1588,-4.1588,-4.1588,-4.1588,-4.1588,-4.1588,-4.1588,-4.1841,-4.2331,-4.3058,-4.3311,-4.3658,-4.4085,-4.478,-4.5128,-4.5128,-4.5586,-4.5807,-4.5807,-4.5807,-4.5807,-4.1073,-4.2285,-4.3578,0.0,0.0,0.0,0.0,0.0,0.0,0.0,0.0,0.0,0.0,0.0,0.0,0.0,0.0,0.0,0.0,0.0,0.0,0.0,0.0,0.0,0.0,0.0,0.0,0.0,0.0,0.0,0.0,-4.994,-4.9509,-4.9509,-4.9509,-4.9509,-4.9509,-4.9509,-4.9345,-4.8974,-4.8802,-4.8402,-4.7806,-4.7741,-4.7717,-4.7717,-4.7717,-4.7717,-4.7717,-4.7717,-4.7717,-4.7657,-4.716,-4.6998,-4.6952,-4.6416,-4.6172,-4.6172,-4.6172,-4.6172,-4.6172,-4.6172,-4.6172,-4.6172,-4.6172,-4.5684,-4.5072,-4.4964,-4.4373,-4.3789,-4.3628,-4.3432,-4.3235,-4.3113,-4.3113,-4.2929,-4.2349,-4.2349,-4.2285,-4.1851,-4.1654,-4.1588,-4.1588,-4.1588,-4.1588,-4.1588,-4.1588,-4.1588,-4.1588,-4.1588,-4.1588,-4.1588,-4.1588,-4.1588,-4.1588,-4.1588,-4.1588,-4.1588,-4.1588,-4.181,-4.2315,-4.2568,-4.2916,-4.339,-4.4053,-4.4401,-4.4401,-4.5112,-4.546,-4.5476,-4.5697,-4.5807,-4.0994,-4.2212,-4.3493,0.0,0.0,0.0,0.0,0.0,0.0,0.0,0.0,0.0,0.0,0.0,0.0,0.0,0.0,0.0,0.0,0.0,0.0,0.0,0.0,0.0,0.0,0.0,0.0,0.0,0.0,0.0,0.0,-4.994,-4.9509,-4.9509,-4.9509,-4.9509,-4.9509,-4.9509,-4.9327,-4.9008,-4.9008,-4.8677,-4.8114,-4.7829,-4.7699,-4.7717,-4.7717,-4.7717,-4.7717,-4.7717,-4.7717,-4.7657,-4.7178,-4.6998,-4.6952,-4.6416,-4.6172,-4.6172,-4.6172,-4.6172,-4.6172,-4.6172,-4.6172,-4.6172,-4.6172,-4.5905,-4.5529,-4.5018,-4.4597,-4.4196,-4.373,-4.3628,-4.3492,-4.3174,-4.3113,-4.3035,-4.2648,-4.2349,-4.2109,-4.2109,-4.1851,-4.1588,-4.1588,-4.1588,-4.1588,-4.1588,-4.1588,-4.1588,-4.1588,-4.1588,-4.1588,-4.1588,-4.1588,-4.1588,-4.1588,-4.1588,-4.1588,-4.1588,-4.1588,-4.1588,-4.1588,-4.2284,-4.2679,-4.2679,-4.3358,-4.3706,-4.3706,-4.4369,-4.4701,-4.4717,-4.546,-4.5807,-4.1071,-4.2298,0.0,0.0,0.0,0.0,0.0,0.0,0.0,0.0,0.0,0.0,0.0,0.0,0.0,0.0,0.0,0.0,0.0,0.0,0.0,0.0,0.0,0.0,0.0,0.0,0.0,0.0,0.0,0.0,0.0,-5.0466,-5.0072,-4.9527,-4.9509,-4.9509,-4.9509,-4.9509,-4.9459,-4.9345,-4.9094,-4.8677,-4.8114,-4.8014,-4.787,-4.7717,-4.7717,-4.7717,-4.7717,-4.7717,-4.7717,-4.7675,-4.7338,-4.7098,-4.6952,-4.659,-4.6368,-4.6172,-4.6172,-4.6172,-4.6172,-4.6172,-4.6172,-4.6172,-4.6172,-4.5905,-4.5529,-4.5018,-4.4597,-4.4196,-4.373,-4.3628,-4.3432,-4.2867,-4.2929,-4.2851,-4.2093,-4.1964,-4.2045,-4.1785,-4.1654,-4.1588,-4.1588,-4.1588,-4.1588,-4.1588,-4.1588,-4.1588,-4.1588,-4.1588,-4.1588,-4.1588,-4.1588,-4.1588,-4.1588,-4.1588,-4.1588,-4.1588,-4.1588,-4.1588,-4.1588,-4.1794,-4.192,-4.192,-4.2631,-4.2995,-4.2995,-4.369,-4.4022,-4.4038,-4.4717,-4.5049,-4.1054,0.0,0.0,0.0,0.0,0.0,0.0,0.0,0.0,0.0,0.0,0.0,0.0,0.0,0.0,0.0,0.0,0.0,0.0,0.0,0.0,0.0,0.0,0.0,0.0,0.0,0.0,0.0,0.0,0.0,0.0,-5.0391,-4.9997,-4.9527,-4.9509,-4.9509,-4.9509,-4.9509,-4.9509,-4.9509,-4.9295,-4.8872,-4.8307,-4.8153,-4.7933,-4.7717,-4.7717,-4.7717,-4.7717,-4.7717,-4.7717,-4.7657,-4.7407,-4.7187,-4.698,-4.6684,-4.6447,-4.6172,-4.6172,-4.6172,-4.6172,-4.6172,-4.6172,-4.6172,-4.6172,-4.5905,-4.5529,-4.5018,-4.4597,-4.4196,-4.373,-4.3628,-4.3432,-4.2929,-4.2867,-4.2743,-4.2158,-4.2029,-4.2045,-4.1851,-4.1785,-4.1785,-4.1588,-4.1588,-4.1588,-4.1588,-4.1588,-4.1588,-4.1588,-4.1588,-4.1588,-4.1588,-4.1588,-4.1588,-4.1588,-4.1588,-4.1588,-4.1588,-4.1588,-4.1588,-4.1588,-4.1588,-4.1588,-4.1588,-4.2031,-4.2252,-4.2252,-4.2963,-4.3311,-4.3327,-4.399,-4.4448,-4.1003,0.0,0.0,0.0,0.0,0.0,0.0,0.0,0.0,0.0,0.0,0.0,0.0,0.0,0.0,0.0,0.0,0.0,0.0,0.0,0.0,0.0,0.0,0.0,0.0,0.0,0.0,0.0,0.0,0.0,0.0,-4.9959,-4.9584,-4.9509,-4.9509,-4.9509,-4.9509,-4.9509,-4.9509,-4.9509,-4.9509,-4.9197,-4.8587,-4.8269,-4.7974,-4.7717,-4.7717,-4.7717,-4.7717,-4.7717,-4.7717,-4.7675,-4.7407,-4.7187,-4.698,-4.6749,-4.6447,-4.6172,-4.6172,-4.6172,-4.6172,-4.6172,-4.6172,-4.6172,-4.6172,-4.5955,-4.5529,-4.5018,-4.4652,-4.4236,-4.373,-4.3628,-4.3492,-4.3235,-4.2867,-4.2618,-4.2539,-4.2285,-4.2109,-4.2045,-4.2109,-4.198,-4.1654,-4.1588,-4.1588,-4.1588,-4.1588,-4.1588,-4.1588,-4.1588,-4.1588,-4.1588,-4.1588,-4.1588,-4.1588,-4.1588,-4.1588,-4.1588,-4.1588,-4.1588,-4.1588,-4.1588,-4.1588,-4.1588,-4.1588,-4.1588,-4.1588,-4.2252,-4.2584,-4.2616,-4.3263,-4.3927,0.0,-4.2264,0.0,0.0,0.0,0.0,0.0,0.0,0.0,0.0,0.0,0.0,0.0,0.0,0.0,0.0,0.0,0.0,0.0,0.0,0.0,0.0,0.0,0.0,0.0,0.0,0.0,0.0,0.0,0.0,-4.979,-5.0185,-5.0147,-4.9527,-4.9509,-4.9509,-4.9509,-4.9509,-4.9509,0.0,-4.9509,-4.9197,-4.8587,-4.8514,-4.821,-4.7717,-4.7717,-4.7717,-4.7717,-4.7717,-4.7717,-4.7699,-4.7615,-4.7338,-4.698,-4.6952,-4.6607,-4.6172,-4.6172,-4.6172,-4.6172,-4.6172,-4.6172,-4.6172,-4.6172,-4.6122,-4.5905,-4.5125,-4.4855,-4.4597,-4.3789,-4.3628,-4.3568,-4.3492,-4.3052,-4.2539,-4.2285,-4.2174,-4.2045,-4.1785,-4.1916,-4.198,-4.1654,-4.1588,-4.1588,-4.1588,-4.1588,-4.1588,-4.1588,-4.1588,-4.1588,-4.1588,-4.1588,-4.1588,-4.1588,-4.1588,-4.1588,-4.1588,-4.1588,-4.1588,-4.1588,-4.1588,-4.1588,-4.1588,-4.1588,-4.1588,-4.1588,-4.1746,-4.1825,-4.1841,-4.2568,-4.2979,0.0,0.0,0.0,0.0,0.0,0.0,0.0,0.0,0.0,0.0,0.0,0.0,0.0,0.0,0.0,0.0,0.0,0.0,0.0,0.0,0.0,0.0,0.0,0.0,0.0,0.0,0.0,0.0,0.0,-4.994,-4.9527,-4.9903,-4.9922,-4.9509,-4.9509,-4.9509,-4.9509,-4.9509,-4.9509,-4.9509,-4.9509,-4.9197,-4.8587,-4.8288,-4.801,-4.7717,-4.7717,-4.7717,-4.7717,-4.7717,-4.7717,-4.7717,-4.7717,-4.7399,-4.6998,-4.6998,-4.6655,-4.6172,-4.6172,-4.6172,-4.6172,-4.6172,-4.6172,-4.6172,-4.6172,-4.6073,-4.5803,-4.5354,-4.4927,-4.4502,-4.4064,-4.3789,-4.3628,-4.3628,-4.3235,-4.2726,-4.2412,-4.2476,-4.2349,-4.172,-4.2029,-4.2158,-4.172,-4.1588,-4.1588,-4.1588,-4.1588,-4.1588,-4.1588,-4.1588,-4.1588,-4.1588,-4.1588,-4.1588,-4.1588,-4.1588,-4.1588,-4.1588,-4.1588,-4.1588,-4.1588,-4.1588,-4.1588,-4.1588,-4.1588,-4.1588,-4.1588,-4.1588,-4.1588,-4.1604,-4.1983,-4.2347,0.0,0.0,0.0,0.0,0.0,0.0,0.0,0.0,0.0,0.0,0.0,0.0,0.0,0.0,0.0,0.0,0.0,0.0,0.0,0.0,0.0,0.0,0.0,0.0,0.0,0.0,0.0,0.0,0.0,-4.9509,-4.9509,-4.9509,-4.9509,-4.9509,-4.9509,-4.9509,-4.9509,-4.9509,-4.9509,-4.9509,-4.9377,-4.9154,-4.879,-4.8024,-4.7717,-4.7717,-4.7717,-4.7717,-4.7717,-4.7717,-4.7717,-4.7717,-4.7717,-4.7425,-4.7025,-4.698,-4.6702,-4.627,-4.6221,-4.6172,-4.6172,-4.6122,-4.6122,-4.6172,-4.6122,-4.5905,-4.5701,-4.5632,-4.5052,-4.4406,-4.4293,-4.3964,-4.3628,-4.3628,-4.3372,-4.3096,-4.271,-4.2834,-4.2789,-4.1851,-4.2158,-4.2333,-4.172,-4.1588,-4.1588,-4.1588,-4.1588,-4.1588,-4.1588,-4.1588,-4.1588,-4.1588,-4.1588,-4.1588,-4.1588,-4.1588,-4.1588,-4.1588,-4.1588,-4.1588,-4.1588,-4.1588,-4.1588,-4.1588,-4.1588,-4.1588,-4.1588,-4.1588,-4.1588,-4.1588,-4.1588,-4.192,0.0,0.0,0.0,0.0,0.0,0.0,0.0,0.0,0.0,0.0,0.0,0.0,0.0,0.0,0.0,0.0,0.0,0.0,0.0,0.0,0.0,0.0,0.0,0.0,0.0,0.0,0.0,0.0,-4.9509,-4.9509,-4.9509,-4.9509,-4.9509,-4.9509,-4.9509,-4.9509,-4.9509,-4.9509,-4.9509,-4.949,-4.8978,-4.9029,-4.9602,-4.8279,-4.7717,-4.7717,-4.7717,-4.7717,-4.7717,-4.7717,-4.7717,-4.7717,-4.7717,-4.7511,-4.7232,-4.707,-4.6795,-4.6495,-4.627,-4.6172,-4.6122,-4.5803,-4.5905,-4.6122,-4.5803,-4.5905,-4.6073,-4.5701,-4.5249,-4.4763,-4.4406,-4.3964,-4.3628,-4.3628,-4.3568,-4.3355,-4.271,-4.2834,-4.2912,-4.2174,-4.2109,-4.2045,-4.1654,-4.1588,-4.1588,-4.1588,-4.1588,-4.1588,-4.1588,-4.1588,-4.1588,-4.1588,-4.1588,-4.1588,-4.1588,-4.1588,-4.1588,-4.1588,-4.1588,-4.1588,-4.1588,-4.1588,-4.1588,-4.1588,-4.1588,-4.1588,-4.1588,-4.1588,-4.1588,-4.1588,-4.1588,-4.1636,0.0,0.0,0.0,0.0,0.0,0.0,0.0,0.0,0.0,0.0,0.0,0.0,0.0,0.0,0.0,0.0,0.0,0.0,0.0,0.0,0.0,0.0,0.0,0.0,0.0,0.0,0.0,0.0,-4.9544,-4.9509,-4.9509,-4.9509,-4.9509,-4.9509,-4.9509,-4.9509,-4.9509,-4.9509,-4.9509,-4.949,-4.889,-4.879,-4.9086,-4.8134,-4.7953,-4.8369,-4.7916,-4.7717,-4.7717,-4.7717,-4.7717,-4.7717,-4.7717,-4.7554,-4.7276,-4.707,-4.6842,-4.6542,-4.627,-4.6172,-4.6122,-4.5752,-4.5752,-4.5786,-4.5354,-4.5354,-4.5511,-4.558,-4.5089,-4.4541,-4.4597,-4.4105,-4.3628,-4.3628,-4.3628,-4.3492,-4.2974,-4.2974,-4.2974,-4.2459,-4.2222,-4.2045,-4.1916,-4.172,-4.1588,-4.1588,-4.1588,-4.1588,-4.1588,-4.1588,-4.1588,-4.1588,-4.1588,-4.1588,-4.1588,-4.1588,-4.1588,-4.1588,-4.1588,-4.1588,-4.1588,-4.1588,-4.1588,-4.1588,-4.1588,-4.1588,-4.1588,-4.1588,-4.1588,-4.1588,-4.1588,-4.1588,0.0,0.0,0.0,0.0,0.0,0.0,0.0,0.0,0.0,0.0,0.0,0.0,0.0,0.0,0.0,0.0,0.0,0.0,0.0,0.0,0.0,0.0,0.0,0.0,0.0,0.0,0.0,0.0,-4.9585,-4.9509,-4.9509,-4.9509,-4.9509,-4.9509,-4.9509,-4.9509,-4.9509,-4.9509,-4.9509,-4.949,-4.8959,-4.877,-4.8901,-4.8123,-4.8218,-4.8894,-4.8279,-4.8134,-4.8297,-4.8098,-4.8007,-4.7989,-4.779,-4.7572,-4.7363,-4.7116,-4.6888,-4.6637,-4.6319,-4.6172,-4.6122,-4.5752,-4.5684,-4.5632,-4.5072,-4.4964,-4.5125,-4.5354,-4.4889,-4.435,-4.4652,-4.4162,-4.3628,-4.3628,-4.3628,-4.3509,-4.3295,-4.3174,-4.3035,-4.2772,-4.2539,-4.2302,-4.2109,-4.1916,-4.172,-4.1588,-4.1588,-4.1588,-4.1588,-4.1588,-4.1588,-4.1588,-4.1588,-4.1588,-4.1588,-4.1588,-4.1588,-4.1588,-4.1588,-4.1588,-4.1588,-4.1588,-4.1588,-4.1588,-4.1588,-4.1588,-4.1588,-4.1588,-4.1588,-4.1588,-4.1588,-4.1588,0.0,0.0,0.0,0.0,0.0,0.0,0.0,0.0,0.0,0.0,0.0,0.0,0.0,0.0,0.0,0.0,0.0,0.0,0.0,0.0,0.0,0.0,0.0,0.0,0.0,0.0,0.0,0.0,-4.9509,-4.9509,-4.9509,-4.9509,-4.9509,-4.9509,-4.9509,-4.9509,-4.9509,-4.9509,-4.9509,-4.9509,-4.9146,-4.9245,-4.9694,-4.8579,-4.8389,-4.8912,-4.8876,-4.9275,-4.9908,-4.9166,-4.8858,-4.8768,-4.8007,-4.7699,-4.7615,-4.7178,-4.6998,-4.6888,-4.6368,-4.6172,-4.6122,-4.5752,-4.5854,-4.6005,-4.5178,-4.5196,-4.5477,-4.5072,-4.4597,-4.4293,-4.431,-4.3964,-4.3628,-4.3628,-4.3628,-4.3628,-4.3568,-4.3295,-4.3096,-4.3096,-4.3035,-4.2851,-4.2238,-4.2109,-4.198,-4.1654,-4.1588,-4.1588,-4.1588,-4.1588,-4.1588,-4.1588,-4.1588,-4.1588,-4.1588,-4.1588,-4.1588,-4.1588,-4.1588,-4.1588,-4.1588,-4.1588,-4.1588,-4.1588,-4.1588,-4.1588,-4.1588,-4.1588,-4.1588,-4.1588,-4.1588,-4.1588,0.0,0.0,0.0,0.0,0.0,0.0,0.0,0.0,0.0,0.0,0.0,0.0,0.0,0.0,0.0,0.0,0.0,0.0,0.0,0.0,0.0,0.0,0.0,0.0,0.0,0.0,0.0,0.0,0.0,-4.9509,-4.9509,-4.9509,-4.9509,-4.9509,-4.9509,-4.9509,-4.9509,-4.9509,-4.9509,-4.9509,-4.9179,-4.902,-4.9012,-4.8398,-4.837,-4.8912,-4.8912,-4.9075,-4.9347,-4.9582,-4.9673,-4.9637,-4.9347,-4.9133,-4.8902,-4.8064,-4.7477,-4.6935,-4.6112,-4.5803,-4.5701,-4.4998,-4.5035,-4.5178,-4.4316,-4.4162,-4.4333,-4.4502,-4.4179,-4.3906,-4.4236,-4.3964,-4.3628,-4.3628,-4.3628,-4.3628,-4.3628,-4.3492,-4.3372,-4.3174,-4.3113,-4.2974,-4.2476,-4.2222,-4.198,-4.1654,-4.1588,-4.1588,-4.1588,-4.1588,-4.1588,-4.1588,-4.1588,-4.1588,-4.1588,-4.1588,-4.1588,-4.1588,-4.1588,-4.1588,-4.1588,-4.1588,-4.1588,-4.1588,-4.1588,-4.1588,-4.1588,-4.1588,-4.1588,-4.1588,-4.1588,-4.1588,-4.3122,0.0,0.0,0.0,0.0,0.0,0.0,0.0,0.0,0.0,0.0,0.0,0.0,0.0,0.0,0.0,0.0,0.0,0.0,0.0,0.0,0.0,0.0,0.0,0.0,0.0,0.0,0.0,0.0,0.0,-4.9509,-4.9509,-4.9509,-4.9509,-4.9509,-4.9509,-4.9509,-4.9377,-4.9377,-4.9509,-4.9179,-4.8872,-4.8587,-4.8383,-4.8346,-4.8532,-4.8786,-4.9057,-4.9347,-4.9872,-5.009,-5.009,-5.009,-4.9938,-4.9593,-4.884,-4.8196,-4.7557,-4.6378,-4.5962,-4.5805,-4.4793,-4.4708,-4.4746,-4.4064,-4.3848,-4.3848,-4.4023,-4.3848,-4.3687,-4.3964,-4.3848,-4.3628,-4.3628,-4.3628,-4.3628,-4.3628,-4.3628,-4.3552,-4.3295,-4.3235,-4.3174,-4.2851,-4.2476,-4.2174,-4.1851,-4.1654,-4.1588,-4.1588,-4.1588,-4.1588,-4.1588,-4.1588,-4.1588,-4.1588,-4.1588,-4.1588,-4.1588,-4.1588,-4.1588,-4.1588,-4.1588,-4.1588,-4.1588,-4.1588,-4.1588,-4.1588,-4.1588,-4.1588,-4.1588,-4.1588,-4.1588,0.0,0.0,0.0,0.0,0.0,0.0,0.0,0.0,0.0,0.0,0.0,0.0,0.0,0.0,0.0,0.0,0.0,0.0,0.0,0.0,0.0,0.0,0.0,0.0,0.0,0.0,0.0,0.0,-4.9509,-4.9509,-4.9509,-4.9509,-4.9509,-4.9509,-4.9509,-4.9509,-4.9509,-4.9179,-4.9179,-4.9459,-4.9146,-4.8837,-4.8587,-4.8587,-4.8267,-4.7753,-4.855,-4.9311,-5.0017,-5.0071,-5.009,-5.009,-5.0108,-4.9974,-4.9683,-4.9448,-4.9159,-4.8705,-4.7213,-4.6724,-4.6462,-4.5292,-4.4927,-4.4801,-4.4406,-4.431,-4.4179,-4.3747,-4.3628,-4.3628,-4.3628,-4.3628,-4.3628,-4.3628,-4.3628,-4.3628,-4.3628,-4.3628,-4.3628,-4.3628,-4.3628,-4.3492,-4.3174,-4.2805,-4.2508,-4.2174,-4.1785,-4.1588,-4.1588,-4.1588,-4.1588,-4.1588,-4.1588,-4.1588,-4.1588,-4.1588,-4.1588,-4.1588,-4.1588,-4.1588,-4.1588,-4.1588,-4.1588,-4.1588,-4.1588,-4.1588,-4.1588,-4.1588,-4.1588,-4.1588,-4.1588,-4.1588,-4.315,0.0,0.0,0.0,0.0,0.0,0.0,0.0,0.0,0.0,0.0,0.0,0.0,0.0,0.0,0.0,0.0,0.0,0.0,0.0,0.0,0.0,0.0,0.0,0.0,0.0,0.0,0.0,-4.9509,-4.9509,-4.9509,-4.9509,-4.9509,-4.9509,-4.9509,-4.9509,-4.9509,-4.9179,-4.9061,-4.9127,-4.8837,-4.8532,-4.8231,-4.8231,-4.8053,-4.7717,-4.7953,-4.817,-4.846,-4.9619,-5.009,-5.0144,-5.0723,-5.0667,-5.0271,-5.0204,-4.969,-4.8922,-4.7941,-4.703,-4.6131,-4.5501,-4.4925,-4.439,-4.3964,-4.3789,-4.3789,-4.3628,-4.3628,-4.3628,-4.3628,-4.3628,-4.3628,-4.3628,-4.3628,-4.3628,-4.3628,-4.3628,-4.3628,-4.3628,-4.3628,-4.3492,-4.3174,-4.2851,-4.2476,-4.2174,-4.1785,-4.1588,-4.1588,-4.1588,-4.1588,-4.1588,-4.1588,-4.1588,-4.1588,-4.1588,-4.1588,-4.1588,-4.1588,-4.1588,-4.1588,-4.1588,-4.1588,-4.1588,-4.1588,-4.1588,-4.1588,-4.1588,-4.1588,-4.1588,-4.1588,-4.1588,0.0,0.0,0.0,0.0,0.0,0.0,-4.5847,-4.5814,0.0,0.0,0.0,0.0,0.0,0.0,0.0,0.0,0.0,0.0,0.0,0.0,0.0,0.0,0.0,0.0,0.0,-4.9891,-4.9731,-4.9521,-4.9509,-4.9509,-4.9509,-4.9509,-4.9509,-4.9509,-4.9509,-4.9509,-4.9509,-4.9179,-4.9008,-4.8974,-4.8731,-4.8421,-4.8114,-4.8114,-4.7933,-4.7717,-4.7717,-4.7717,-4.7772,-4.8713,-4.9293,-4.9673,-5.0488,-5.044,-5.0013,-4.9995,-4.9743,-4.9199,-4.8271,-4.73,-4.6408,-4.5669,-4.4749,-4.3964,-4.3671,-4.3628,-4.3628,-4.3628,-4.3628,-4.3628,-4.3628,-4.3628,-4.3628,-4.3628,-4.3628,-4.3628,-4.3628,-4.3628,-4.3628,-4.3628,-4.3628,-4.3568,-4.3355,-4.3035,-4.271,-4.2349,-4.2029,-4.1785,-4.1588,-4.1588,-4.1588,-4.1588,-4.1588,-4.1588,-4.1588,-4.1588,-4.1588,-4.1588,-4.1588,-4.1588,-4.1588,-4.1588,-4.1588,-4.1588,-4.1588,-4.1588,-4.1588,-4.1588,-4.1588,-4.1588,-4.1588,-4.1588,0.0,0.0,0.0,0.0,0.0,0.0,-4.5893,-4.586,-4.5814,0.0,0.0,0.0,0.0,0.0,0.0,0.0,0.0,0.0,0.0,0.0,0.0,0.0,0.0,0.0,-4.9698,-4.9738,-4.9674,-4.9521,-4.9509,-4.9509,-4.9509,-4.9509,-4.9509,-4.9509,-4.9509,-4.9509,-4.9509,-4.9146,-4.894,-4.894,-4.866,-4.8345,-4.8075,-4.8075,-4.7951,-4.7717,-4.7717,-4.7717,-4.7717,-4.7717,-4.8091,-4.8815,-4.9637,-4.9631,-4.9162,-4.9233,-4.9351,-4.9345,-4.8327,-4.7579,-4.6908,-4.5845,-4.4633,-4.3687,-4.3628,-4.3628,-4.3628,-4.3628,-4.3628,-4.3628,-4.3628,-4.3628,-4.3628,-4.3628,-4.3628,-4.3628,-4.3628,-4.3628,-4.3628,-4.3628,-4.3568,-4.3568,-4.3568,-4.3295,-4.299,-4.2713,-4.2397,-4.1996,-4.1654,-4.1588,-4.1588,-4.1588,-4.1588,-4.1588,-4.1588,-4.1588,-4.1588,-4.1588,-4.1588,-4.1588,-4.1588,-4.1588,-4.1588,-4.1588,-4.1588,-4.1588,-4.1588,-4.1588,-4.1588,-4.1588,-4.1588,-4.1588,0.0,0.0,0.0,0.0,0.0,0.0,-4.5906,-4.5893,-4.5893,0.0,0.0,0.0,0.0,0.0,0.0,0.0,0.0,0.0,0.0,0.0,0.0,0.0,0.0,0.0,-4.8837,-4.9258,-4.9532,-4.949,-4.9509,-4.9509,-4.9509,-4.9509,-4.9509,-4.9509,-4.9509,-4.9509,-4.9509,-4.8959,-4.866,-4.866,-4.8151,-4.7847,-4.7783,-4.7783,-4.7741,-4.7717,-4.7717,-4.7717,-4.7717,-4.7717,-4.7662,-4.7713,-4.8735,-4.8731,-4.8192,-4.8989,-4.8847,-4.8238,-4.8365,-4.7452,-4.6259,-4.6049,-4.5185,-4.4064,-4.373,-4.3628,-4.3628,-4.3628,-4.3628,-4.3628,-4.3628,-4.3628,-4.3628,-4.3628,-4.3628,-4.3628,-4.3628,-4.3628,-4.3628,-4.3628,-4.3372,-4.3295,-4.3568,-4.3113,-4.284,-4.3309,-4.2719,-4.2125,-4.167,-4.1588,-4.1588,-4.1588,-4.1588,-4.1588,-4.1588,-4.1588,-4.1588,-4.1588,-4.1588,-4.1588,-4.1588,-4.1588,-4.1588,-4.1588,-4.1588,-4.1588,-4.1588,-4.1588,-4.1588,-4.1588,-4.1588,-4.1588,0.0,0.0,0.0,-4.5944,0.0,0.0,0.0,-4.5887,-4.5893,-4.586,0.0,0.0,0.0,0.0,0.0,0.0,0.0,0.0,0.0,0.0,0.0,0.0,0.0,0.0,-4.7806,-4.8434,-4.9039,-4.9471,-4.9509,-4.9509,-4.9509,-4.9345,-4.9345,-4.949,-4.9345,-4.9345,-4.9509,-4.9027,-4.8731,-4.8587,-4.8132,-4.7847,-4.7717,-4.7717,-4.7717,-4.7717,-4.7717,-4.7717,-4.7699,-4.7572,-4.7381,-4.7223,-4.7857,-4.7797,-4.7453,-4.7826,-4.7691,-4.7349,-4.7544,-4.6803,-4.5773,-4.5773,-4.494,-4.3906,-4.3687,-4.3628,-4.3628,-4.3628,-4.3628,-4.3628,-4.3628,-4.3628,-4.3628,-4.3628,-4.3628,-4.3628,-4.3628,-4.3628,-4.3628,-4.3628,-4.3279,-4.319,-4.352,-4.3317,-4.3199,-4.3548,-4.3086,-4.2398,-4.1707,-4.1601,-4.1578,-4.1604,-4.1614,-4.1578,-4.1604,-4.1614,-4.1578,-4.1604,-4.1629,-4.1563,-4.1604,-4.1588,-4.1588,-4.1588,-4.1588,-4.1588,-4.1588,-4.1588,-4.1588,-4.1588,-4.1588,-4.1588,0.0,0.0,0.0,0.0,0.0,-4.5929,0.0,0.0,0.0,-4.5827,0.0,0.0,0.0,0.0,0.0,0.0,0.0,0.0,0.0,0.0,0.0,0.0,0.0,0.0,0.0,-4.75,-4.8326,-4.9189,-4.9246,-4.929,-4.9409,-4.9146,-4.9094,-4.9313,-4.9061,-4.9061,-4.9313,-4.8993,-4.8731,-4.8514,-4.8192,-4.7911,-4.7717,-4.7717,-4.7717,-4.7717,-4.7717,-4.7717,-4.7657,-4.7468,-4.7232,-4.707,-4.7187,-4.7098,-4.6842,-4.6637,-4.6523,-4.6375,-4.6481,-4.5925,-4.5192,-4.5192,-4.4474,-4.3628,-4.3628,-4.3628,-4.3628,-4.3628,-4.3628,-4.3628,-4.3628,-4.3628,-4.3628,-4.3628,-4.3628,-4.3628,-4.3628,-4.3628,-4.3628,-4.3628,-4.3339,-4.3207,-4.353,-4.3405,-4.3295,-4.3562,-4.3339,-4.278,-4.1693,-4.1633,-4.1539,-4.1311,-4.146,-4.1586,-4.1582,-4.1621,-4.1621,-4.1604,-4.159,-4.1621,-4.1604,-4.1588,-4.1588,-4.1588,-4.1588,-4.1588,-4.1588,-4.1588,-4.1588,-4.1588,-4.1588,-4.1588,0.0,0.0,0.0,0.0,-4.5994,0.0,0.0,0.0,-4.598,-4.5905,0.0,0.0,0.0,0.0,0.0,0.0,0.0,0.0,0.0,0.0,0.0,0.0,0.0,0.0,0.0,-4.6636,-4.7481,-4.8288,-4.8345,-4.8571,-4.9023,-4.9027,-4.8906,-4.8714,-4.866,-4.866,-4.8695,-4.8383,-4.8192,-4.8135,-4.7888,-4.7741,-4.7717,-4.7717,-4.7717,-4.7717,-4.7717,-4.7717,-4.7717,-4.7675,-4.7511,-4.7276,-4.7116,-4.6749,-4.6319,-4.6542,-4.5972,-4.5138,-4.5598,-4.5172,-4.4411,-4.4411,-4.4031,-4.3628,-4.3628,-4.3628,-4.3628,-4.3628,-4.3628,-4.3628,-4.3628,-4.3628,-4.3628,-4.3628,-4.3628,-4.3628,-4.3628,-4.3628,-4.3628,-4.3628,-4.3552,-4.3558,-4.3608,-4.2615,-4.2236,-4.3434,-4.3565,-4.3053,-4.1789,-4.1609,-4.1229,-4.0198,-4.1033,-4.1629,-4.1628,-4.161,-4.1636,-4.1588,-4.162,-4.1636,-4.1588,-4.1588,-4.1588,-4.1588,-4.1588,-4.1588,-4.1588,-4.1588,-4.1588,-4.1588,-4.1588,-4.1588,0.0,0.0,0.0,0.0,0.0,0.0,-4.6014,0.0,-4.5991,0.0,0.0,0.0,0.0,0.0,0.0,0.0,-4.5414,0.0,0.0,0.0,0.0,0.0,0.0,0.0,0.0,0.0,0.0,0.0,-4.75,-4.7541,-4.7607,-4.7853,-4.7974,-4.7921,-4.8181,-4.8383,-4.8587,-4.8269,-4.8114,-4.8114,-4.7847,-4.7717,-4.7717,-4.7717,-4.7717,-4.7717,-4.7717,-4.7717,-4.7675,-4.7399,-4.7205,-4.7116,-4.6702,-4.6495,-4.6416,-4.635,-4.5768,-4.491,-4.5125,-4.4597,-4.3906,-4.3906,-4.373,-4.3628,-4.3628,-4.3628,-4.3628,-4.3628,-4.3628,-4.3628,-4.3628,-4.3628,-4.3628,-4.3628,-4.3628,-4.3628,-4.3628,-4.3628,-4.3628,-4.3628,-4.3628,-4.3597,-4.3581,-4.3124,-4.2929,-4.3506,-4.3573,-4.3153,-4.1767,-4.157,-4.1448,-4.0948,-4.0109,-3.9635,-3.9649,-4.0832,-4.1622,-4.157,-4.1621,-4.1621,-4.1621,-4.1621,-4.1594,-4.1588,-4.1594,-4.1594,-4.1588,-4.1594,-4.1594,-4.1588,-4.1588,-4.1588,-4.6164,0.0,0.0,0.0,0.0,0.0,0.0,0.0,0.0,0.0,0.0,0.0,0.0,0.0,0.0,0.0,0.0,-4.5413,0.0,0.0,0.0,0.0,0.0,0.0,0.0,0.0,0.0,-4.658,-4.6636,-4.6611,-4.6485,-4.6789,-4.6946,-4.682,-4.7364,-4.7803,-4.8033,-4.8023,-4.8014,-4.8014,-4.7806,-4.7717,-4.7717,-4.7717,-4.7717,-4.7717,-4.7717,-4.7657,-4.7554,-4.7205,-4.7025,-4.6842,-4.6464,-4.635,-4.6447,-4.627,-4.5735,-4.5072,-4.5072,-4.4541,-4.3789,-4.3628,-4.3628,-4.3628,-4.3628,-4.3628,-4.3628,-4.3628,-4.3628,-4.3628,-4.3628,-4.3628,-4.3628,-4.3628,-4.3628,-4.3628,-4.3628,-4.3628,-4.3628,-4.3628,-4.3628,-4.3614,-4.3616,-4.329,-4.3049,-4.3025,-4.3035,-4.2446,-4.0876,-4.0677,-4.0659,-4.0639,-3.9174,-3.8221,-3.8184,-3.9703,-4.0839,-4.114,-4.1464,-4.1317,-4.0724,-4.1277,-4.1596,-4.1598,-4.1621,-4.1283,-4.0669,-4.0987,-4.1195,-4.139,-4.1522,-4.1588,0.0,0.0,0.0,-4.6017,0.0,0.0,0.0,0.0,-4.5986,0.0,0.0,0.0,0.0,0.0,0.0,0.0,0.0,0.0,0.0,0.0,0.0,0.0,0.0,0.0,0.0,0.0,0.0,-4.5679,-4.5735,-4.5847,-4.6091,-4.6131,-4.592,-4.5367,-4.6164,-4.654,-4.6581,-4.7319,-4.7699,-4.7699,-4.7699,-4.7717,-4.7717,-4.7717,-4.7717,-4.7717,-4.7717,-4.7554,-4.7302,-4.732,-4.7035,-4.659,-4.659,-4.6447,-4.6221,-4.6221,-4.5955,-4.558,-4.558,-4.4998,-4.4196,-4.3747,-4.3628,-4.3628,-4.3628,-4.3628,-4.3628,-4.3628,-4.3628,-4.3628,-4.3628,-4.3628,-4.3628,-4.3628,-4.3628,-4.3628,-4.3628,-4.3628,-4.3628,-4.3628,-4.3628,-4.3575,-4.3624,-4.255,-4.1662,-4.1638,-4.1689,-4.0826,-3.8601,-3.8273,-3.8351,-3.8296,-3.8273,-3.8184,-3.8179,-3.8288,-3.8802,-3.9874,-4.0968,-4.0598,-3.8422,-4.0462,-4.157,-4.1638,-4.1578,-4.0524,-3.8296,-3.939,-4.0238,-4.0867,-4.139,-4.1588,0.0,0.0,-4.6144,-4.6072,0.0,0.0,0.0,0.0,0.0,0.0,0.0,0.0,0.0,0.0,0.0,0.0,0.0,0.0,0.0,0.0,0.0,0.0,0.0,0.0,0.0,0.0,0.0,-4.4651,-4.464,-4.4519,-4.4267,-4.4764,-4.4876,-4.4512,-4.5291,-4.5707,-4.5707,-4.5979,-4.6377,-4.692,-4.692,-4.7192,-4.7717,-4.7717,-4.7717,-4.7717,-4.7717,-4.7554,-4.7302,-4.7143,-4.6916,-4.659,-4.6398,-4.627,-4.6172,-4.6172,-4.5972,-4.5529,-4.4944,-4.4575,-4.4236,-4.373,-4.3628,-4.3628,-4.3628,-4.3628,-4.3628,-4.3628,-4.3628,-4.3628,-4.3628,-4.3628,-4.3628,-4.3628,-4.3628,-4.3628,-4.3628,-4.3628,-4.3628,-4.3628,-4.3628,-4.3586,-4.3572,-4.3234,-4.2084,-3.9734,-4.0601,-4.0934,-3.9224,-3.8519,-3.8178,-3.8208,-3.8208,-3.8179,-3.8222,-3.8165,-3.8352,-3.8718,-4.0576,-4.0592,-3.8307,-3.8934,-4.0071,-4.1535,-4.1565,-4.0455,-3.8222,-3.9625,-4.0154,-3.9862,-4.0263,-4.0888,-4.6211,-4.6191,0.0,-4.6158,-4.6162,0.0,-4.6052,0.0,0.0,0.0,0.0,0.0,0.0,0.0,0.0,0.0,0.0,0.0,0.0,-4.4783,0.0,0.0,0.0,0.0,0.0,0.0,-4.4335,-4.3986,-4.403,-4.3873,0.0,0.0,-4.3944,-4.3661,-4.444,-4.4874,-4.4874,-4.5164,-4.5562,-4.6069,-4.6069,-4.6504,-4.7283,-4.7181,-4.7283,-4.7554,-4.7486,-4.7294,-4.7035,-4.6916,-4.6684,-4.6447,-4.627,-4.6172,-4.6172,-4.6172,-4.6023,-4.5684,-4.4998,-4.4669,-4.4446,-4.4006,-4.3747,-4.3628,-4.3628,-4.3628,-4.3777,-4.4572,-4.4224,-4.381,-4.4589,-4.4208,-4.3628,-4.3628,-4.3628,-4.3628,-4.3628,-4.3628,-4.3509,-4.3295,-4.3235,-4.3203,-4.312,-4.2948,-4.1774,-3.8645,-3.9429,-4.0081,-3.9073,-3.8781,-3.8517,-3.825,-3.8193,-3.8193,-3.8188,-3.8222,-3.8179,-3.8179,-3.9565,-3.9713,-3.8282,-3.8209,-3.9324,-4.1694,-4.0873,-3.9809,-3.8644,-3.9373,-3.952,-3.9298,-3.9505,-4.0115]}]]